Wetterdaten: Freitag, 13.11.2015
Datum Zeit Temp. A. Feuchte A. Luftdruck Regen Wind Richtung Richtung Sonnenschein ET UV Solar Taupunkt Windchill Windben Empfang
13.11.2015 00:00 4,5 C 97 % 1026,6 hPa 0,0 l/m 2,0 km/h (1 Bft) O 80 0 min 0,000 mm 0,0 UV-I 0 W/m 4,1 C 4,5 C 3,2 km/h (1 Bft) 100,00 %
13.11.2015 00:02 4,4 C 97 % 1026,6 hPa 0,0 l/m 0,6 km/h (0 Bft) O 80 0 min 0,000 mm 0,0 UV-I 0 W/m 4,0 C 4,4 C 1,6 km/h (1 Bft) 100,00 %
13.11.2015 00:03 4,4 C 97 % 1026,6 hPa 0,0 l/m 0,2 km/h (0 Bft) O 79 0 min 0,000 mm 0,0 UV-I 0 W/m 4,0 C 4,4 C 3,2 km/h (1 Bft) 100,00 %
13.11.2015 00:04 4,3 C 97 % 1026,6 hPa 0,0 l/m 1,0 km/h (0 Bft) O 79 0 min 0,000 mm 0,0 UV-I 0 W/m 3,9 C 4,3 C 3,2 km/h (1 Bft) 100,00 %
13.11.2015 00:05 4,3 C 97 % 1026,6 hPa 0,0 l/m 0,1 km/h (0 Bft) O 79 0 min 0,000 mm 0,0 UV-I 0 W/m 3,9 C 4,3 C 1,6 km/h (1 Bft) 100,00 %
13.11.2015 00:06 4,3 C 97 % 1026,6 hPa 0,0 l/m 0,1 km/h (0 Bft) O 80 0 min 0,000 mm 0,0 UV-I 0 W/m 3,9 C 4,3 C 1,6 km/h (1 Bft) 100,00 %
13.11.2015 00:07 4,3 C 97 % 1026,6 hPa 0,0 l/m 0,0 km/h (0 Bft) O 80 0 min 0,000 mm 0,0 UV-I 0 W/m 3,9 C 4,3 C 0,0 km/h (0 Bft) 100,00 %
13.11.2015 00:08 4,2 C 97 % 1026,6 hPa 0,0 l/m 0,0 km/h (0 Bft) O 79 0 min 0,000 mm 0,0 UV-I 0 W/m 3,8 C 4,2 C 0,0 km/h (0 Bft) 100,00 %
13.11.2015 00:09 4,2 C 97 % 1026,5 hPa 0,0 l/m 0,1 km/h (0 Bft) O 79 0 min 0,000 mm 0,0 UV-I 0 W/m 3,8 C 4,2 C 1,6 km/h (1 Bft) 100,00 %
13.11.2015 00:10 4,2 C 97 % 1026,5 hPa 0,0 l/m 0,1 km/h (0 Bft) O 79 0 min 0,000 mm 0,0 UV-I 0 W/m 3,8 C 4,2 C 1,6 km/h (1 Bft) 100,00 %
13.11.2015 00:11 4,1 C 97 % 1026,5 hPa 0,0 l/m 0,1 km/h (0 Bft) O 79 0 min 0,000 mm 0,0 UV-I 0 W/m 3,7 C 4,1 C 1,6 km/h (1 Bft) 100,00 %
13.11.2015 00:12 4,1 C 97 % 1026,5 hPa 0,0 l/m 0,2 km/h (0 Bft) O 79 0 min 0,000 mm 0,0 UV-I 0 W/m 3,7 C 4,1 C 1,6 km/h (1 Bft) 100,00 %
13.11.2015 00:13 4,0 C 97 % 1026,5 hPa 0,0 l/m 0,7 km/h (0 Bft) O 79 0 min 0,000 mm 0,0 UV-I 0 W/m 3,6 C 4,0 C 1,6 km/h (1 Bft) 100,00 %
13.11.2015 00:14 3,9 C 97 % 1026,5 hPa 0,0 l/m 0,5 km/h (0 Bft) O 79 0 min 0,000 mm 0,0 UV-I 0 W/m 3,5 C 3,9 C 1,6 km/h (1 Bft) 100,00 %
13.11.2015 00:15 3,9 C 97 % 1026,5 hPa 0,0 l/m 0,8 km/h (0 Bft) O 80 0 min 0,000 mm 0,0 UV-I 0 W/m 3,5 C 3,9 C 1,6 km/h (1 Bft) 100,00 %
13.11.2015 00:16 3,9 C 97 % 1026,5 hPa 0,0 l/m 0,9 km/h (0 Bft) O 79 0 min 0,000 mm 0,0 UV-I 0 W/m 3,5 C 3,9 C 1,6 km/h (1 Bft) 100,00 %
13.11.2015 00:17 3,9 C 97 % 1026,5 hPa 0,0 l/m 0,6 km/h (0 Bft) O 79 0 min 0,000 mm 0,0 UV-I 0 W/m 3,5 C 3,9 C 1,6 km/h (1 Bft) 100,00 %
13.11.2015 00:18 3,9 C 97 % 1026,5 hPa 0,0 l/m 0,0 km/h (0 Bft) O 79 0 min 0,000 mm 0,0 UV-I 0 W/m 3,5 C 3,9 C 0,0 km/h (0 Bft) 100,00 %
13.11.2015 00:19 3,9 C 97 % 1026,5 hPa 0,0 l/m 0,5 km/h (0 Bft) O 79 0 min 0,000 mm 0,0 UV-I 0 W/m 3,5 C 3,9 C 1,6 km/h (1 Bft) 100,00 %
13.11.2015 00:20 3,9 C 97 % 1026,5 hPa 0,0 l/m 0,1 km/h (0 Bft) O 79 0 min 0,000 mm 0,0 UV-I 0 W/m 3,5 C 3,9 C 1,6 km/h (1 Bft) 95,83 %
13.11.2015 00:21 3,9 C 97 % 1026,5 hPa 0,0 l/m 0,1 km/h (0 Bft) O 79 0 min 0,000 mm 0,0 UV-I 0 W/m 3,5 C 3,9 C 1,6 km/h (1 Bft) 100,00 %
13.11.2015 00:22 3,9 C 97 % 1026,4 hPa 0,0 l/m 0,2 km/h (0 Bft) O 79 0 min 0,000 mm 0,0 UV-I 0 W/m 3,5 C 3,9 C 1,6 km/h (1 Bft) 100,00 %
13.11.2015 00:23 4,0 C 97 % 1026,5 hPa 0,0 l/m 0,6 km/h (0 Bft) O 79 0 min 0,000 mm 0,0 UV-I 0 W/m 3,6 C 4,0 C 1,6 km/h (1 Bft) 100,00 %
13.11.2015 00:24 4,1 C 97 % 1026,4 hPa 0,0 l/m 0,3 km/h (0 Bft) O 79 0 min 0,000 mm 0,0 UV-I 0 W/m 3,7 C 4,1 C 1,6 km/h (1 Bft) 100,00 %
13.11.2015 00:25 4,1 C 97 % 1026,4 hPa 0,0 l/m 1,0 km/h (0 Bft) O 79 0 min 0,000 mm 0,0 UV-I 0 W/m 3,7 C 4,1 C 1,6 km/h (1 Bft) 96,30 %
13.11.2015 00:26 4,1 C 97 % 1026,4 hPa 0,0 l/m 1,4 km/h (1 Bft) O 82 0 min 0,000 mm 0,0 UV-I 0 W/m 3,7 C 4,1 C 3,2 km/h (1 Bft) 96,15 %
13.11.2015 00:27 4,1 C 98 % 1026,4 hPa 0,0 l/m 0,1 km/h (0 Bft) O 82 0 min 0,000 mm 0,0 UV-I 0 W/m 3,8 C 4,1 C 1,6 km/h (1 Bft) 100,00 %
13.11.2015 00:28 4,2 C 97 % 1026,4 hPa 0,0 l/m 0,5 km/h (0 Bft) O 82 0 min 0,000 mm 0,0 UV-I 0 W/m 3,8 C 4,2 C 1,6 km/h (1 Bft) 100,00 %
13.11.2015 00:29 4,2 C 97 % 1026,4 hPa 0,0 l/m 1,7 km/h (1 Bft) O 83 0 min 0,000 mm 0,0 UV-I 0 W/m 3,8 C 4,2 C 3,2 km/h (1 Bft) 100,00 %
13.11.2015 00:30 4,2 C 97 % 1026,4 hPa 0,0 l/m 2,9 km/h (1 Bft) O 101 0 min 0,000 mm 0,0 UV-I 0 W/m 3,8 C 4,2 C 4,8 km/h (1 Bft) 94,12 %
13.11.2015 00:31 4,3 C 97 % 1026,5 hPa 0,0 l/m 2,9 km/h (1 Bft) O 90 0 min 0,000 mm 0,0 UV-I 0 W/m 3,9 C 4,3 C 4,8 km/h (1 Bft) 100,00 %
13.11.2015 00:32 4,3 C 97 % 1026,4 hPa 0,0 l/m 2,4 km/h (1 Bft) O 86 0 min 0,000 mm 0,0 UV-I 0 W/m 3,9 C 4,3 C 3,2 km/h (1 Bft) 100,00 %
13.11.2015 00:33 4,3 C 97 % 1026,4 hPa 0,0 l/m 2,1 km/h (1 Bft) O-NO 74 0 min 0,000 mm 0,0 UV-I 0 W/m 3,9 C 4,3 C 3,2 km/h (1 Bft) 100,00 %
13.11.2015 00:34 4,3 C 98 % 1026,4 hPa 0,0 l/m 1,9 km/h (1 Bft) O-NO 71 0 min 0,000 mm 0,0 UV-I 0 W/m 4,0 C 4,3 C 3,2 km/h (1 Bft) 100,00 %
13.11.2015 00:35 4,3 C 98 % 1026,5 hPa 0,0 l/m 1,7 km/h (1 Bft) O 88 0 min 0,000 mm 0,0 UV-I 0 W/m 4,0 C 4,3 C 3,2 km/h (1 Bft) 100,00 %
13.11.2015 00:36 4,3 C 97 % 1026,5 hPa 0,0 l/m 2,4 km/h (1 Bft) O 95 0 min 0,000 mm 0,0 UV-I 0 W/m 3,9 C 4,3 C 3,2 km/h (1 Bft) 96,15 %
13.11.2015 00:37 4,3 C 98 % 1026,4 hPa 0,0 l/m 2,0 km/h (1 Bft) O 86 0 min 0,000 mm 0,0 UV-I 0 W/m 4,0 C 4,3 C 3,2 km/h (1 Bft) 100,00 %
13.11.2015 00:38 4,3 C 98 % 1026,4 hPa 0,0 l/m 1,9 km/h (1 Bft) O-NO 74 0 min 0,000 mm 0,0 UV-I 0 W/m 4,0 C 4,3 C 3,2 km/h (1 Bft) 92,86 %
13.11.2015 00:39 4,3 C 97 % 1026,4 hPa 0,0 l/m 1,7 km/h (1 Bft) O 98 0 min 0,000 mm 0,0 UV-I 0 W/m 3,9 C 4,3 C 3,2 km/h (1 Bft) 100,00 %
13.11.2015 00:40 4,3 C 98 % 1026,4 hPa 0,0 l/m 1,5 km/h (1 Bft) O-NO 69 0 min 0,000 mm 0,0 UV-I 0 W/m 4,0 C 4,3 C 3,2 km/h (1 Bft) 100,00 %
13.11.2015 00:41 4,2 C 98 % 1026,4 hPa 0,0 l/m 1,4 km/h (1 Bft) O-NO 73 0 min 0,000 mm 0,0 UV-I 0 W/m 3,9 C 4,2 C 3,2 km/h (1 Bft) 100,00 %
13.11.2015 00:42 4,2 C 98 % 1026,4 hPa 0,0 l/m 0,8 km/h (0 Bft) O-NO 73 0 min 0,000 mm 0,0 UV-I 0 W/m 3,9 C 4,2 C 3,2 km/h (1 Bft) 100,00 %
13.11.2015 00:43 4,2 C 98 % 1026,4 hPa 0,0 l/m 1,4 km/h (1 Bft) O-NO 76 0 min 0,000 mm 0,0 UV-I 0 W/m 3,9 C 4,2 C 3,2 km/h (1 Bft) 100,00 %
13.11.2015 00:44 4,2 C 98 % 1026,4 hPa 0,0 l/m 1,7 km/h (1 Bft) O 80 0 min 0,000 mm 0,0 UV-I 0 W/m 3,9 C 4,2 C 3,2 km/h (1 Bft) 100,00 %
13.11.2015 00:45 4,2 C 98 % 1026,3 hPa 0,0 l/m 1,1 km/h (1 Bft) O-NO 72 0 min 0,000 mm 0,0 UV-I 0 W/m 3,9 C 4,2 C 3,2 km/h (1 Bft) 100,00 %
13.11.2015 00:46 4,2 C 98 % 1026,3 hPa 0,0 l/m 2,7 km/h (1 Bft) O-NO 77 0 min 0,000 mm 0,0 UV-I 0 W/m 3,9 C 4,2 C 4,8 km/h (1 Bft) 100,00 %
13.11.2015 00:47 4,2 C 98 % 1026,3 hPa 0,0 l/m 2,3 km/h (1 Bft) O 79 0 min 0,000 mm 0,0 UV-I 0 W/m 3,9 C 4,2 C 4,8 km/h (1 Bft) 100,00 %
13.11.2015 00:48 4,2 C 98 % 1026,3 hPa 0,0 l/m 1,1 km/h (1 Bft) O-SO 121 0 min 0,000 mm 0,0 UV-I 0 W/m 3,9 C 4,2 C 3,2 km/h (1 Bft) 100,00 %
13.11.2015 00:49 4,2 C 98 % 1026,3 hPa 0,0 l/m 2,7 km/h (1 Bft) O 80 0 min 0,000 mm 0,0 UV-I 0 W/m 3,9 C 4,2 C 4,8 km/h (1 Bft) 100,00 %
13.11.2015 00:50 4,2 C 98 % 1026,3 hPa 0,0 l/m 2,8 km/h (1 Bft) O-NO 68 0 min 0,000 mm 0,0 UV-I 0 W/m 3,9 C 4,2 C 4,8 km/h (1 Bft) 96,30 %
13.11.2015 00:51 4,2 C 98 % 1026,2 hPa 0,0 l/m 1,3 km/h (1 Bft) O 86 0 min 0,000 mm 0,0 UV-I 0 W/m 3,9 C 4,2 C 3,2 km/h (1 Bft) 100,00 %
13.11.2015 00:52 4,2 C 98 % 1026,2 hPa 0,0 l/m 1,5 km/h (1 Bft) O-NO 60 0 min 0,000 mm 0,0 UV-I 0 W/m 3,9 C 4,2 C 3,2 km/h (1 Bft) 100,00 %
13.11.2015 00:53 4,1 C 98 % 1026,2 hPa 0,0 l/m 1,6 km/h (1 Bft) O 100 0 min 0,000 mm 0,0 UV-I 0 W/m 3,8 C 4,1 C 3,2 km/h (1 Bft) 100,00 %
13.11.2015 00:54 4,1 C 98 % 1026,2 hPa 0,0 l/m 0,3 km/h (0 Bft) O 100 0 min 0,000 mm 0,0 UV-I 0 W/m 3,8 C 4,1 C 1,6 km/h (1 Bft) 100,00 %
13.11.2015 00:55 3,9 C 97 % 1026,2 hPa 0,0 l/m 1,7 km/h (1 Bft) O 83 0 min 0,000 mm 0,0 UV-I 0 W/m 3,5 C 3,9 C 3,2 km/h (1 Bft) 100,00 %
13.11.2015 00:56 3,9 C 97 % 1026,2 hPa 0,0 l/m 0,7 km/h (0 Bft) O-NO 71 0 min 0,000 mm 0,0 UV-I 0 W/m 3,5 C 3,9 C 1,6 km/h (1 Bft) 100,00 %
13.11.2015 00:57 3,9 C 97 % 1026,2 hPa 0,0 l/m 0,3 km/h (0 Bft) O-NO 71 0 min 0,000 mm 0,0 UV-I 0 W/m 3,5 C 3,9 C 1,6 km/h (1 Bft) 100,00 %
13.11.2015 00:58 3,9 C 97 % 1026,2 hPa 0,0 l/m 1,0 km/h (0 Bft) O-NO 74 0 min 0,000 mm 0,0 UV-I 0 W/m 3,5 C 3,9 C 1,6 km/h (1 Bft) 100,00 %
13.11.2015 00:59 3,9 C 97 % 1026,2 hPa 0,0 l/m 0,6 km/h (0 Bft) O-NO 75 0 min 0,000 mm 0,0 UV-I 0 W/m 3,5 C 3,9 C 1,6 km/h (1 Bft) 100,00 %
13.11.2015 01:00 3,9 C 97 % 1026,2 hPa 0,0 l/m 0,3 km/h (0 Bft) O-NO 75 0 min 0,000 mm 0,0 UV-I 0 W/m 3,5 C 3,9 C 1,6 km/h (1 Bft) 100,00 %
13.11.2015 01:01 3,9 C 97 % 1026,2 hPa 0,0 l/m 0,5 km/h (0 Bft) O-NO 76 0 min 0,000 mm 0,0 UV-I 0 W/m 3,5 C 3,9 C 1,6 km/h (1 Bft) 100,00 %
13.11.2015 01:02 3,9 C 97 % 1026,1 hPa 0,0 l/m 0,5 km/h (0 Bft) O-NO 76 0 min 0,000 mm 0,0 UV-I 0 W/m 3,5 C 3,9 C 1,6 km/h (1 Bft) 100,00 %
13.11.2015 01:03 3,9 C 97 % 1026,1 hPa 0,0 l/m 0,3 km/h (0 Bft) SO 124 0 min 0,000 mm 0,0 UV-I 0 W/m 3,5 C 3,9 C 1,6 km/h (1 Bft) 100,00 %
13.11.2015 01:04 3,9 C 98 % 1026,2 hPa 0,0 l/m 0,9 km/h (0 Bft) SO 136 0 min 0,000 mm 0,0 UV-I 0 W/m 3,6 C 3,9 C 3,2 km/h (1 Bft) 96,55 %
13.11.2015 01:05 3,9 C 98 % 1026,1 hPa 0,0 l/m 0,0 km/h (0 Bft) SO 136 0 min 0,000 mm 0,0 UV-I 0 W/m 3,6 C 3,9 C 0,0 km/h (0 Bft) 100,00 %
13.11.2015 01:06 3,9 C 98 % 1026,2 hPa 0,0 l/m 0,0 km/h (0 Bft) SO 136 0 min 0,000 mm 0,0 UV-I 0 W/m 3,6 C 3,9 C 0,0 km/h (0 Bft) 100,00 %
13.11.2015 01:07 3,9 C 98 % 1026,2 hPa 0,0 l/m 0,0 km/h (0 Bft) SO 136 0 min 0,000 mm 0,0 UV-I 0 W/m 3,6 C 3,9 C 0,0 km/h (0 Bft) 100,00 %
13.11.2015 01:08 3,8 C 98 % 1026,2 hPa 0,0 l/m 0,0 km/h (0 Bft) SO 136 0 min 0,000 mm 0,0 UV-I 0 W/m 3,5 C 3,8 C 0,0 km/h (0 Bft) 100,00 %
13.11.2015 01:09 3,8 C 98 % 1026,2 hPa 0,0 l/m 0,9 km/h (0 Bft) SO 136 0 min 0,000 mm 0,0 UV-I 0 W/m 3,5 C 3,8 C 1,6 km/h (1 Bft) 100,00 %
13.11.2015 01:10 3,8 C 98 % 1026,2 hPa 0,0 l/m 1,0 km/h (0 Bft) S-SO 159 0 min 0,000 mm 0,0 UV-I 0 W/m 3,5 C 3,8 C 1,6 km/h (1 Bft) 96,15 %
13.11.2015 01:11 3,8 C 98 % 1026,2 hPa 0,0 l/m 2,1 km/h (1 Bft) SO 142 0 min 0,000 mm 0,0 UV-I 0 W/m 3,5 C 3,8 C 3,2 km/h (1 Bft) 100,00 %
13.11.2015 01:12 3,7 C 98 % 1026,1 hPa 0,0 l/m 1,4 km/h (1 Bft) S-SO 147 0 min 0,000 mm 0,0 UV-I 0 W/m 3,4 C 3,7 C 3,2 km/h (1 Bft) 100,00 %
13.11.2015 01:13 3,6 C 97 % 1026,1 hPa 0,0 l/m 0,6 km/h (0 Bft) S-SO 147 0 min 0,000 mm 0,0 UV-I 0 W/m 3,2 C 3,6 C 1,6 km/h (1 Bft) 96,30 %
13.11.2015 01:14 3,5 C 97 % 1026,1 hPa 0,0 l/m 1,4 km/h (1 Bft) S-SO 148 0 min 0,000 mm 0,0 UV-I 0 W/m 3,1 C 3,5 C 3,2 km/h (1 Bft) 100,00 %
13.11.2015 01:15 3,6 C 97 % 1026,1 hPa 0,0 l/m 0,1 km/h (0 Bft) S-SO 148 0 min 0,000 mm 0,0 UV-I 0 W/m 3,2 C 3,6 C 1,6 km/h (1 Bft) 100,00 %
13.11.2015 01:16 3,6 C 97 % 1026,1 hPa 0,0 l/m 1,0 km/h (0 Bft) SO 145 0 min 0,000 mm 0,0 UV-I 0 W/m 3,2 C 3,6 C 1,6 km/h (1 Bft) 100,00 %
13.11.2015 01:17 3,7 C 97 % 1026,1 hPa 0,0 l/m 0,5 km/h (0 Bft) SO 145 0 min 0,000 mm 0,0 UV-I 0 W/m 3,3 C 3,7 C 1,6 km/h (1 Bft) 100,00 %
13.11.2015 01:18 3,6 C 97 % 1026,1 hPa 0,0 l/m 0,0 km/h (0 Bft) SO 145 0 min 0,000 mm 0,0 UV-I 0 W/m 3,2 C 3,6 C 0,0 km/h (0 Bft) 95,65 %
13.11.2015 01:19 3,6 C 97 % 1026,1 hPa 0,0 l/m 0,1 km/h (0 Bft) SO 145 0 min 0,000 mm 0,0 UV-I 0 W/m 3,2 C 3,6 C 1,6 km/h (1 Bft) 100,00 %
13.11.2015 01:20 3,6 C 97 % 1026,1 hPa 0,0 l/m 0,0 km/h (0 Bft) SO 145 0 min 0,000 mm 0,0 UV-I 0 W/m 3,2 C 3,6 C 0,0 km/h (0 Bft) 100,00 %
13.11.2015 01:21 3,6 C 97 % 1026,1 hPa 0,0 l/m 0,1 km/h (0 Bft) SO 145 0 min 0,000 mm 0,0 UV-I 0 W/m 3,2 C 3,6 C 1,6 km/h (1 Bft) 100,00 %
13.11.2015 01:22 3,6 C 97 % 1026,0 hPa 0,0 l/m 0,5 km/h (0 Bft) SO 146 0 min 0,000 mm 0,0 UV-I 0 W/m 3,2 C 3,6 C 1,6 km/h (1 Bft) 100,00 %
13.11.2015 01:23 3,6 C 98 % 1026,1 hPa 0,0 l/m 0,1 km/h (0 Bft) SO 146 0 min 0,000 mm 0,0 UV-I 0 W/m 3,3 C 3,6 C 1,6 km/h (1 Bft) 100,00 %
13.11.2015 01:24 3,7 C 98 % 1026,1 hPa 0,0 l/m 0,0 km/h (0 Bft) SO 146 0 min 0,000 mm 0,0 UV-I 0 W/m 3,4 C 3,7 C 0,0 km/h (0 Bft) 91,67 %
13.11.2015 01:25 3,6 C 98 % 1026,1 hPa 0,0 l/m 0,0 km/h (0 Bft) SO 146 0 min 0,000 mm 0,0 UV-I 0 W/m 3,3 C 3,6 C 0,0 km/h (0 Bft) 97,37 %
13.11.2015 01:26 3,6 C 98 % 1026,1 hPa 0,0 l/m 0,0 km/h (0 Bft) SO 146 0 min 0,000 mm 0,0 UV-I 0 W/m 3,3 C 3,6 C 0,0 km/h (0 Bft) 100,00 %
13.11.2015 01:27 3,6 C 98 % 1026,1 hPa 0,0 l/m 0,0 km/h (0 Bft) SO 145 0 min 0,000 mm 0,0 UV-I 0 W/m 3,3 C 3,6 C 0,0 km/h (0 Bft) 100,00 %
13.11.2015 01:28 3,6 C 98 % 1026,1 hPa 0,0 l/m 0,0 km/h (0 Bft) SO 145 0 min 0,000 mm 0,0 UV-I 0 W/m 3,3 C 3,6 C 0,0 km/h (0 Bft) 100,00 %
13.11.2015 01:29 3,6 C 98 % 1026,0 hPa 0,0 l/m 0,0 km/h (0 Bft) SO 145 0 min 0,000 mm 0,0 UV-I 0 W/m 3,3 C 3,6 C 0,0 km/h (0 Bft) 100,00 %
13.11.2015 01:30 3,6 C 98 % 1026,0 hPa 0,0 l/m 0,0 km/h (0 Bft) SO 146 0 min 0,000 mm 0,0 UV-I 0 W/m 3,3 C 3,6 C 0,0 km/h (0 Bft) 100,00 %
13.11.2015 01:31 3,6 C 98 % 1026,0 hPa 0,0 l/m 0,0 km/h (0 Bft) SO 146 0 min 0,000 mm 0,0 UV-I 0 W/m 3,3 C 3,6 C 0,0 km/h (0 Bft) 100,00 %
13.11.2015 01:32 3,6 C 98 % 1026,0 hPa 0,0 l/m 0,0 km/h (0 Bft) SO 146 0 min 0,000 mm 0,0 UV-I 0 W/m 3,3 C 3,6 C 0,0 km/h (0 Bft) 100,00 %
13.11.2015 01:33 3,6 C 98 % 1026,0 hPa 0,0 l/m 0,1 km/h (0 Bft) SO 145 0 min 0,000 mm 0,0 UV-I 0 W/m 3,3 C 3,6 C 1,6 km/h (1 Bft) 100,00 %
13.11.2015 01:34 3,6 C 98 % 1026,0 hPa 0,0 l/m 0,0 km/h (0 Bft) SO 146 0 min 0,000 mm 0,0 UV-I 0 W/m 3,3 C 3,6 C 0,0 km/h (0 Bft) 100,00 %
13.11.2015 01:35 3,6 C 98 % 1026,0 hPa 0,0 l/m 0,1 km/h (0 Bft) SO 146 0 min 0,000 mm 0,0 UV-I 0 W/m 3,3 C 3,6 C 1,6 km/h (1 Bft) 100,00 %
13.11.2015 01:36 3,6 C 98 % 1026,0 hPa 0,0 l/m 0,0 km/h (0 Bft) SO 146 0 min 0,000 mm 0,0 UV-I 0 W/m 3,3 C 3,6 C 0,0 km/h (0 Bft) 100,00 %
13.11.2015 01:37 3,6 C 98 % 1026,0 hPa 0,0 l/m 0,1 km/h (0 Bft) SO 146 0 min 0,000 mm 0,0 UV-I 0 W/m 3,3 C 3,6 C 1,6 km/h (1 Bft) 92,86 %
13.11.2015 01:38 3,6 C 98 % 1026,0 hPa 0,0 l/m 0,0 km/h (0 Bft) SO 146 0 min 0,000 mm 0,0 UV-I 0 W/m 3,3 C 3,6 C 0,0 km/h (0 Bft) 100,00 %
13.11.2015 01:39 3,6 C 98 % 1026,0 hPa 0,0 l/m 0,0 km/h (0 Bft) SO 146 0 min 0,000 mm 0,0 UV-I 0 W/m 3,3 C 3,6 C 0,0 km/h (0 Bft) 95,65 %
13.11.2015 01:40 3,6 C 98 % 1026,0 hPa 0,0 l/m 0,0 km/h (0 Bft) SO 146 0 min 0,000 mm 0,0 UV-I 0 W/m 3,3 C 3,6 C 0,0 km/h (0 Bft) 100,00 %
13.11.2015 01:41 3,6 C 98 % 1026,0 hPa 0,0 l/m 0,0 km/h (0 Bft) SO 146 0 min 0,000 mm 0,0 UV-I 0 W/m 3,3 C 3,6 C 0,0 km/h (0 Bft) 100,00 %
13.11.2015 01:42 3,5 C 98 % 1026,0 hPa 0,0 l/m 0,0 km/h (0 Bft) SO 146 0 min 0,000 mm 0,0 UV-I 0 W/m 3,2 C 3,5 C 0,0 km/h (0 Bft) 100,00 %
13.11.2015 01:43 3,4 C 98 % 1026,0 hPa 0,0 l/m 0,0 km/h (0 Bft) SO 146 0 min 0,000 mm 0,0 UV-I 0 W/m 3,1 C 3,4 C 0,0 km/h (0 Bft) 100,00 %
13.11.2015 01:44 3,4 C 98 % 1026,0 hPa 0,0 l/m 0,0 km/h (0 Bft) SO 146 0 min 0,000 mm 0,0 UV-I 0 W/m 3,1 C 3,4 C 0,0 km/h (0 Bft) 100,00 %
13.11.2015 01:45 3,3 C 98 % 1026,0 hPa 0,0 l/m 0,0 km/h (0 Bft) SO 146 0 min 0,000 mm 0,0 UV-I 0 W/m 3,0 C 3,3 C 0,0 km/h (0 Bft) 100,00 %
13.11.2015 01:46 3,3 C 98 % 1026,0 hPa 0,0 l/m 0,0 km/h (0 Bft) SO 146 0 min 0,000 mm 0,0 UV-I 0 W/m 3,0 C 3,3 C 0,0 km/h (0 Bft) 95,65 %
13.11.2015 01:47 3,3 C 98 % 1026,0 hPa 0,0 l/m 0,0 km/h (0 Bft) SO 146 0 min 0,000 mm 0,0 UV-I 0 W/m 3,0 C 3,3 C 0,0 km/h (0 Bft) 100,00 %
13.11.2015 01:48 3,3 C 98 % 1026,0 hPa 0,0 l/m 0,0 km/h (0 Bft) SO 146 0 min 0,000 mm 0,0 UV-I 0 W/m 3,0 C 3,3 C 0,0 km/h (0 Bft) 95,65 %
13.11.2015 01:49 3,3 C 98 % 1026,0 hPa 0,0 l/m 0,0 km/h (0 Bft) SO 146 0 min 0,000 mm 0,0 UV-I 0 W/m 3,0 C 3,3 C 0,0 km/h (0 Bft) 100,00 %
13.11.2015 01:50 3,3 C 98 % 1026,0 hPa 0,0 l/m 0,0 km/h (0 Bft) SO 146 0 min 0,000 mm 0,0 UV-I 0 W/m 3,0 C 3,3 C 0,0 km/h (0 Bft) 100,00 %
13.11.2015 01:51 3,3 C 98 % 1026,0 hPa 0,0 l/m 0,0 km/h (0 Bft) SO 146 0 min 0,000 mm 0,0 UV-I 0 W/m 3,0 C 3,3 C 0,0 km/h (0 Bft) 100,00 %
13.11.2015 01:52 3,3 C 98 % 1026,0 hPa 0,0 l/m 0,0 km/h (0 Bft) SO 146 0 min 0,000 mm 0,0 UV-I 0 W/m 3,0 C 3,3 C 0,0 km/h (0 Bft) 100,00 %
13.11.2015 01:53 3,3 C 98 % 1025,9 hPa 0,0 l/m 0,0 km/h (0 Bft) SO 146 0 min 0,000 mm 0,0 UV-I 0 W/m 3,0 C 3,3 C 0,0 km/h (0 Bft) 95,83 %
13.11.2015 01:54 3,3 C 98 % 1025,9 hPa 0,0 l/m 0,0 km/h (0 Bft) SO 146 0 min 0,000 mm 0,0 UV-I 0 W/m 3,0 C 3,3 C 0,0 km/h (0 Bft) 100,00 %
13.11.2015 01:55 3,3 C 98 % 1025,9 hPa 0,0 l/m 0,0 km/h (0 Bft) SO 146 0 min 0,000 mm 0,0 UV-I 0 W/m 3,0 C 3,3 C 0,0 km/h (0 Bft) 100,00 %
13.11.2015 01:56 3,3 C 98 % 1025,9 hPa 0,0 l/m 0,0 km/h (0 Bft) SO 146 0 min 0,000 mm 0,0 UV-I 0 W/m 3,0 C 3,3 C 0,0 km/h (0 Bft) 100,00 %
13.11.2015 01:57 3,3 C 98 % 1025,9 hPa 0,0 l/m 0,0 km/h (0 Bft) SO 146 0 min 0,000 mm 0,0 UV-I 0 W/m 3,0 C 3,3 C 0,0 km/h (0 Bft) 100,00 %
13.11.2015 01:58 3,3 C 98 % 1025,9 hPa 0,0 l/m 0,0 km/h (0 Bft) SO 146 0 min 0,000 mm 0,0 UV-I 0 W/m 3,0 C 3,3 C 0,0 km/h (0 Bft) 100,00 %
13.11.2015 01:59 3,2 C 98 % 1025,9 hPa 0,0 l/m 0,0 km/h (0 Bft) SO 146 0 min 0,000 mm 0,0 UV-I 0 W/m 2,9 C 3,2 C 0,0 km/h (0 Bft) 100,00 %
13.11.2015 02:00 3,3 C 98 % 1026,0 hPa 0,0 l/m 0,1 km/h (0 Bft) SO 146 0 min 0,000 mm 0,0 UV-I 0 W/m 3,0 C 3,3 C 1,6 km/h (1 Bft) 100,00 %
13.11.2015 02:01 3,3 C 98 % 1025,9 hPa 0,0 l/m 0,0 km/h (0 Bft) SO 146 0 min 0,000 mm 0,0 UV-I 0 W/m 3,0 C 3,3 C 0,0 km/h (0 Bft) 100,00 %
13.11.2015 02:02 3,2 C 98 % 1026,0 hPa 0,0 l/m 0,0 km/h (0 Bft) SO 146 0 min 0,000 mm 0,0 UV-I 0 W/m 2,9 C 3,2 C 0,0 km/h (0 Bft) 100,00 %
13.11.2015 02:03 3,2 C 98 % 1025,9 hPa 0,0 l/m 0,0 km/h (0 Bft) SO 146 0 min 0,000 mm 0,0 UV-I 0 W/m 2,9 C 3,2 C 0,0 km/h (0 Bft) 97,50 %
13.11.2015 02:04 3,2 C 98 % 1025,9 hPa 0,0 l/m 0,0 km/h (0 Bft) SO 146 0 min 0,000 mm 0,0 UV-I 0 W/m 2,9 C 3,2 C 0,0 km/h (0 Bft) 100,00 %
13.11.2015 02:05 3,2 C 98 % 1025,9 hPa 0,0 l/m 0,0 km/h (0 Bft) SO 146 0 min 0,000 mm 0,0 UV-I 0 W/m 2,9 C 3,2 C 0,0 km/h (0 Bft) 100,00 %
13.11.2015 02:06 3,2 C 98 % 1025,9 hPa 0,0 l/m 0,1 km/h (0 Bft) SO 146 0 min 0,000 mm 0,0 UV-I 0 W/m 2,9 C 3,2 C 1,6 km/h (1 Bft) 100,00 %
13.11.2015 02:07 3,2 C 98 % 1025,9 hPa 0,0 l/m 0,9 km/h (0 Bft) SO 146 0 min 0,000 mm 0,0 UV-I 0 W/m 2,9 C 3,2 C 1,6 km/h (1 Bft) 100,00 %
13.11.2015 02:08 3,2 C 98 % 1025,9 hPa 0,0 l/m 0,6 km/h (0 Bft) SO 146 0 min 0,000 mm 0,0 UV-I 0 W/m 2,9 C 3,2 C 1,6 km/h (1 Bft) 96,30 %
13.11.2015 02:09 3,2 C 98 % 1025,9 hPa 0,0 l/m 0,4 km/h (0 Bft) SO 146 0 min 0,000 mm 0,0 UV-I 0 W/m 2,9 C 3,2 C 1,6 km/h (1 Bft) 100,00 %
13.11.2015 02:10 3,2 C 98 % 1025,9 hPa 0,0 l/m 0,0 km/h (0 Bft) SO 146 0 min 0,000 mm 0,0 UV-I 0 W/m 2,9 C 3,2 C 0,0 km/h (0 Bft) 100,00 %
13.11.2015 02:11 3,2 C 98 % 1025,9 hPa 0,0 l/m 0,0 km/h (0 Bft) SO 146 0 min 0,000 mm 0,0 UV-I 0 W/m 2,9 C 3,2 C 0,0 km/h (0 Bft) 100,00 %
13.11.2015 02:12 3,2 C 98 % 1025,9 hPa 0,0 l/m 0,0 km/h (0 Bft) SO 146 0 min 0,000 mm 0,0 UV-I 0 W/m 2,9 C 3,2 C 0,0 km/h (0 Bft) 95,83 %
13.11.2015 02:13 3,2 C 98 % 1025,9 hPa 0,0 l/m 0,0 km/h (0 Bft) SO 146 0 min 0,000 mm 0,0 UV-I 0 W/m 2,9 C 3,2 C 0,0 km/h (0 Bft) 100,00 %
13.11.2015 02:14 3,2 C 98 % 1025,9 hPa 0,0 l/m 0,0 km/h (0 Bft) SO 146 0 min 0,000 mm 0,0 UV-I 0 W/m 2,9 C 3,2 C 0,0 km/h (0 Bft) 100,00 %
13.11.2015 02:15 3,2 C 98 % 1025,9 hPa 0,0 l/m 0,0 km/h (0 Bft) SO 146 0 min 0,000 mm 0,0 UV-I 0 W/m 2,9 C 3,2 C 0,0 km/h (0 Bft) 100,00 %
13.11.2015 02:16 3,1 C 98 % 1025,9 hPa 0,0 l/m 0,0 km/h (0 Bft) SO 146 0 min 0,000 mm 0,0 UV-I 0 W/m 2,8 C 3,1 C 0,0 km/h (0 Bft) 100,00 %
13.11.2015 02:17 3,2 C 98 % 1025,9 hPa 0,0 l/m 0,1 km/h (0 Bft) SO 146 0 min 0,000 mm 0,0 UV-I 0 W/m 2,9 C 3,2 C 1,6 km/h (1 Bft) 95,65 %
13.11.2015 02:18 3,2 C 98 % 1025,9 hPa 0,0 l/m 0,3 km/h (0 Bft) SO 146 0 min 0,000 mm 0,0 UV-I 0 W/m 2,9 C 3,2 C 1,6 km/h (1 Bft) 100,00 %
13.11.2015 02:19 3,2 C 98 % 1025,8 hPa 0,0 l/m 0,0 km/h (0 Bft) SO 146 0 min 0,000 mm 0,0 UV-I 0 W/m 2,9 C 3,2 C 0,0 km/h (0 Bft) 100,00 %
13.11.2015 02:20 3,2 C 98 % 1025,9 hPa 0,0 l/m 0,0 km/h (0 Bft) SO 146 0 min 0,000 mm 0,0 UV-I 0 W/m 2,9 C 3,2 C 0,0 km/h (0 Bft) 100,00 %
13.11.2015 02:21 3,2 C 98 % 1025,8 hPa 0,0 l/m 0,0 km/h (0 Bft) SO 146 0 min 0,000 mm 0,0 UV-I 0 W/m 2,9 C 3,2 C 0,0 km/h (0 Bft) 100,00 %
13.11.2015 02:22 3,2 C 98 % 1025,8 hPa 0,0 l/m 0,0 km/h (0 Bft) SO 146 0 min 0,000 mm 0,0 UV-I 0 W/m 2,9 C 3,2 C 0,0 km/h (0 Bft) 100,00 %
13.11.2015 02:23 3,2 C 98 % 1025,8 hPa 0,0 l/m 0,0 km/h (0 Bft) SO 146 0 min 0,000 mm 0,0 UV-I 0 W/m 2,9 C 3,2 C 0,0 km/h (0 Bft) 96,30 %
13.11.2015 02:24 3,2 C 98 % 1025,8 hPa 0,0 l/m 0,0 km/h (0 Bft) SO 146 0 min 0,000 mm 0,0 UV-I 0 W/m 2,9 C 3,2 C 0,0 km/h (0 Bft) 100,00 %
13.11.2015 02:25 3,2 C 98 % 1025,8 hPa 0,0 l/m 0,0 km/h (0 Bft) SO 146 0 min 0,000 mm 0,0 UV-I 0 W/m 2,9 C 3,2 C 0,0 km/h (0 Bft) 100,00 %
13.11.2015 02:26 3,2 C 98 % 1025,8 hPa 0,0 l/m 0,0 km/h (0 Bft) SO 146 0 min 0,000 mm 0,0 UV-I 0 W/m 2,9 C 3,2 C 0,0 km/h (0 Bft) 96,15 %
13.11.2015 02:27 3,2 C 98 % 1025,7 hPa 0,0 l/m 0,0 km/h (0 Bft) SO 146 0 min 0,000 mm 0,0 UV-I 0 W/m 2,9 C 3,2 C 0,0 km/h (0 Bft) 100,00 %
13.11.2015 02:28 3,2 C 98 % 1025,7 hPa 0,0 l/m 0,1 km/h (0 Bft) SO 146 0 min 0,000 mm 0,0 UV-I 0 W/m 2,9 C 3,2 C 1,6 km/h (1 Bft) 100,00 %
13.11.2015 02:29 3,2 C 98 % 1025,7 hPa 0,0 l/m 0,9 km/h (0 Bft) SO 146 0 min 0,000 mm 0,0 UV-I 0 W/m 2,9 C 3,2 C 1,6 km/h (1 Bft) 100,00 %
13.11.2015 02:30 3,2 C 98 % 1025,7 hPa 0,0 l/m 0,1 km/h (0 Bft) SO 146 0 min 0,000 mm 0,0 UV-I 0 W/m 2,9 C 3,2 C 1,6 km/h (1 Bft) 100,00 %
13.11.2015 02:31 3,2 C 98 % 1025,7 hPa 0,0 l/m 1,1 km/h (1 Bft) SO 146 0 min 0,000 mm 0,0 UV-I 0 W/m 2,9 C 3,2 C 3,2 km/h (1 Bft) 100,00 %
13.11.2015 02:32 3,2 C 98 % 1025,7 hPa 0,0 l/m 1,3 km/h (1 Bft) SO 146 0 min 0,000 mm 0,0 UV-I 0 W/m 2,9 C 3,2 C 1,6 km/h (1 Bft) 100,00 %
13.11.2015 02:33 3,2 C 98 % 1025,7 hPa 0,0 l/m 0,6 km/h (0 Bft) SO 146 0 min 0,000 mm 0,0 UV-I 0 W/m 2,9 C 3,2 C 1,6 km/h (1 Bft) 100,00 %
13.11.2015 02:34 3,2 C 98 % 1025,7 hPa 0,0 l/m 0,1 km/h (0 Bft) SO 146 0 min 0,000 mm 0,0 UV-I 0 W/m 2,9 C 3,2 C 1,6 km/h (1 Bft) 100,00 %
13.11.2015 02:35 3,1 C 98 % 1025,7 hPa 0,0 l/m 0,8 km/h (0 Bft) SO 146 0 min 0,000 mm 0,0 UV-I 0 W/m 2,8 C 3,1 C 1,6 km/h (1 Bft) 100,00 %
13.11.2015 02:36 3,1 C 98 % 1025,7 hPa 0,0 l/m 1,4 km/h (1 Bft) SO 146 0 min 0,000 mm 0,0 UV-I 0 W/m 2,8 C 3,1 C 3,2 km/h (1 Bft) 100,00 %
13.11.2015 02:37 3,1 C 98 % 1025,7 hPa 0,0 l/m 1,3 km/h (1 Bft) SO 146 0 min 0,000 mm 0,0 UV-I 0 W/m 2,8 C 3,1 C 3,2 km/h (1 Bft) 100,00 %
13.11.2015 02:38 3,1 C 98 % 1025,7 hPa 0,0 l/m 1,3 km/h (1 Bft) SO 146 0 min 0,000 mm 0,0 UV-I 0 W/m 2,8 C 3,1 C 1,6 km/h (1 Bft) 95,65 %
13.11.2015 02:39 3,1 C 98 % 1025,7 hPa 0,0 l/m 0,1 km/h (0 Bft) SO 146 0 min 0,000 mm 0,0 UV-I 0 W/m 2,8 C 3,1 C 1,6 km/h (1 Bft) 100,00 %
13.11.2015 02:40 3,1 C 98 % 1025,7 hPa 0,0 l/m 1,3 km/h (1 Bft) SO 146 0 min 0,000 mm 0,0 UV-I 0 W/m 2,8 C 3,1 C 1,6 km/h (1 Bft) 100,00 %
13.11.2015 02:41 3,1 C 98 % 1025,7 hPa 0,0 l/m 1,3 km/h (1 Bft) SO 146 0 min 0,000 mm 0,0 UV-I 0 W/m 2,8 C 3,1 C 1,6 km/h (1 Bft) 100,00 %
13.11.2015 02:42 3,1 C 98 % 1025,6 hPa 0,0 l/m 1,0 km/h (0 Bft) SO 146 0 min 0,000 mm 0,0 UV-I 0 W/m 2,8 C 3,1 C 1,6 km/h (1 Bft) 100,00 %
13.11.2015 02:43 3,1 C 98 % 1025,6 hPa 0,0 l/m 0,9 km/h (0 Bft) SO 146 0 min 0,000 mm 0,0 UV-I 0 W/m 2,8 C 3,1 C 1,6 km/h (1 Bft) 100,00 %
13.11.2015 02:44 3,1 C 98 % 1025,6 hPa 0,0 l/m 0,2 km/h (0 Bft) SO 146 0 min 0,000 mm 0,0 UV-I 0 W/m 2,8 C 3,1 C 1,6 km/h (1 Bft) 100,00 %
13.11.2015 02:45 3,0 C 98 % 1025,7 hPa 0,0 l/m 0,3 km/h (0 Bft) SO 146 0 min 0,000 mm 0,0 UV-I 0 W/m 2,7 C 3,0 C 1,6 km/h (1 Bft) 100,00 %
13.11.2015 02:46 3,1 C 98 % 1025,7 hPa 0,0 l/m 0,8 km/h (0 Bft) SO 146 0 min 0,000 mm 0,0 UV-I 0 W/m 2,8 C 3,1 C 1,6 km/h (1 Bft) 100,00 %
13.11.2015 02:47 3,0 C 98 % 1025,7 hPa 0,0 l/m 1,0 km/h (0 Bft) SO 146 0 min 0,000 mm 0,0 UV-I 0 W/m 2,7 C 3,0 C 1,6 km/h (1 Bft) 96,15 %
13.11.2015 02:48 3,0 C 98 % 1025,7 hPa 0,0 l/m 1,3 km/h (1 Bft) SO 146 0 min 0,000 mm 0,0 UV-I 0 W/m 2,7 C 3,0 C 1,6 km/h (1 Bft) 100,00 %
13.11.2015 02:49 3,0 C 98 % 1025,7 hPa 0,0 l/m 0,2 km/h (0 Bft) SO 146 0 min 0,000 mm 0,0 UV-I 0 W/m 2,7 C 3,0 C 1,6 km/h (1 Bft) 100,00 %
13.11.2015 02:50 3,1 C 98 % 1025,7 hPa 0,0 l/m 0,2 km/h (0 Bft) SO 146 0 min 0,000 mm 0,0 UV-I 0 W/m 2,8 C 3,1 C 1,6 km/h (1 Bft) 100,00 %
13.11.2015 02:51 3,1 C 98 % 1025,7 hPa 0,0 l/m 0,9 km/h (0 Bft) SO 146 0 min 0,000 mm 0,0 UV-I 0 W/m 2,8 C 3,1 C 1,6 km/h (1 Bft) 100,00 %
13.11.2015 02:52 3,1 C 98 % 1025,7 hPa 0,0 l/m 0,5 km/h (0 Bft) SO 146 0 min 0,000 mm 0,0 UV-I 0 W/m 2,8 C 3,1 C 1,6 km/h (1 Bft) 100,00 %
13.11.2015 02:53 3,1 C 98 % 1025,7 hPa 0,0 l/m 1,0 km/h (0 Bft) SO 146 0 min 0,000 mm 0,0 UV-I 0 W/m 2,8 C 3,1 C 1,6 km/h (1 Bft) 96,15 %
13.11.2015 02:54 3,1 C 98 % 1025,7 hPa 0,0 l/m 0,5 km/h (0 Bft) SO 146 0 min 0,000 mm 0,0 UV-I 0 W/m 2,8 C 3,1 C 1,6 km/h (1 Bft) 100,00 %
13.11.2015 02:55 3,1 C 98 % 1025,7 hPa 0,0 l/m 0,1 km/h (0 Bft) SO 146 0 min 0,000 mm 0,0 UV-I 0 W/m 2,8 C 3,1 C 1,6 km/h (1 Bft) 100,00 %
13.11.2015 02:56 3,1 C 98 % 1025,7 hPa 0,0 l/m 0,1 km/h (0 Bft) SO 146 0 min 0,000 mm 0,0 UV-I 0 W/m 2,8 C 3,1 C 1,6 km/h (1 Bft) 95,83 %
13.11.2015 02:57 3,2 C 98 % 1025,7 hPa 0,0 l/m 0,4 km/h (0 Bft) SO 146 0 min 0,000 mm 0,0 UV-I 0 W/m 2,9 C 3,2 C 1,6 km/h (1 Bft) 96,15 %
13.11.2015 02:58 3,2 C 98 % 1025,7 hPa 0,0 l/m 0,3 km/h (0 Bft) SO 146 0 min 0,000 mm 0,0 UV-I 0 W/m 2,9 C 3,2 C 1,6 km/h (1 Bft) 100,00 %
13.11.2015 02:59 3,2 C 98 % 1025,6 hPa 0,0 l/m 0,6 km/h (0 Bft) SO 146 0 min 0,000 mm 0,0 UV-I 0 W/m 2,9 C 3,2 C 1,6 km/h (1 Bft) 100,00 %
13.11.2015 03:00 3,2 C 98 % 1025,6 hPa 0,0 l/m 0,3 km/h (0 Bft) SO 146 0 min 0,000 mm 0,0 UV-I 0 W/m 2,9 C 3,2 C 1,6 km/h (1 Bft) 100,00 %
13.11.2015 03:01 3,2 C 98 % 1025,6 hPa 0,0 l/m 0,0 km/h (0 Bft) SO 146 0 min 0,000 mm 0,0 UV-I 0 W/m 2,9 C 3,2 C 0,0 km/h (0 Bft) 100,00 %
13.11.2015 03:02 3,2 C 98 % 1025,6 hPa 0,0 l/m 0,0 km/h (0 Bft) SO 146 0 min 0,000 mm 0,0 UV-I 0 W/m 2,9 C 3,2 C 0,0 km/h (0 Bft) 100,00 %
13.11.2015 03:03 3,2 C 98 % 1025,6 hPa 0,0 l/m 0,4 km/h (0 Bft) S-SO 157 0 min 0,000 mm 0,0 UV-I 0 W/m 2,9 C 3,2 C 1,6 km/h (1 Bft) 100,00 %
13.11.2015 03:04 3,2 C 98 % 1025,7 hPa 0,0 l/m 1,9 km/h (1 Bft) S-SO 159 0 min 0,000 mm 0,0 UV-I 0 W/m 2,9 C 3,2 C 3,2 km/h (1 Bft) 100,00 %
13.11.2015 03:05 3,2 C 98 % 1025,6 hPa 0,0 l/m 1,4 km/h (1 Bft) S-SO 159 0 min 0,000 mm 0,0 UV-I 0 W/m 2,9 C 3,2 C 1,6 km/h (1 Bft) 95,65 %
13.11.2015 03:06 3,2 C 98 % 1025,6 hPa 0,0 l/m 0,8 km/h (0 Bft) S-SO 159 0 min 0,000 mm 0,0 UV-I 0 W/m 2,9 C 3,2 C 1,6 km/h (1 Bft) 95,83 %
13.11.2015 03:07 3,2 C 98 % 1025,6 hPa 0,0 l/m 0,2 km/h (0 Bft) S-SO 159 0 min 0,000 mm 0,0 UV-I 0 W/m 2,9 C 3,2 C 1,6 km/h (1 Bft) 93,33 %
13.11.2015 03:08 3,2 C 98 % 1025,6 hPa 0,0 l/m 0,3 km/h (0 Bft) S-SO 159 0 min 0,000 mm 0,0 UV-I 0 W/m 2,9 C 3,2 C 1,6 km/h (1 Bft) 100,00 %
13.11.2015 03:09 3,2 C 98 % 1025,6 hPa 0,0 l/m 0,0 km/h (0 Bft) S-SO 159 0 min 0,000 mm 0,0 UV-I 0 W/m 2,9 C 3,2 C 0,0 km/h (0 Bft) 100,00 %
13.11.2015 03:10 3,3 C 98 % 1025,6 hPa 0,0 l/m 0,7 km/h (0 Bft) S-SO 159 0 min 0,000 mm 0,0 UV-I 0 W/m 3,0 C 3,3 C 1,6 km/h (1 Bft) 100,00 %
13.11.2015 03:11 3,3 C 98 % 1025,6 hPa 0,0 l/m 1,2 km/h (1 Bft) S-SO 159 0 min 0,000 mm 0,0 UV-I 0 W/m 3,0 C 3,3 C 1,6 km/h (1 Bft) 100,00 %
13.11.2015 03:12 3,3 C 98 % 1025,5 hPa 0,0 l/m 0,2 km/h (0 Bft) S-SO 159 0 min 0,000 mm 0,0 UV-I 0 W/m 3,0 C 3,3 C 1,6 km/h (1 Bft) 96,15 %
13.11.2015 03:13 3,3 C 98 % 1025,5 hPa 0,0 l/m 0,0 km/h (0 Bft) S-SO 159 0 min 0,000 mm 0,0 UV-I 0 W/m 3,0 C 3,3 C 0,0 km/h (0 Bft) 100,00 %
13.11.2015 03:14 3,3 C 98 % 1025,5 hPa 0,0 l/m 0,0 km/h (0 Bft) S-SO 159 0 min 0,000 mm 0,0 UV-I 0 W/m 3,0 C 3,3 C 0,0 km/h (0 Bft) 100,00 %
13.11.2015 03:15 3,3 C 98 % 1025,5 hPa 0,0 l/m 0,1 km/h (0 Bft) S-SO 159 0 min 0,000 mm 0,0 UV-I 0 W/m 3,0 C 3,3 C 1,6 km/h (1 Bft) 100,00 %
13.11.2015 03:16 3,4 C 98 % 1025,5 hPa 0,0 l/m 0,1 km/h (0 Bft) S-SO 159 0 min 0,000 mm 0,0 UV-I 0 W/m 3,1 C 3,4 C 1,6 km/h (1 Bft) 100,00 %
13.11.2015 03:17 3,4 C 98 % 1025,5 hPa 0,0 l/m 0,7 km/h (0 Bft) S-SO 159 0 min 0,000 mm 0,0 UV-I 0 W/m 3,1 C 3,4 C 1,6 km/h (1 Bft) 96,30 %
13.11.2015 03:18 3,4 C 98 % 1025,5 hPa 0,0 l/m 0,1 km/h (0 Bft) S-SO 159 0 min 0,000 mm 0,0 UV-I 0 W/m 3,1 C 3,4 C 1,6 km/h (1 Bft) 100,00 %
13.11.2015 03:19 3,4 C 98 % 1025,5 hPa 0,0 l/m 0,6 km/h (0 Bft) S-SO 159 0 min 0,000 mm 0,0 UV-I 0 W/m 3,1 C 3,4 C 1,6 km/h (1 Bft) 100,00 %
13.11.2015 03:20 3,5 C 98 % 1025,5 hPa 0,0 l/m 0,5 km/h (0 Bft) S-SO 159 0 min 0,000 mm 0,0 UV-I 0 W/m 3,2 C 3,5 C 1,6 km/h (1 Bft) 100,00 %
13.11.2015 03:21 3,5 C 98 % 1025,5 hPa 0,0 l/m 0,1 km/h (0 Bft) S-SO 159 0 min 0,000 mm 0,0 UV-I 0 W/m 3,2 C 3,5 C 1,6 km/h (1 Bft) 96,67 %
13.11.2015 03:22 3,6 C 98 % 1025,5 hPa 0,0 l/m 1,4 km/h (1 Bft) S-SO 159 0 min 0,000 mm 0,0 UV-I 0 W/m 3,3 C 3,6 C 1,6 km/h (1 Bft) 95,83 %
13.11.2015 03:23 3,6 C 98 % 1025,5 hPa 0,0 l/m 0,6 km/h (0 Bft) S-SO 159 0 min 0,000 mm 0,0 UV-I 0 W/m 3,3 C 3,6 C 1,6 km/h (1 Bft) 100,00 %
13.11.2015 03:24 3,6 C 98 % 1025,5 hPa 0,0 l/m 0,2 km/h (0 Bft) S-SO 159 0 min 0,000 mm 0,0 UV-I 0 W/m 3,3 C 3,6 C 1,6 km/h (1 Bft) 100,00 %
13.11.2015 03:25 3,6 C 98 % 1025,4 hPa 0,0 l/m 0,3 km/h (0 Bft) S-SO 159 0 min 0,000 mm 0,0 UV-I 0 W/m 3,3 C 3,6 C 1,6 km/h (1 Bft) 100,00 %
13.11.2015 03:26 3,6 C 98 % 1025,4 hPa 0,0 l/m 0,6 km/h (0 Bft) S-SO 159 0 min 0,000 mm 0,0 UV-I 0 W/m 3,3 C 3,6 C 1,6 km/h (1 Bft) 100,00 %
13.11.2015 03:27 3,6 C 98 % 1025,4 hPa 0,0 l/m 1,1 km/h (1 Bft) SO 140 0 min 0,000 mm 0,0 UV-I 0 W/m 3,3 C 3,6 C 1,6 km/h (1 Bft) 95,65 %
13.11.2015 03:28 3,6 C 98 % 1025,4 hPa 0,0 l/m 0,3 km/h (0 Bft) SO 140 0 min 0,000 mm 0,0 UV-I 0 W/m 3,3 C 3,6 C 1,6 km/h (1 Bft) 100,00 %
13.11.2015 03:29 3,6 C 98 % 1025,4 hPa 0,0 l/m 0,0 km/h (0 Bft) SO 140 0 min 0,000 mm 0,0 UV-I 0 W/m 3,3 C 3,6 C 0,0 km/h (0 Bft) 100,00 %
13.11.2015 03:30 3,6 C 98 % 1025,4 hPa 0,0 l/m 0,1 km/h (0 Bft) SO 140 0 min 0,000 mm 0,0 UV-I 0 W/m 3,3 C 3,6 C 1,6 km/h (1 Bft) 100,00 %
13.11.2015 03:31 3,6 C 98 % 1025,4 hPa 0,0 l/m 0,6 km/h (0 Bft) SO 140 0 min 0,000 mm 0,0 UV-I 0 W/m 3,3 C 3,6 C 1,6 km/h (1 Bft) 100,00 %
13.11.2015 03:32 3,6 C 98 % 1025,4 hPa 0,0 l/m 0,5 km/h (0 Bft) SO 141 0 min 0,000 mm 0,0 UV-I 0 W/m 3,3 C 3,6 C 1,6 km/h (1 Bft) 100,00 %
13.11.2015 03:33 3,6 C 98 % 1025,4 hPa 0,0 l/m 0,2 km/h (0 Bft) SO 141 0 min 0,000 mm 0,0 UV-I 0 W/m 3,3 C 3,6 C 1,6 km/h (1 Bft) 100,00 %
13.11.2015 03:34 3,6 C 98 % 1025,4 hPa 0,0 l/m 0,6 km/h (0 Bft) SO 141 0 min 0,000 mm 0,0 UV-I 0 W/m 3,3 C 3,6 C 1,6 km/h (1 Bft) 100,00 %
13.11.2015 03:35 3,6 C 98 % 1025,4 hPa 0,0 l/m 0,6 km/h (0 Bft) SO 141 0 min 0,000 mm 0,0 UV-I 0 W/m 3,3 C 3,6 C 1,6 km/h (1 Bft) 100,00 %
13.11.2015 03:36 3,6 C 98 % 1025,4 hPa 0,0 l/m 0,7 km/h (0 Bft) SO 141 0 min 0,000 mm 0,0 UV-I 0 W/m 3,3 C 3,6 C 1,6 km/h (1 Bft) 100,00 %
13.11.2015 03:37 3,5 C 98 % 1025,4 hPa 0,0 l/m 2,0 km/h (1 Bft) S-SO 164 0 min 0,000 mm 0,0 UV-I 0 W/m 3,2 C 3,5 C 3,2 km/h (1 Bft) 92,31 %
13.11.2015 03:38 3,5 C 98 % 1025,4 hPa 0,0 l/m 1,5 km/h (1 Bft) S 169 0 min 0,000 mm 0,0 UV-I 0 W/m 3,2 C 3,5 C 3,2 km/h (1 Bft) 100,00 %
13.11.2015 03:39 3,5 C 98 % 1025,3 hPa 0,0 l/m 1,9 km/h (1 Bft) S 171 0 min 0,000 mm 0,0 UV-I 0 W/m 3,2 C 3,5 C 3,2 km/h (1 Bft) 100,00 %
13.11.2015 03:40 3,4 C 98 % 1025,3 hPa 0,0 l/m 1,4 km/h (1 Bft) S 171 0 min 0,000 mm 0,0 UV-I 0 W/m 3,1 C 3,4 C 3,2 km/h (1 Bft) 100,00 %
13.11.2015 03:41 3,4 C 98 % 1025,3 hPa 0,0 l/m 0,6 km/h (0 Bft) S 171 0 min 0,000 mm 0,0 UV-I 0 W/m 3,1 C 3,4 C 1,6 km/h (1 Bft) 100,00 %
13.11.2015 03:42 3,4 C 98 % 1025,3 hPa 0,0 l/m 1,5 km/h (1 Bft) S 171 0 min 0,000 mm 0,0 UV-I 0 W/m 3,1 C 3,4 C 3,2 km/h (1 Bft) 100,00 %
13.11.2015 03:43 3,4 C 98 % 1025,3 hPa 0,0 l/m 1,4 km/h (1 Bft) S 171 0 min 0,000 mm 0,0 UV-I 0 W/m 3,1 C 3,4 C 3,2 km/h (1 Bft) 100,00 %
13.11.2015 03:44 3,3 C 98 % 1025,3 hPa 0,0 l/m 0,6 km/h (0 Bft) S 171 0 min 0,000 mm 0,0 UV-I 0 W/m 3,0 C 3,3 C 1,6 km/h (1 Bft) 92,31 %
13.11.2015 03:45 3,3 C 98 % 1025,3 hPa 0,0 l/m 1,7 km/h (1 Bft) S 174 0 min 0,000 mm 0,0 UV-I 0 W/m 3,0 C 3,3 C 3,2 km/h (1 Bft) 100,00 %
13.11.2015 03:46 3,3 C 98 % 1025,3 hPa 0,0 l/m 1,7 km/h (1 Bft) S-SW 193 0 min 0,000 mm 0,0 UV-I 0 W/m 3,0 C 3,3 C 3,2 km/h (1 Bft) 100,00 %
13.11.2015 03:47 3,3 C 98 % 1025,3 hPa 0,0 l/m 1,9 km/h (1 Bft) S-SW 193 0 min 0,000 mm 0,0 UV-I 0 W/m 3,0 C 3,3 C 3,2 km/h (1 Bft) 100,00 %
13.11.2015 03:48 3,3 C 98 % 1025,3 hPa 0,0 l/m 1,7 km/h (1 Bft) S-SW 196 0 min 0,000 mm 0,0 UV-I 0 W/m 3,0 C 3,3 C 3,2 km/h (1 Bft) 100,00 %
13.11.2015 03:49 3,3 C 98 % 1025,3 hPa 0,0 l/m 0,5 km/h (0 Bft) S-SW 196 0 min 0,000 mm 0,0 UV-I 0 W/m 3,0 C 3,3 C 1,6 km/h (1 Bft) 100,00 %
13.11.2015 03:50 3,3 C 98 % 1025,3 hPa 0,0 l/m 1,0 km/h (0 Bft) S 179 0 min 0,000 mm 0,0 UV-I 0 W/m 3,0 C 3,3 C 3,2 km/h (1 Bft) 100,00 %
13.11.2015 03:51 3,3 C 98 % 1025,3 hPa 0,0 l/m 1,9 km/h (1 Bft) S 180 0 min 0,000 mm 0,0 UV-I 0 W/m 3,0 C 3,3 C 3,2 km/h (1 Bft) 100,00 %
13.11.2015 03:52 3,3 C 98 % 1025,3 hPa 0,0 l/m 0,8 km/h (0 Bft) S 180 0 min 0,000 mm 0,0 UV-I 0 W/m 3,0 C 3,3 C 1,6 km/h (1 Bft) 100,00 %
13.11.2015 03:53 3,2 C 98 % 1025,4 hPa 0,0 l/m 1,5 km/h (1 Bft) S-SO 168 0 min 0,000 mm 0,0 UV-I 0 W/m 2,9 C 3,2 C 3,2 km/h (1 Bft) 100,00 %
13.11.2015 03:54 3,2 C 98 % 1025,4 hPa 0,0 l/m 1,3 km/h (1 Bft) S-SO 167 0 min 0,000 mm 0,0 UV-I 0 W/m 2,9 C 3,2 C 4,8 km/h (1 Bft) 100,00 %
13.11.2015 03:55 3,2 C 98 % 1025,4 hPa 0,0 l/m 0,9 km/h (0 Bft) S 183 0 min 0,000 mm 0,0 UV-I 0 W/m 2,9 C 3,2 C 1,6 km/h (1 Bft) 100,00 %
13.11.2015 03:56 3,2 C 98 % 1025,4 hPa 0,0 l/m 1,0 km/h (0 Bft) S 184 0 min 0,000 mm 0,0 UV-I 0 W/m 2,9 C 3,2 C 1,6 km/h (1 Bft) 95,65 %
13.11.2015 03:57 3,2 C 98 % 1025,4 hPa 0,0 l/m 0,5 km/h (0 Bft) S 184 0 min 0,000 mm 0,0 UV-I 0 W/m 2,9 C 3,2 C 1,6 km/h (1 Bft) 100,00 %
13.11.2015 03:58 3,2 C 98 % 1025,4 hPa 0,0 l/m 0,8 km/h (0 Bft) S 184 0 min 0,000 mm 0,0 UV-I 0 W/m 2,9 C 3,2 C 1,6 km/h (1 Bft) 100,00 %
13.11.2015 03:59 3,2 C 98 % 1025,5 hPa 0,0 l/m 0,9 km/h (0 Bft) S 184 0 min 0,000 mm 0,0 UV-I 0 W/m 2,9 C 3,2 C 1,6 km/h (1 Bft) 100,00 %
13.11.2015 04:00 3,2 C 98 % 1025,5 hPa 0,0 l/m 2,0 km/h (1 Bft) S-SW 192 0 min 0,000 mm 0,0 UV-I 0 W/m 2,9 C 3,2 C 3,2 km/h (1 Bft) 100,00 %
13.11.2015 04:01 3,2 C 98 % 1025,5 hPa 0,0 l/m 1,9 km/h (1 Bft) S 190 0 min 0,000 mm 0,0 UV-I 0 W/m 2,9 C 3,2 C 3,2 km/h (1 Bft) 100,00 %
13.11.2015 04:02 3,1 C 98 % 1025,5 hPa 0,0 l/m 2,2 km/h (1 Bft) S 190 0 min 0,000 mm 0,0 UV-I 0 W/m 2,8 C 3,1 C 3,2 km/h (1 Bft) 100,00 %
13.11.2015 04:03 3,1 C 98 % 1025,5 hPa 0,0 l/m 0,5 km/h (0 Bft) S 190 0 min 0,000 mm 0,0 UV-I 0 W/m 2,8 C 3,1 C 1,6 km/h (1 Bft) 97,37 %
13.11.2015 04:04 3,1 C 98 % 1025,5 hPa 0,0 l/m 1,7 km/h (1 Bft) S 190 0 min 0,000 mm 0,0 UV-I 0 W/m 2,8 C 3,1 C 3,2 km/h (1 Bft) 100,00 %
13.11.2015 04:05 3,1 C 98 % 1025,4 hPa 0,0 l/m 1,6 km/h (1 Bft) S 190 0 min 0,000 mm 0,0 UV-I 0 W/m 2,8 C 3,1 C 1,6 km/h (1 Bft) 100,00 %
13.11.2015 04:06 3,1 C 98 % 1025,4 hPa 0,0 l/m 1,3 km/h (1 Bft) S-SW 200 0 min 0,000 mm 0,0 UV-I 0 W/m 2,8 C 3,1 C 3,2 km/h (1 Bft) 95,83 %
13.11.2015 04:07 3,1 C 98 % 1025,4 hPa 0,0 l/m 2,3 km/h (1 Bft) SW 230 0 min 0,000 mm 0,0 UV-I 0 W/m 2,8 C 3,1 C 3,2 km/h (1 Bft) 100,00 %
13.11.2015 04:08 3,1 C 98 % 1025,5 hPa 0,0 l/m 2,0 km/h (1 Bft) SW 230 0 min 0,000 mm 0,0 UV-I 0 W/m 2,8 C 3,1 C 3,2 km/h (1 Bft) 100,00 %
13.11.2015 04:09 3,1 C 98 % 1025,5 hPa 0,0 l/m 1,5 km/h (1 Bft) SW 228 0 min 0,000 mm 0,0 UV-I 0 W/m 2,8 C 3,1 C 3,2 km/h (1 Bft) 100,00 %
13.11.2015 04:10 3,1 C 98 % 1025,4 hPa 0,0 l/m 2,5 km/h (1 Bft) S-SW 211 0 min 0,000 mm 0,0 UV-I 0 W/m 2,8 C 3,1 C 4,8 km/h (1 Bft) 100,00 %
13.11.2015 04:11 3,1 C 98 % 1025,4 hPa 0,0 l/m 2,2 km/h (1 Bft) SW 214 0 min 0,000 mm 0,0 UV-I 0 W/m 2,8 C 3,1 C 3,2 km/h (1 Bft) 100,00 %
13.11.2015 04:12 3,1 C 98 % 1025,4 hPa 0,0 l/m 0,6 km/h (0 Bft) SW 214 0 min 0,000 mm 0,0 UV-I 0 W/m 2,8 C 3,1 C 1,6 km/h (1 Bft) 100,00 %
13.11.2015 04:13 3,1 C 98 % 1025,5 hPa 0,0 l/m 0,6 km/h (0 Bft) SW 214 0 min 0,000 mm 0,0 UV-I 0 W/m 2,8 C 3,1 C 1,6 km/h (1 Bft) 95,65 %
13.11.2015 04:14 3,1 C 98 % 1025,4 hPa 0,0 l/m 2,3 km/h (1 Bft) SW 234 0 min 0,000 mm 0,0 UV-I 0 W/m 2,8 C 3,1 C 3,2 km/h (1 Bft) 100,00 %
13.11.2015 04:15 3,1 C 98 % 1025,4 hPa 0,0 l/m 1,5 km/h (1 Bft) S 177 0 min 0,000 mm 0,0 UV-I 0 W/m 2,8 C 3,1 C 3,2 km/h (1 Bft) 100,00 %
13.11.2015 04:16 3,1 C 98 % 1025,4 hPa 0,0 l/m 1,7 km/h (1 Bft) S 182 0 min 0,000 mm 0,0 UV-I 0 W/m 2,8 C 3,1 C 3,2 km/h (1 Bft) 100,00 %
13.11.2015 04:17 3,1 C 98 % 1025,4 hPa 0,0 l/m 0,0 km/h (0 Bft) S 182 0 min 0,000 mm 0,0 UV-I 0 W/m 2,8 C 3,1 C 0,0 km/h (0 Bft) 100,00 %
13.11.2015 04:18 3,1 C 98 % 1025,4 hPa 0,0 l/m 0,3 km/h (0 Bft) S 182 0 min 0,000 mm 0,0 UV-I 0 W/m 2,8 C 3,1 C 1,6 km/h (1 Bft) 100,00 %
13.11.2015 04:19 3,1 C 98 % 1025,4 hPa 0,0 l/m 0,8 km/h (0 Bft) S 182 0 min 0,000 mm 0,0 UV-I 0 W/m 2,8 C 3,1 C 1,6 km/h (1 Bft) 100,00 %
13.11.2015 04:20 3,1 C 98 % 1025,4 hPa 0,0 l/m 0,7 km/h (0 Bft) S 182 0 min 0,000 mm 0,0 UV-I 0 W/m 2,8 C 3,1 C 1,6 km/h (1 Bft) 91,67 %
13.11.2015 04:21 3,0 C 98 % 1025,4 hPa 0,0 l/m 2,2 km/h (1 Bft) S-SW 198 0 min 0,000 mm 0,0 UV-I 0 W/m 2,7 C 3,0 C 3,2 km/h (1 Bft) 100,00 %
13.11.2015 04:22 3,0 C 98 % 1025,4 hPa 0,0 l/m 2,4 km/h (1 Bft) SW 214 0 min 0,000 mm 0,0 UV-I 0 W/m 2,7 C 3,0 C 3,2 km/h (1 Bft) 100,00 %
13.11.2015 04:23 2,9 C 98 % 1025,4 hPa 0,0 l/m 1,5 km/h (1 Bft) S-SW 208 0 min 0,000 mm 0,0 UV-I 0 W/m 2,6 C 2,9 C 1,6 km/h (1 Bft) 100,00 %
13.11.2015 04:24 2,9 C 98 % 1025,4 hPa 0,0 l/m 2,0 km/h (1 Bft) S-SW 198 0 min 0,000 mm 0,0 UV-I 0 W/m 2,6 C 2,9 C 4,8 km/h (1 Bft) 100,00 %
13.11.2015 04:25 2,9 C 98 % 1025,4 hPa 0,0 l/m 2,7 km/h (1 Bft) S-SW 201 0 min 0,000 mm 0,0 UV-I 0 W/m 2,6 C 2,9 C 4,8 km/h (1 Bft) 100,00 %
13.11.2015 04:26 2,9 C 98 % 1025,4 hPa 0,0 l/m 1,7 km/h (1 Bft) S 190 0 min 0,000 mm 0,0 UV-I 0 W/m 2,6 C 2,9 C 3,2 km/h (1 Bft) 100,00 %
13.11.2015 04:27 2,8 C 98 % 1025,4 hPa 0,0 l/m 1,9 km/h (1 Bft) S 190 0 min 0,000 mm 0,0 UV-I 0 W/m 2,5 C 2,8 C 3,2 km/h (1 Bft) 100,00 %
13.11.2015 04:28 2,8 C 98 % 1025,4 hPa 0,0 l/m 1,1 km/h (1 Bft) S-SW 204 0 min 0,000 mm 0,0 UV-I 0 W/m 2,5 C 2,8 C 3,2 km/h (1 Bft) 100,00 %
13.11.2015 04:29 2,8 C 98 % 1025,5 hPa 0,0 l/m 2,3 km/h (1 Bft) S-SW 194 0 min 0,000 mm 0,0 UV-I 0 W/m 2,5 C 2,8 C 4,8 km/h (1 Bft) 100,00 %
13.11.2015 04:30 2,7 C 98 % 1025,5 hPa 0,0 l/m 3,0 km/h (1 Bft) S 191 0 min 0,000 mm 0,0 UV-I 0 W/m 2,4 C 2,7 C 4,8 km/h (1 Bft) 100,00 %
13.11.2015 04:31 2,7 C 98 % 1025,5 hPa 0,0 l/m 2,5 km/h (1 Bft) S-SW 192 0 min 0,000 mm 0,0 UV-I 0 W/m 2,4 C 2,7 C 3,2 km/h (1 Bft) 95,83 %
13.11.2015 04:32 2,6 C 98 % 1025,5 hPa 0,0 l/m 3,5 km/h (1 Bft) S 190 0 min 0,000 mm 0,0 UV-I 0 W/m 2,3 C 2,6 C 4,8 km/h (1 Bft) 100,00 %
13.11.2015 04:33 2,5 C 98 % 1025,5 hPa 0,0 l/m 2,7 km/h (1 Bft) S-SW 204 0 min 0,000 mm 0,0 UV-I 0 W/m 2,2 C 2,5 C 4,8 km/h (1 Bft) 100,00 %
13.11.2015 04:34 2,4 C 98 % 1025,5 hPa 0,0 l/m 2,9 km/h (1 Bft) S 190 0 min 0,000 mm 0,0 UV-I 0 W/m 2,1 C 2,4 C 4,8 km/h (1 Bft) 100,00 %
13.11.2015 04:35 2,4 C 98 % 1025,5 hPa 0,0 l/m 3,5 km/h (1 Bft) S-SW 203 0 min 0,000 mm 0,0 UV-I 0 W/m 2,1 C 2,4 C 4,8 km/h (1 Bft) 100,00 %
13.11.2015 04:36 2,4 C 98 % 1025,5 hPa 0,0 l/m 3,0 km/h (1 Bft) S-SW 194 0 min 0,000 mm 0,0 UV-I 0 W/m 2,1 C 2,4 C 4,8 km/h (1 Bft) 100,00 %
13.11.2015 04:37 2,3 C 98 % 1025,5 hPa 0,0 l/m 3,1 km/h (1 Bft) S-SW 193 0 min 0,000 mm 0,0 UV-I 0 W/m 2,0 C 2,3 C 4,8 km/h (1 Bft) 100,00 %
13.11.2015 04:38 2,3 C 98 % 1025,5 hPa 0,0 l/m 1,9 km/h (1 Bft) S-SW 194 0 min 0,000 mm 0,0 UV-I 0 W/m 2,0 C 2,3 C 3,2 km/h (1 Bft) 100,00 %
13.11.2015 04:39 2,3 C 98 % 1025,5 hPa 0,0 l/m 3,9 km/h (1 Bft) SW 225 0 min 0,000 mm 0,0 UV-I 0 W/m 2,0 C 2,3 C 4,8 km/h (1 Bft) 100,00 %
13.11.2015 04:40 2,3 C 98 % 1025,5 hPa 0,0 l/m 2,4 km/h (1 Bft) SW 223 0 min 0,000 mm 0,0 UV-I 0 W/m 2,0 C 2,3 C 3,2 km/h (1 Bft) 100,00 %
13.11.2015 04:41 2,2 C 98 % 1025,5 hPa 0,0 l/m 1,5 km/h (1 Bft) S-SO 155 0 min 0,000 mm 0,0 UV-I 0 W/m 1,9 C 2,2 C 3,2 km/h (1 Bft) 100,00 %
13.11.2015 04:42 2,2 C 98 % 1025,5 hPa 0,0 l/m 2,3 km/h (1 Bft) S-SW 195 0 min 0,000 mm 0,0 UV-I 0 W/m 1,9 C 2,2 C 4,8 km/h (1 Bft) 100,00 %
13.11.2015 04:43 2,2 C 98 % 1025,5 hPa 0,0 l/m 3,9 km/h (1 Bft) S-SW 204 0 min 0,000 mm 0,0 UV-I 0 W/m 1,9 C 2,2 C 4,8 km/h (1 Bft) 100,00 %
13.11.2015 04:44 2,1 C 98 % 1025,6 hPa 0,0 l/m 3,4 km/h (1 Bft) S-SW 196 0 min 0,000 mm 0,0 UV-I 0 W/m 1,8 C 2,1 C 4,8 km/h (1 Bft) 95,83 %
13.11.2015 04:45 2,1 C 98 % 1025,6 hPa 0,0 l/m 4,1 km/h (1 Bft) S 190 0 min 0,000 mm 0,0 UV-I 0 W/m 1,8 C 2,1 C 6,4 km/h (2 Bft) 100,00 %
13.11.2015 04:46 2,0 C 98 % 1025,6 hPa 0,0 l/m 3,1 km/h (1 Bft) S-SW 192 0 min 0,000 mm 0,0 UV-I 0 W/m 1,7 C 2,0 C 4,8 km/h (1 Bft) 100,00 %
13.11.2015 04:47 2,0 C 98 % 1025,6 hPa 0,0 l/m 2,7 km/h (1 Bft) S-SW 200 0 min 0,000 mm 0,0 UV-I 0 W/m 1,7 C 2,0 C 3,2 km/h (1 Bft) 100,00 %
13.11.2015 04:48 1,9 C 98 % 1025,5 hPa 0,0 l/m 2,4 km/h (1 Bft) S-SW 202 0 min 0,000 mm 0,0 UV-I 0 W/m 1,6 C 1,9 C 4,8 km/h (1 Bft) 95,83 %
13.11.2015 04:49 2,0 C 98 % 1025,6 hPa 0,0 l/m 2,5 km/h (1 Bft) S 188 0 min 0,000 mm 0,0 UV-I 0 W/m 1,7 C 2,0 C 3,2 km/h (1 Bft) 100,00 %
13.11.2015 04:50 2,0 C 98 % 1025,6 hPa 0,0 l/m 2,4 km/h (1 Bft) S-SW 201 0 min 0,000 mm 0,0 UV-I 0 W/m 1,7 C 2,0 C 4,8 km/h (1 Bft) 95,83 %
13.11.2015 04:51 1,9 C 98 % 1025,6 hPa 0,0 l/m 3,0 km/h (1 Bft) SW 215 0 min 0,000 mm 0,0 UV-I 0 W/m 1,6 C 1,9 C 4,8 km/h (1 Bft) 96,15 %
13.11.2015 04:52 1,9 C 98 % 1025,6 hPa 0,0 l/m 2,1 km/h (1 Bft) SW 232 0 min 0,000 mm 0,0 UV-I 0 W/m 1,6 C 1,9 C 4,8 km/h (1 Bft) 100,00 %
13.11.2015 04:53 1,9 C 98 % 1025,6 hPa 0,0 l/m 1,9 km/h (1 Bft) S-SW 205 0 min 0,000 mm 0,0 UV-I 0 W/m 1,6 C 1,9 C 3,2 km/h (1 Bft) 100,00 %
13.11.2015 04:54 1,9 C 98 % 1025,6 hPa 0,0 l/m 2,3 km/h (1 Bft) W-SW 248 0 min 0,000 mm 0,0 UV-I 0 W/m 1,6 C 1,9 C 4,8 km/h (1 Bft) 100,00 %
13.11.2015 04:55 1,9 C 98 % 1025,6 hPa 0,0 l/m 3,0 km/h (1 Bft) SW 232 0 min 0,000 mm 0,0 UV-I 0 W/m 1,6 C 1,9 C 4,8 km/h (1 Bft) 100,00 %
13.11.2015 04:56 1,8 C 98 % 1025,5 hPa 0,0 l/m 1,9 km/h (1 Bft) W-SW 243 0 min 0,000 mm 0,0 UV-I 0 W/m 1,5 C 1,8 C 3,2 km/h (1 Bft) 100,00 %
13.11.2015 04:57 1,8 C 98 % 1025,5 hPa 0,0 l/m 1,4 km/h (1 Bft) S-SW 198 0 min 0,000 mm 0,0 UV-I 0 W/m 1,5 C 1,8 C 3,2 km/h (1 Bft) 100,00 %
13.11.2015 04:58 1,8 C 98 % 1025,6 hPa 0,0 l/m 2,7 km/h (1 Bft) S 173 0 min 0,000 mm 0,0 UV-I 0 W/m 1,5 C 1,8 C 4,8 km/h (1 Bft) 100,00 %
13.11.2015 04:59 1,7 C 98 % 1025,5 hPa 0,0 l/m 2,1 km/h (1 Bft) S-SW 193 0 min 0,000 mm 0,0 UV-I 0 W/m 1,4 C 1,7 C 3,2 km/h (1 Bft) 95,65 %
13.11.2015 05:00 1,7 C 98 % 1025,5 hPa 0,0 l/m 1,9 km/h (1 Bft) S 191 0 min 0,000 mm 0,0 UV-I 0 W/m 1,4 C 1,7 C 3,2 km/h (1 Bft) 100,00 %
13.11.2015 05:01 1,7 C 98 % 1025,5 hPa 0,0 l/m 3,4 km/h (1 Bft) S-SW 197 0 min 0,000 mm 0,0 UV-I 0 W/m 1,4 C 1,7 C 4,8 km/h (1 Bft) 95,83 %
13.11.2015 05:02 1,7 C 98 % 1025,6 hPa 0,0 l/m 2,0 km/h (1 Bft) S-SW 202 0 min 0,000 mm 0,0 UV-I 0 W/m 1,4 C 1,7 C 3,2 km/h (1 Bft) 100,00 %
13.11.2015 05:03 1,6 C 98 % 1025,5 hPa 0,0 l/m 2,9 km/h (1 Bft) S-SW 202 0 min 0,000 mm 0,0 UV-I 0 W/m 1,3 C 1,6 C 4,8 km/h (1 Bft) 100,00 %
13.11.2015 05:04 1,6 C 98 % 1025,5 hPa 0,0 l/m 2,5 km/h (1 Bft) S 180 0 min 0,000 mm 0,0 UV-I 0 W/m 1,3 C 1,6 C 4,8 km/h (1 Bft) 100,00 %
13.11.2015 05:05 1,6 C 98 % 1025,5 hPa 0,0 l/m 2,5 km/h (1 Bft) S 181 0 min 0,000 mm 0,0 UV-I 0 W/m 1,3 C 1,6 C 3,2 km/h (1 Bft) 100,00 %
13.11.2015 05:06 1,6 C 98 % 1025,5 hPa 0,0 l/m 2,5 km/h (1 Bft) S-SW 209 0 min 0,000 mm 0,0 UV-I 0 W/m 1,3 C 1,6 C 3,2 km/h (1 Bft) 100,00 %
13.11.2015 05:07 1,6 C 98 % 1025,5 hPa 0,0 l/m 3,0 km/h (1 Bft) SW 229 0 min 0,000 mm 0,0 UV-I 0 W/m 1,3 C 1,6 C 6,4 km/h (2 Bft) 100,00 %
13.11.2015 05:08 1,6 C 98 % 1025,5 hPa 0,0 l/m 3,2 km/h (1 Bft) SW 224 0 min 0,000 mm 0,0 UV-I 0 W/m 1,3 C 1,6 C 6,4 km/h (2 Bft) 100,00 %
13.11.2015 05:09 1,6 C 98 % 1025,5 hPa 0,0 l/m 0,5 km/h (0 Bft) SW 224 0 min 0,000 mm 0,0 UV-I 0 W/m 1,3 C 1,6 C 1,6 km/h (1 Bft) 100,00 %
13.11.2015 05:10 1,6 C 98 % 1025,5 hPa 0,0 l/m 0,8 km/h (0 Bft) SW 214 0 min 0,000 mm 0,0 UV-I 0 W/m 1,3 C 1,6 C 3,2 km/h (1 Bft) 100,00 %
13.11.2015 05:11 1,7 C 98 % 1025,4 hPa 0,0 l/m 3,1 km/h (1 Bft) SW 233 0 min 0,000 mm 0,0 UV-I 0 W/m 1,4 C 1,7 C 4,8 km/h (1 Bft) 100,00 %
13.11.2015 05:12 1,6 C 98 % 1025,5 hPa 0,0 l/m 1,9 km/h (1 Bft) SW 215 0 min 0,000 mm 0,0 UV-I 0 W/m 1,3 C 1,6 C 3,2 km/h (1 Bft) 100,00 %
13.11.2015 05:13 1,6 C 98 % 1025,5 hPa 0,0 l/m 2,7 km/h (1 Bft) S-SW 198 0 min 0,000 mm 0,0 UV-I 0 W/m 1,3 C 1,6 C 4,8 km/h (1 Bft) 100,00 %
13.11.2015 05:14 1,6 C 98 % 1025,5 hPa 0,0 l/m 2,7 km/h (1 Bft) S-SW 211 0 min 0,000 mm 0,0 UV-I 0 W/m 1,3 C 1,6 C 6,4 km/h (2 Bft) 100,00 %
13.11.2015 05:15 1,5 C 98 % 1025,5 hPa 0,0 l/m 3,4 km/h (1 Bft) W-SW 238 0 min 0,000 mm 0,0 UV-I 0 W/m 1,2 C 1,5 C 4,8 km/h (1 Bft) 100,00 %
13.11.2015 05:16 1,5 C 98 % 1025,5 hPa 0,0 l/m 2,2 km/h (1 Bft) W-SW 237 0 min 0,000 mm 0,0 UV-I 0 W/m 1,2 C 1,5 C 3,2 km/h (1 Bft) 100,00 %
13.11.2015 05:17 1,5 C 98 % 1025,5 hPa 0,0 l/m 1,2 km/h (1 Bft) SW 234 0 min 0,000 mm 0,0 UV-I 0 W/m 1,2 C 1,5 C 3,2 km/h (1 Bft) 100,00 %
13.11.2015 05:18 1,5 C 98 % 1025,5 hPa 0,0 l/m 1,7 km/h (1 Bft) SW 234 0 min 0,000 mm 0,0 UV-I 0 W/m 1,2 C 1,5 C 3,2 km/h (1 Bft) 100,00 %
13.11.2015 05:19 1,5 C 98 % 1025,5 hPa 0,0 l/m 1,5 km/h (1 Bft) SW 234 0 min 0,000 mm 0,0 UV-I 0 W/m 1,2 C 1,5 C 3,2 km/h (1 Bft) 100,00 %
13.11.2015 05:20 1,5 C 98 % 1025,5 hPa 0,0 l/m 1,4 km/h (1 Bft) W-SW 254 0 min 0,000 mm 0,0 UV-I 0 W/m 1,2 C 1,5 C 1,6 km/h (1 Bft) 100,00 %
13.11.2015 05:21 1,4 C 98 % 1025,5 hPa 0,0 l/m 1,7 km/h (1 Bft) W-NW 282 0 min 0,000 mm 0,0 UV-I 0 W/m 1,1 C 1,4 C 3,2 km/h (1 Bft) 100,00 %
13.11.2015 05:22 1,4 C 98 % 1025,5 hPa 0,0 l/m 1,7 km/h (1 Bft) W 275 0 min 0,000 mm 0,0 UV-I 0 W/m 1,1 C 1,4 C 3,2 km/h (1 Bft) 91,67 %
13.11.2015 05:23 1,4 C 98 % 1025,5 hPa 0,0 l/m 1,5 km/h (1 Bft) W-SW 248 0 min 0,000 mm 0,0 UV-I 0 W/m 1,1 C 1,4 C 3,2 km/h (1 Bft) 96,15 %
13.11.2015 05:24 1,4 C 98 % 1025,5 hPa 0,0 l/m 1,5 km/h (1 Bft) W-SW 242 0 min 0,000 mm 0,0 UV-I 0 W/m 1,1 C 1,4 C 3,2 km/h (1 Bft) 100,00 %
13.11.2015 05:25 1,3 C 98 % 1025,5 hPa 0,0 l/m 1,5 km/h (1 Bft) SW 236 0 min 0,000 mm 0,0 UV-I 0 W/m 1,0 C 1,3 C 1,6 km/h (1 Bft) 100,00 %
13.11.2015 05:26 1,3 C 98 % 1025,4 hPa 0,0 l/m 2,2 km/h (1 Bft) S-SW 211 0 min 0,000 mm 0,0 UV-I 0 W/m 1,0 C 1,3 C 4,8 km/h (1 Bft) 100,00 %
13.11.2015 05:27 1,3 C 98 % 1025,4 hPa 0,0 l/m 3,7 km/h (1 Bft) S-SW 209 0 min 0,000 mm 0,0 UV-I 0 W/m 1,0 C 1,3 C 6,4 km/h (2 Bft) 100,00 %
13.11.2015 05:28 1,3 C 98 % 1025,4 hPa 0,0 l/m 3,0 km/h (1 Bft) SW 219 0 min 0,000 mm 0,0 UV-I 0 W/m 1,0 C 1,3 C 4,8 km/h (1 Bft) 100,00 %
13.11.2015 05:29 1,2 C 98 % 1025,4 hPa 0,0 l/m 3,3 km/h (1 Bft) S-SW 209 0 min 0,000 mm 0,0 UV-I 0 W/m 0,9 C 1,2 C 4,8 km/h (1 Bft) 100,00 %
13.11.2015 05:30 1,2 C 98 % 1025,4 hPa 0,0 l/m 3,2 km/h (1 Bft) S-SW 194 0 min 0,000 mm 0,0 UV-I 0 W/m 0,9 C 1,2 C 4,8 km/h (1 Bft) 100,00 %
13.11.2015 05:31 1,2 C 98 % 1025,4 hPa 0,0 l/m 3,1 km/h (1 Bft) SW 223 0 min 0,000 mm 0,0 UV-I 0 W/m 0,9 C 1,2 C 4,8 km/h (1 Bft) 100,00 %
13.11.2015 05:32 1,2 C 98 % 1025,4 hPa 0,0 l/m 2,6 km/h (1 Bft) W-SW 239 0 min 0,000 mm 0,0 UV-I 0 W/m 0,9 C 1,2 C 3,2 km/h (1 Bft) 100,00 %
13.11.2015 05:33 1,2 C 98 % 1025,4 hPa 0,0 l/m 1,3 km/h (1 Bft) W-SW 239 0 min 0,000 mm 0,0 UV-I 0 W/m 0,9 C 1,2 C 1,6 km/h (1 Bft) 100,00 %
13.11.2015 05:34 1,3 C 98 % 1025,4 hPa 0,0 l/m 1,5 km/h (1 Bft) SW 227 0 min 0,000 mm 0,0 UV-I 0 W/m 1,0 C 1,3 C 3,2 km/h (1 Bft) 100,00 %
13.11.2015 05:35 1,3 C 98 % 1025,5 hPa 0,0 l/m 1,8 km/h (1 Bft) SW 227 0 min 0,000 mm 0,0 UV-I 0 W/m 1,0 C 1,3 C 3,2 km/h (1 Bft) 100,00 %
13.11.2015 05:36 1,3 C 98 % 1025,5 hPa 0,0 l/m 1,7 km/h (1 Bft) SW 218 0 min 0,000 mm 0,0 UV-I 0 W/m 1,0 C 1,3 C 3,2 km/h (1 Bft) 100,00 %
13.11.2015 05:37 1,3 C 98 % 1025,5 hPa 0,0 l/m 2,4 km/h (1 Bft) SW 218 0 min 0,000 mm 0,0 UV-I 0 W/m 1,0 C 1,3 C 3,2 km/h (1 Bft) 100,00 %
13.11.2015 05:38 1,3 C 98 % 1025,5 hPa 0,0 l/m 1,0 km/h (0 Bft) SW 218 0 min 0,000 mm 0,0 UV-I 0 W/m 1,0 C 1,3 C 3,2 km/h (1 Bft) 100,00 %
13.11.2015 05:39 1,3 C 98 % 1025,5 hPa 0,0 l/m 2,7 km/h (1 Bft) SW 215 0 min 0,000 mm 0,0 UV-I 0 W/m 1,0 C 1,3 C 4,8 km/h (1 Bft) 96,15 %
13.11.2015 05:40 1,3 C 98 % 1025,5 hPa 0,0 l/m 3,8 km/h (1 Bft) W-SW 238 0 min 0,000 mm 0,0 UV-I 0 W/m 1,0 C 1,3 C 4,8 km/h (1 Bft) 100,00 %
13.11.2015 05:41 1,3 C 98 % 1025,5 hPa 0,0 l/m 3,2 km/h (1 Bft) SW 230 0 min 0,000 mm 0,0 UV-I 0 W/m 1,0 C 1,3 C 4,8 km/h (1 Bft) 100,00 %
13.11.2015 05:42 1,3 C 98 % 1025,5 hPa 0,0 l/m 2,7 km/h (1 Bft) S-SW 211 0 min 0,000 mm 0,0 UV-I 0 W/m 1,0 C 1,3 C 3,2 km/h (1 Bft) 96,15 %
13.11.2015 05:43 1,3 C 98 % 1025,5 hPa 0,0 l/m 2,0 km/h (1 Bft) S-SW 211 0 min 0,000 mm 0,0 UV-I 0 W/m 1,0 C 1,3 C 3,2 km/h (1 Bft) 100,00 %
13.11.2015 05:44 1,3 C 98 % 1025,5 hPa 0,0 l/m 2,1 km/h (1 Bft) SW 231 0 min 0,000 mm 0,0 UV-I 0 W/m 1,0 C 1,3 C 3,2 km/h (1 Bft) 95,65 %
13.11.2015 05:45 1,3 C 98 % 1025,4 hPa 0,0 l/m 3,5 km/h (1 Bft) SW 228 0 min 0,000 mm 0,0 UV-I 0 W/m 1,0 C 1,3 C 4,8 km/h (1 Bft) 100,00 %
13.11.2015 05:46 1,3 C 98 % 1025,5 hPa 0,0 l/m 3,1 km/h (1 Bft) SW 234 0 min 0,000 mm 0,0 UV-I 0 W/m 1,0 C 1,3 C 4,8 km/h (1 Bft) 100,00 %
13.11.2015 05:47 1,3 C 98 % 1025,5 hPa 0,0 l/m 2,0 km/h (1 Bft) SW 223 0 min 0,000 mm 0,0 UV-I 0 W/m 1,0 C 1,3 C 3,2 km/h (1 Bft) 100,00 %
13.11.2015 05:48 1,4 C 98 % 1025,5 hPa 0,0 l/m 3,0 km/h (1 Bft) S-SW 205 0 min 0,000 mm 0,0 UV-I 0 W/m 1,1 C 1,4 C 4,8 km/h (1 Bft) 100,00 %
13.11.2015 05:49 1,4 C 98 % 1025,5 hPa 0,0 l/m 2,1 km/h (1 Bft) SW 223 0 min 0,000 mm 0,0 UV-I 0 W/m 1,1 C 1,4 C 3,2 km/h (1 Bft) 100,00 %
13.11.2015 05:50 1,4 C 98 % 1025,5 hPa 0,0 l/m 2,7 km/h (1 Bft) SW 217 0 min 0,000 mm 0,0 UV-I 0 W/m 1,1 C 1,4 C 4,8 km/h (1 Bft) 100,00 %
13.11.2015 05:51 1,4 C 98 % 1025,5 hPa 0,0 l/m 2,7 km/h (1 Bft) SW 223 0 min 0,000 mm 0,0 UV-I 0 W/m 1,1 C 1,4 C 4,8 km/h (1 Bft) 100,00 %
13.11.2015 05:52 1,5 C 98 % 1025,5 hPa 0,0 l/m 1,4 km/h (1 Bft) SW 223 0 min 0,000 mm 0,0 UV-I 0 W/m 1,2 C 1,5 C 3,2 km/h (1 Bft) 100,00 %
13.11.2015 05:53 1,5 C 98 % 1025,5 hPa 0,0 l/m 0,8 km/h (0 Bft) SW 225 0 min 0,000 mm 0,0 UV-I 0 W/m 1,2 C 1,5 C 1,6 km/h (1 Bft) 100,00 %
13.11.2015 05:54 1,6 C 98 % 1025,5 hPa 0,0 l/m 1,9 km/h (1 Bft) SW 224 0 min 0,000 mm 0,0 UV-I 0 W/m 1,3 C 1,6 C 3,2 km/h (1 Bft) 100,00 %
13.11.2015 05:55 1,6 C 98 % 1025,5 hPa 0,0 l/m 3,0 km/h (1 Bft) SW 224 0 min 0,000 mm 0,0 UV-I 0 W/m 1,3 C 1,6 C 4,8 km/h (1 Bft) 95,83 %
13.11.2015 05:56 1,6 C 98 % 1025,5 hPa 0,0 l/m 1,0 km/h (0 Bft) SW 224 0 min 0,000 mm 0,0 UV-I 0 W/m 1,3 C 1,6 C 3,2 km/h (1 Bft) 100,00 %
13.11.2015 05:57 1,6 C 98 % 1025,5 hPa 0,0 l/m 0,3 km/h (0 Bft) SW 224 0 min 0,000 mm 0,0 UV-I 0 W/m 1,3 C 1,6 C 1,6 km/h (1 Bft) 100,00 %
13.11.2015 05:58 1,6 C 98 % 1025,5 hPa 0,0 l/m 0,6 km/h (0 Bft) SW 224 0 min 0,000 mm 0,0 UV-I 0 W/m 1,3 C 1,6 C 1,6 km/h (1 Bft) 100,00 %
13.11.2015 05:59 1,6 C 98 % 1025,5 hPa 0,0 l/m 1,0 km/h (0 Bft) SW 227 0 min 0,000 mm 0,0 UV-I 0 W/m 1,3 C 1,6 C 1,6 km/h (1 Bft) 100,00 %
13.11.2015 06:00 1,6 C 98 % 1025,5 hPa 0,0 l/m 1,6 km/h (1 Bft) SW 227 0 min 0,000 mm 0,0 UV-I 0 W/m 1,3 C 1,6 C 1,6 km/h (1 Bft) 100,00 %
13.11.2015 06:01 1,6 C 98 % 1025,5 hPa 0,0 l/m 1,5 km/h (1 Bft) SW 223 0 min 0,000 mm 0,0 UV-I 0 W/m 1,3 C 1,6 C 3,2 km/h (1 Bft) 100,00 %
13.11.2015 06:02 1,7 C 98 % 1025,5 hPa 0,0 l/m 2,9 km/h (1 Bft) SW 222 0 min 0,000 mm 0,0 UV-I 0 W/m 1,4 C 1,7 C 4,8 km/h (1 Bft) 100,00 %
13.11.2015 06:03 1,6 C 98 % 1025,5 hPa 0,0 l/m 2,9 km/h (1 Bft) S-SW 211 0 min 0,000 mm 0,0 UV-I 0 W/m 1,3 C 1,6 C 4,8 km/h (1 Bft) 100,00 %
13.11.2015 06:04 1,7 C 98 % 1025,5 hPa 0,0 l/m 3,6 km/h (1 Bft) S-SW 211 0 min 0,000 mm 0,0 UV-I 0 W/m 1,4 C 1,7 C 6,4 km/h (2 Bft) 100,00 %
13.11.2015 06:05 1,7 C 98 % 1025,6 hPa 0,0 l/m 2,6 km/h (1 Bft) SW 227 0 min 0,000 mm 0,0 UV-I 0 W/m 1,4 C 1,7 C 4,8 km/h (1 Bft) 96,15 %
13.11.2015 06:06 1,7 C 98 % 1025,5 hPa 0,0 l/m 2,2 km/h (1 Bft) W-SW 251 0 min 0,000 mm 0,0 UV-I 0 W/m 1,4 C 1,7 C 3,2 km/h (1 Bft) 91,67 %
13.11.2015 06:07 1,7 C 98 % 1025,5 hPa 0,0 l/m 1,1 km/h (1 Bft) S-SW 213 0 min 0,000 mm 0,0 UV-I 0 W/m 1,4 C 1,7 C 3,2 km/h (1 Bft) 100,00 %
13.11.2015 06:08 1,7 C 98 % 1025,5 hPa 0,0 l/m 1,4 km/h (1 Bft) S-SW 213 0 min 0,000 mm 0,0 UV-I 0 W/m 1,4 C 1,7 C 3,2 km/h (1 Bft) 100,00 %
13.11.2015 06:09 1,8 C 98 % 1025,5 hPa 0,0 l/m 2,4 km/h (1 Bft) S-SW 213 0 min 0,000 mm 0,0 UV-I 0 W/m 1,5 C 1,8 C 4,8 km/h (1 Bft) 100,00 %
13.11.2015 06:10 1,8 C 98 % 1025,5 hPa 0,0 l/m 2,6 km/h (1 Bft) SW 214 0 min 0,000 mm 0,0 UV-I 0 W/m 1,5 C 1,8 C 4,8 km/h (1 Bft) 100,00 %
13.11.2015 06:11 1,8 C 98 % 1025,5 hPa 0,0 l/m 2,2 km/h (1 Bft) W-SW 257 0 min 0,000 mm 0,0 UV-I 0 W/m 1,5 C 1,8 C 3,2 km/h (1 Bft) 100,00 %
13.11.2015 06:12 1,8 C 98 % 1025,5 hPa 0,0 l/m 1,3 km/h (1 Bft) W-SW 257 0 min 0,000 mm 0,0 UV-I 0 W/m 1,5 C 1,8 C 3,2 km/h (1 Bft) 100,00 %
13.11.2015 06:13 1,8 C 98 % 1025,5 hPa 0,0 l/m 0,1 km/h (0 Bft) W-SW 257 0 min 0,000 mm 0,0 UV-I 0 W/m 1,5 C 1,8 C 1,6 km/h (1 Bft) 86,96 %
13.11.2015 06:14 1,8 C 98 % 1025,6 hPa 0,0 l/m 1,9 km/h (1 Bft) S-SW 212 0 min 0,000 mm 0,0 UV-I 0 W/m 1,5 C 1,8 C 4,8 km/h (1 Bft) 100,00 %
13.11.2015 06:15 1,8 C 98 % 1025,6 hPa 0,0 l/m 3,0 km/h (1 Bft) S-SW 207 0 min 0,000 mm 0,0 UV-I 0 W/m 1,5 C 1,8 C 4,8 km/h (1 Bft) 100,00 %
13.11.2015 06:16 1,8 C 98 % 1025,6 hPa 0,0 l/m 3,3 km/h (1 Bft) SW 217 0 min 0,000 mm 0,0 UV-I 0 W/m 1,5 C 1,8 C 6,4 km/h (2 Bft) 100,00 %
13.11.2015 06:17 1,8 C 98 % 1025,6 hPa 0,0 l/m 3,3 km/h (1 Bft) SW 229 0 min 0,000 mm 0,0 UV-I 0 W/m 1,5 C 1,8 C 4,8 km/h (1 Bft) 100,00 %
13.11.2015 06:18 1,8 C 98 % 1025,6 hPa 0,0 l/m 3,8 km/h (1 Bft) SW 219 0 min 0,000 mm 0,0 UV-I 0 W/m 1,5 C 1,8 C 4,8 km/h (1 Bft) 100,00 %
13.11.2015 06:19 1,8 C 98 % 1025,6 hPa 0,0 l/m 3,6 km/h (1 Bft) SW 218 0 min 0,000 mm 0,0 UV-I 0 W/m 1,5 C 1,8 C 4,8 km/h (1 Bft) 100,00 %
13.11.2015 06:20 1,8 C 98 % 1025,6 hPa 0,0 l/m 2,9 km/h (1 Bft) SW 220 0 min 0,000 mm 0,0 UV-I 0 W/m 1,5 C 1,8 C 4,8 km/h (1 Bft) 100,00 %
13.11.2015 06:21 1,8 C 98 % 1025,7 hPa 0,0 l/m 3,6 km/h (1 Bft) S-SW 205 0 min 0,000 mm 0,0 UV-I 0 W/m 1,5 C 1,8 C 6,4 km/h (2 Bft) 100,00 %
13.11.2015 06:22 1,8 C 98 % 1025,7 hPa 0,0 l/m 5,1 km/h (1 Bft) SW 219 0 min 0,000 mm 0,0 UV-I 0 W/m 1,5 C 1,8 C 6,4 km/h (2 Bft) 100,00 %
13.11.2015 06:23 1,9 C 98 % 1025,7 hPa 0,0 l/m 3,5 km/h (1 Bft) SW 215 0 min 0,000 mm 0,0 UV-I 0 W/m 1,6 C 1,9 C 4,8 km/h (1 Bft) 100,00 %
13.11.2015 06:24 1,9 C 98 % 1025,7 hPa 0,0 l/m 2,3 km/h (1 Bft) W-SW 241 0 min 0,000 mm 0,0 UV-I 0 W/m 1,6 C 1,9 C 3,2 km/h (1 Bft) 100,00 %
13.11.2015 06:25 1,9 C 98 % 1025,7 hPa 0,0 l/m 2,6 km/h (1 Bft) SW 221 0 min 0,000 mm 0,0 UV-I 0 W/m 1,6 C 1,9 C 4,8 km/h (1 Bft) 100,00 %
13.11.2015 06:26 1,9 C 98 % 1025,8 hPa 0,0 l/m 2,0 km/h (1 Bft) W-NW 283 0 min 0,000 mm 0,0 UV-I 0 W/m 1,6 C 1,9 C 3,2 km/h (1 Bft) 92,31 %
13.11.2015 06:27 1,9 C 98 % 1025,8 hPa 0,0 l/m 2,5 km/h (1 Bft) W 281 0 min 0,000 mm 0,0 UV-I 0 W/m 1,6 C 1,9 C 4,8 km/h (1 Bft) 100,00 %
13.11.2015 06:28 2,0 C 98 % 1025,8 hPa 0,0 l/m 3,5 km/h (1 Bft) W 279 0 min 0,000 mm 0,0 UV-I 0 W/m 1,7 C 2,0 C 4,8 km/h (1 Bft) 100,00 %
13.11.2015 06:29 2,0 C 98 % 1025,8 hPa 0,0 l/m 3,2 km/h (1 Bft) W 263 0 min 0,000 mm 0,0 UV-I 0 W/m 1,7 C 2,0 C 4,8 km/h (1 Bft) 100,00 %
13.11.2015 06:30 2,0 C 98 % 1025,7 hPa 0,0 l/m 2,8 km/h (1 Bft) W-NW 287 0 min 0,000 mm 0,0 UV-I 0 W/m 1,7 C 2,0 C 4,8 km/h (1 Bft) 100,00 %
13.11.2015 06:31 2,0 C 98 % 1025,7 hPa 0,0 l/m 2,0 km/h (1 Bft) W 275 0 min 0,000 mm 0,0 UV-I 0 W/m 1,7 C 2,0 C 3,2 km/h (1 Bft) 100,00 %
13.11.2015 06:32 2,0 C 98 % 1025,7 hPa 0,0 l/m 2,6 km/h (1 Bft) W-SW 239 0 min 0,000 mm 0,0 UV-I 0 W/m 1,7 C 2,0 C 3,2 km/h (1 Bft) 100,00 %
13.11.2015 06:33 2,1 C 98 % 1025,8 hPa 0,0 l/m 3,6 km/h (1 Bft) W-SW 239 0 min 0,000 mm 0,0 UV-I 0 W/m 1,8 C 2,1 C 6,4 km/h (2 Bft) 96,30 %
13.11.2015 06:34 2,1 C 98 % 1025,8 hPa 0,0 l/m 1,0 km/h (0 Bft) W-SW 240 0 min 0,000 mm 0,0 UV-I 0 W/m 1,8 C 2,1 C 1,6 km/h (1 Bft) 100,00 %
13.11.2015 06:35 2,1 C 98 % 1025,7 hPa 0,0 l/m 1,3 km/h (1 Bft) SW 229 0 min 0,000 mm 0,0 UV-I 0 W/m 1,8 C 2,1 C 3,2 km/h (1 Bft) 100,00 %
13.11.2015 06:36 2,1 C 98 % 1025,7 hPa 0,0 l/m 2,8 km/h (1 Bft) W-SW 241 0 min 0,000 mm 0,0 UV-I 0 W/m 1,8 C 2,1 C 4,8 km/h (1 Bft) 92,31 %
13.11.2015 06:37 2,1 C 98 % 1025,7 hPa 0,0 l/m 2,4 km/h (1 Bft) W 267 0 min 0,000 mm 0,0 UV-I 0 W/m 1,8 C 2,1 C 4,8 km/h (1 Bft) 100,00 %
13.11.2015 06:38 2,1 C 98 % 1025,8 hPa 0,0 l/m 1,9 km/h (1 Bft) W-NW 288 0 min 0,000 mm 0,0 UV-I 0 W/m 1,8 C 2,1 C 3,2 km/h (1 Bft) 100,00 %
13.11.2015 06:39 2,2 C 98 % 1025,7 hPa 0,0 l/m 1,8 km/h (1 Bft) W 269 0 min 0,000 mm 0,0 UV-I 0 W/m 1,9 C 2,2 C 3,2 km/h (1 Bft) 100,00 %
13.11.2015 06:40 2,1 C 98 % 1025,8 hPa 0,0 l/m 1,5 km/h (1 Bft) W 269 0 min 0,000 mm 0,0 UV-I 0 W/m 1,8 C 2,1 C 3,2 km/h (1 Bft) 95,83 %
13.11.2015 06:41 2,1 C 98 % 1025,8 hPa 0,0 l/m 2,5 km/h (1 Bft) SW 234 0 min 0,000 mm 0,0 UV-I 0 W/m 1,8 C 2,1 C 3,2 km/h (1 Bft) 100,00 %
13.11.2015 06:42 2,1 C 98 % 1025,9 hPa 0,0 l/m 1,5 km/h (1 Bft) W 265 0 min 0,000 mm 0,0 UV-I 0 W/m 1,8 C 2,1 C 3,2 km/h (1 Bft) 100,00 %
13.11.2015 06:43 2,2 C 98 % 1025,8 hPa 0,0 l/m 2,9 km/h (1 Bft) SW 222 0 min 0,000 mm 0,0 UV-I 0 W/m 1,9 C 2,2 C 4,8 km/h (1 Bft) 96,15 %
13.11.2015 06:44 2,2 C 98 % 1025,8 hPa 0,0 l/m 3,1 km/h (1 Bft) SW 225 0 min 0,000 mm 0,0 UV-I 0 W/m 1,9 C 2,2 C 4,8 km/h (1 Bft) 91,67 %
13.11.2015 06:45 2,1 C 98 % 1025,8 hPa 0,0 l/m 3,2 km/h (1 Bft) S-SW 209 0 min 0,000 mm 0,0 UV-I 0 W/m 1,8 C 2,1 C 4,8 km/h (1 Bft) 100,00 %
13.11.2015 06:46 2,1 C 98 % 1025,8 hPa 0,0 l/m 2,3 km/h (1 Bft) SW 216 0 min 0,000 mm 0,0 UV-I 0 W/m 1,8 C 2,1 C 3,2 km/h (1 Bft) 100,00 %
13.11.2015 06:47 2,1 C 98 % 1025,8 hPa 0,0 l/m 2,3 km/h (1 Bft) SW 221 0 min 0,000 mm 0,0 UV-I 0 W/m 1,8 C 2,1 C 4,8 km/h (1 Bft) 100,00 %
13.11.2015 06:48 2,1 C 98 % 1025,8 hPa 0,0 l/m 2,5 km/h (1 Bft) SW 218 0 min 0,000 mm 0,0 UV-I 0 W/m 1,8 C 2,1 C 3,2 km/h (1 Bft) 95,83 %
13.11.2015 06:49 2,1 C 98 % 1025,8 hPa 0,0 l/m 1,0 km/h (0 Bft) SW 218 0 min 0,000 mm 0,0 UV-I 0 W/m 1,8 C 2,1 C 3,2 km/h (1 Bft) 96,15 %
13.11.2015 06:50 2,1 C 98 % 1025,8 hPa 0,0 l/m 0,7 km/h (0 Bft) SW 218 0 min 0,000 mm 0,0 UV-I 0 W/m 1,8 C 2,1 C 1,6 km/h (1 Bft) 100,00 %
13.11.2015 06:51 2,2 C 98 % 1025,8 hPa 0,0 l/m 1,3 km/h (1 Bft) SW 218 0 min 0,000 mm 0,0 UV-I 0 W/m 1,9 C 2,2 C 3,2 km/h (1 Bft) 95,65 %
13.11.2015 06:52 2,2 C 98 % 1025,8 hPa 0,0 l/m 3,8 km/h (1 Bft) S-SW 211 0 min 0,000 mm 0,0 UV-I 0 W/m 1,9 C 2,2 C 4,8 km/h (1 Bft) 100,00 %
13.11.2015 06:53 2,2 C 98 % 1025,8 hPa 0,0 l/m 2,8 km/h (1 Bft) S-SW 211 0 min 0,000 mm 0,0 UV-I 0 W/m 1,9 C 2,2 C 4,8 km/h (1 Bft) 100,00 %
13.11.2015 06:54 2,2 C 98 % 1025,8 hPa 0,0 l/m 2,2 km/h (1 Bft) S-SW 211 0 min 0,000 mm 0,0 UV-I 0 W/m 1,9 C 2,2 C 3,2 km/h (1 Bft) 100,00 %
13.11.2015 06:55 2,2 C 98 % 1025,8 hPa 0,0 l/m 0,9 km/h (0 Bft) S-SW 211 0 min 0,000 mm 0,0 UV-I 0 W/m 1,9 C 2,2 C 1,6 km/h (1 Bft) 100,00 %
13.11.2015 06:56 2,2 C 98 % 1025,8 hPa 0,0 l/m 1,9 km/h (1 Bft) S-SW 213 0 min 0,000 mm 0,0 UV-I 0 W/m 1,9 C 2,2 C 4,8 km/h (1 Bft) 100,00 %
13.11.2015 06:57 2,2 C 98 % 1025,9 hPa 0,0 l/m 2,9 km/h (1 Bft) SW 214 0 min 0,000 mm 0,0 UV-I 0 W/m 1,9 C 2,2 C 4,8 km/h (1 Bft) 100,00 %
13.11.2015 06:58 2,2 C 98 % 1025,9 hPa 0,0 l/m 2,3 km/h (1 Bft) SW 236 0 min 0,000 mm 0,0 UV-I 0 W/m 1,9 C 2,2 C 3,2 km/h (1 Bft) 95,83 %
13.11.2015 06:59 2,2 C 98 % 1025,9 hPa 0,0 l/m 2,5 km/h (1 Bft) W-SW 238 0 min 0,000 mm 0,0 UV-I 0 W/m 1,9 C 2,2 C 4,8 km/h (1 Bft) 100,00 %
13.11.2015 07:00 2,2 C 98 % 1025,9 hPa 0,0 l/m 2,3 km/h (1 Bft) W-SW 238 0 min 0,000 mm 0,0 UV-I 2 W/m 1,9 C 2,2 C 3,2 km/h (1 Bft) 100,00 %
13.11.2015 07:01 2,2 C 98 % 1025,9 hPa 0,0 l/m 1,4 km/h (1 Bft) SW 234 0 min 0,000 mm 0,0 UV-I 5 W/m 1,9 C 2,2 C 3,2 km/h (1 Bft) 95,65 %
13.11.2015 07:02 2,2 C 98 % 1025,9 hPa 0,0 l/m 1,0 km/h (0 Bft) SW 234 0 min 0,000 mm 0,0 UV-I 5 W/m 1,9 C 2,2 C 1,6 km/h (1 Bft) 100,00 %
13.11.2015 07:03 2,2 C 98 % 1025,9 hPa 0,0 l/m 0,5 km/h (0 Bft) SW 234 0 min 0,000 mm 0,0 UV-I 5 W/m 1,9 C 2,2 C 1,6 km/h (1 Bft) 100,00 %
13.11.2015 07:04 2,3 C 98 % 1025,9 hPa 0,0 l/m 2,2 km/h (1 Bft) SW 234 0 min 0,000 mm 0,0 UV-I 5 W/m 2,0 C 2,3 C 3,2 km/h (1 Bft) 100,00 %
13.11.2015 07:05 2,3 C 98 % 1025,9 hPa 0,0 l/m 1,6 km/h (1 Bft) SW 234 0 min 0,000 mm 0,0 UV-I 5 W/m 2,0 C 2,3 C 3,2 km/h (1 Bft) 95,83 %
13.11.2015 07:06 2,3 C 98 % 1025,9 hPa 0,0 l/m 2,3 km/h (1 Bft) SW 234 0 min 0,000 mm 0,0 UV-I 5 W/m 2,0 C 2,3 C 3,2 km/h (1 Bft) 100,00 %
13.11.2015 07:07 2,3 C 98 % 1025,9 hPa 0,0 l/m 1,1 km/h (1 Bft) SW 229 0 min 0,000 mm 0,0 UV-I 5 W/m 2,0 C 2,3 C 1,6 km/h (1 Bft) 100,00 %
13.11.2015 07:08 2,3 C 98 % 1025,9 hPa 0,0 l/m 1,0 km/h (0 Bft) SW 227 0 min 0,000 mm 0,0 UV-I 7 W/m 2,0 C 2,3 C 3,2 km/h (1 Bft) 100,00 %
13.11.2015 07:09 2,3 C 98 % 1026,0 hPa 0,0 l/m 1,7 km/h (1 Bft) S-SW 207 0 min 0,000 mm 0,0 UV-I 7 W/m 2,0 C 2,3 C 3,2 km/h (1 Bft) 100,00 %
13.11.2015 07:10 2,3 C 98 % 1026,0 hPa 0,0 l/m 3,2 km/h (1 Bft) W-SW 242 0 min 0,000 mm 0,0 UV-I 7 W/m 2,0 C 2,3 C 4,8 km/h (1 Bft) 100,00 %
13.11.2015 07:11 2,3 C 98 % 1026,0 hPa 0,0 l/m 2,3 km/h (1 Bft) SW 234 0 min 0,000 mm 0,0 UV-I 10 W/m 2,0 C 2,3 C 3,2 km/h (1 Bft) 100,00 %
13.11.2015 07:12 2,3 C 98 % 1026,0 hPa 0,0 l/m 0,5 km/h (0 Bft) SW 234 0 min 0,000 mm 0,0 UV-I 12 W/m 2,0 C 2,3 C 1,6 km/h (1 Bft) 95,65 %
13.11.2015 07:13 2,3 C 98 % 1026,0 hPa 0,0 l/m 0,9 km/h (0 Bft) SW 232 0 min 0,000 mm 0,0 UV-I 13 W/m 2,0 C 2,3 C 3,2 km/h (1 Bft) 100,00 %
13.11.2015 07:14 2,3 C 98 % 1026,0 hPa 0,0 l/m 0,2 km/h (0 Bft) SW 218 0 min 0,000 mm 0,0 UV-I 16 W/m 2,0 C 2,3 C 1,6 km/h (1 Bft) 100,00 %
13.11.2015 07:15 2,3 C 98 % 1025,9 hPa 0,0 l/m 1,1 km/h (1 Bft) SW 218 0 min 0,000 mm 0,0 UV-I 18 W/m 2,0 C 2,3 C 3,2 km/h (1 Bft) 100,00 %
13.11.2015 07:16 2,3 C 98 % 1026,0 hPa 0,0 l/m 2,0 km/h (1 Bft) SW 216 0 min 0,000 mm 0,0 UV-I 20 W/m 2,0 C 2,3 C 3,2 km/h (1 Bft) 100,00 %
13.11.2015 07:17 2,3 C 98 % 1026,1 hPa 0,0 l/m 2,1 km/h (1 Bft) SW 216 0 min 0,000 mm 0,0 UV-I 21 W/m 2,0 C 2,3 C 3,2 km/h (1 Bft) 100,00 %
13.11.2015 07:18 2,3 C 98 % 1026,1 hPa 0,0 l/m 3,1 km/h (1 Bft) SW 215 1 min 0,000 mm 0,0 UV-I 21 W/m 2,0 C 2,3 C 4,8 km/h (1 Bft) 100,00 %
13.11.2015 07:19 2,3 C 98 % 1026,1 hPa 0,0 l/m 3,1 km/h (1 Bft) S 188 1 min 0,000 mm 0,0 UV-I 21 W/m 2,0 C 2,3 C 4,8 km/h (1 Bft) 100,00 %
13.11.2015 07:20 2,3 C 98 % 1026,1 hPa 0,0 l/m 1,9 km/h (1 Bft) SW 221 1 min 0,000 mm 0,0 UV-I 19 W/m 2,0 C 2,3 C 3,2 km/h (1 Bft) 100,00 %
13.11.2015 07:21 2,3 C 98 % 1026,1 hPa 0,0 l/m 2,1 km/h (1 Bft) W-SW 240 1 min 0,000 mm 0,0 UV-I 18 W/m 2,0 C 2,3 C 4,8 km/h (1 Bft) 100,00 %
13.11.2015 07:22 2,3 C 98 % 1026,1 hPa 0,0 l/m 2,6 km/h (1 Bft) S 180 1 min 0,000 mm 0,0 UV-I 16 W/m 2,0 C 2,3 C 3,2 km/h (1 Bft) 100,00 %
13.11.2015 07:23 2,3 C 98 % 1026,0 hPa 0,0 l/m 1,8 km/h (1 Bft) S 182 0 min 0,000 mm 0,0 UV-I 14 W/m 2,0 C 2,3 C 3,2 km/h (1 Bft) 100,00 %
13.11.2015 07:24 2,3 C 98 % 1026,0 hPa 0,0 l/m 2,4 km/h (1 Bft) S 190 0 min 0,000 mm 0,0 UV-I 13 W/m 2,0 C 2,3 C 3,2 km/h (1 Bft) 100,00 %
13.11.2015 07:25 2,3 C 98 % 1026,1 hPa 0,0 l/m 1,6 km/h (1 Bft) S-SW 195 0 min 0,000 mm 0,0 UV-I 12 W/m 2,0 C 2,3 C 3,2 km/h (1 Bft) 100,00 %
13.11.2015 07:26 2,3 C 98 % 1026,1 hPa 0,0 l/m 2,4 km/h (1 Bft) S-SW 202 0 min 0,000 mm 0,0 UV-I 11 W/m 2,0 C 2,3 C 4,8 km/h (1 Bft) 95,83 %
13.11.2015 07:27 2,3 C 98 % 1026,1 hPa 0,0 l/m 2,2 km/h (1 Bft) S-SW 196 0 min 0,000 mm 0,0 UV-I 11 W/m 2,0 C 2,3 C 3,2 km/h (1 Bft) 100,00 %
13.11.2015 07:28 2,3 C 98 % 1026,1 hPa 0,0 l/m 2,3 km/h (1 Bft) SW 219 0 min 0,000 mm 0,0 UV-I 12 W/m 2,0 C 2,3 C 3,2 km/h (1 Bft) 100,00 %
13.11.2015 07:29 2,3 C 98 % 1026,2 hPa 0,0 l/m 1,8 km/h (1 Bft) SW 219 0 min 0,000 mm 0,0 UV-I 13 W/m 2,0 C 2,3 C 3,2 km/h (1 Bft) 92,86 %
13.11.2015 07:30 2,3 C 98 % 1026,2 hPa 0,0 l/m 2,4 km/h (1 Bft) SW 217 0 min 0,000 mm 0,0 UV-I 14 W/m 2,0 C 2,3 C 4,8 km/h (1 Bft) 91,67 %
13.11.2015 07:31 2,3 C 98 % 1026,2 hPa 0,0 l/m 3,0 km/h (1 Bft) SW 221 0 min 0,000 mm 0,0 UV-I 14 W/m 2,0 C 2,3 C 4,8 km/h (1 Bft) 100,00 %
13.11.2015 07:32 2,3 C 98 % 1026,3 hPa 0,0 l/m 3,8 km/h (1 Bft) SW 223 0 min 0,000 mm 0,0 UV-I 12 W/m 2,0 C 2,3 C 4,8 km/h (1 Bft) 95,83 %
13.11.2015 07:33 2,3 C 98 % 1026,3 hPa 0,0 l/m 3,6 km/h (1 Bft) SW 223 0 min 0,000 mm 0,0 UV-I 12 W/m 2,0 C 2,3 C 4,8 km/h (1 Bft) 95,65 %
13.11.2015 07:34 2,3 C 98 % 1026,3 hPa 0,0 l/m 2,4 km/h (1 Bft) S-SW 202 0 min 0,000 mm 0,0 UV-I 13 W/m 2,0 C 2,3 C 3,2 km/h (1 Bft) 100,00 %
13.11.2015 07:35 2,3 C 98 % 1026,2 hPa 0,0 l/m 0,2 km/h (0 Bft) S-SW 202 0 min 0,000 mm 0,0 UV-I 15 W/m 2,0 C 2,3 C 1,6 km/h (1 Bft) 100,00 %
13.11.2015 07:36 2,3 C 98 % 1026,3 hPa 0,0 l/m 0,4 km/h (0 Bft) S-SW 202 0 min 0,000 mm 0,0 UV-I 16 W/m 2,0 C 2,3 C 1,6 km/h (1 Bft) 100,00 %
13.11.2015 07:37 2,3 C 98 % 1026,3 hPa 0,0 l/m 0,4 km/h (0 Bft) S-SW 202 0 min 0,000 mm 0,0 UV-I 18 W/m 2,0 C 2,3 C 1,6 km/h (1 Bft) 100,00 %
13.11.2015 07:38 2,3 C 98 % 1026,3 hPa 0,0 l/m 0,8 km/h (0 Bft) S-SW 211 0 min 0,000 mm 0,0 UV-I 18 W/m 2,0 C 2,3 C 1,6 km/h (1 Bft) 100,00 %
13.11.2015 07:39 2,3 C 98 % 1026,3 hPa 0,0 l/m 0,5 km/h (0 Bft) S-SW 211 0 min 0,000 mm 0,0 UV-I 19 W/m 2,0 C 2,3 C 1,6 km/h (1 Bft) 100,00 %
13.11.2015 07:40 2,3 C 98 % 1026,3 hPa 0,0 l/m 0,4 km/h (0 Bft) S-SW 211 0 min 0,000 mm 0,0 UV-I 22 W/m 2,0 C 2,3 C 1,6 km/h (1 Bft) 100,00 %
13.11.2015 07:41 2,3 C 98 % 1026,3 hPa 0,0 l/m 0,8 km/h (0 Bft) S-SW 211 0 min 0,000 mm 0,0 UV-I 24 W/m 2,0 C 2,3 C 1,6 km/h (1 Bft) 100,00 %
13.11.2015 07:42 2,3 C 98 % 1026,3 hPa 0,0 l/m 2,5 km/h (1 Bft) SW 221 0 min 0,000 mm 0,0 UV-I 26 W/m 2,0 C 2,3 C 4,8 km/h (1 Bft) 96,15 %
13.11.2015 07:43 2,3 C 98 % 1026,4 hPa 0,0 l/m 1,1 km/h (1 Bft) SW 221 0 min 0,000 mm 0,0 UV-I 28 W/m 2,0 C 2,3 C 1,6 km/h (1 Bft) 100,00 %
13.11.2015 07:44 2,4 C 98 % 1026,4 hPa 0,0 l/m 0,1 km/h (0 Bft) SW 221 0 min 0,000 mm 0,0 UV-I 30 W/m 2,1 C 2,4 C 1,6 km/h (1 Bft) 100,00 %
13.11.2015 07:45 2,4 C 98 % 1026,4 hPa 0,0 l/m 1,5 km/h (1 Bft) S-SW 201 0 min 0,000 mm 0,0 UV-I 33 W/m 2,1 C 2,4 C 6,4 km/h (2 Bft) 100,00 %
13.11.2015 07:46 2,4 C 98 % 1026,4 hPa 0,0 l/m 3,5 km/h (1 Bft) S 183 0 min 0,000 mm 0,0 UV-I 37 W/m 2,1 C 2,4 C 4,8 km/h (1 Bft) 100,00 %
13.11.2015 07:47 2,4 C 98 % 1026,4 hPa 0,0 l/m 2,2 km/h (1 Bft) S-SW 198 0 min 0,000 mm 0,0 UV-I 39 W/m 2,1 C 2,4 C 3,2 km/h (1 Bft) 100,00 %
13.11.2015 07:48 2,4 C 98 % 1026,4 hPa 0,0 l/m 2,0 km/h (1 Bft) S-SW 192 0 min 0,000 mm 0,0 UV-I 39 W/m 2,1 C 2,4 C 3,2 km/h (1 Bft) 100,00 %
13.11.2015 07:49 2,4 C 98 % 1026,4 hPa 0,0 l/m 1,7 km/h (1 Bft) S 184 0 min 0,000 mm 0,0 UV-I 34 W/m 2,1 C 2,4 C 3,2 km/h (1 Bft) 100,00 %
13.11.2015 07:50 2,4 C 98 % 1026,4 hPa 0,0 l/m 1,0 km/h (0 Bft) S-SW 198 0 min 0,000 mm 0,0 UV-I 30 W/m 2,1 C 2,4 C 3,2 km/h (1 Bft) 100,00 %
13.11.2015 07:51 2,4 C 98 % 1026,4 hPa 0,0 l/m 2,1 km/h (1 Bft) S-SW 207 0 min 0,000 mm 0,0 UV-I 30 W/m 2,1 C 2,4 C 3,2 km/h (1 Bft) 100,00 %
13.11.2015 07:52 2,4 C 98 % 1026,4 hPa 0,0 l/m 0,7 km/h (0 Bft) S-SW 209 0 min 0,000 mm 0,0 UV-I 32 W/m 2,1 C 2,4 C 1,6 km/h (1 Bft) 100,00 %
13.11.2015 07:53 2,4 C 98 % 1026,4 hPa 0,0 l/m 1,0 km/h (0 Bft) W-SW 242 0 min 0,000 mm 0,0 UV-I 34 W/m 2,1 C 2,4 C 1,6 km/h (1 Bft) 95,83 %
13.11.2015 07:54 2,5 C 98 % 1026,5 hPa 0,0 l/m 3,1 km/h (1 Bft) S-SW 213 0 min 0,000 mm 0,0 UV-I 42 W/m 2,2 C 2,5 C 4,8 km/h (1 Bft) 99,14 %
13.11.2015 07:55 2,4 C 98 % 1026,4 hPa 0,0 l/m 3,6 km/h (1 Bft) SW 218 0 min 0,000 mm 0,0 UV-I 51 W/m 2,1 C 2,4 C 6,4 km/h (2 Bft) 100,00 %
13.11.2015 07:56 2,4 C 98 % 1026,4 hPa 0,0 l/m 2,5 km/h (1 Bft) SW 218 0 min 0,000 mm 0,0 UV-I 55 W/m 2,1 C 2,4 C 4,8 km/h (1 Bft) 100,00 %
13.11.2015 07:57 2,4 C 98 % 1026,4 hPa 0,0 l/m 2,2 km/h (1 Bft) S-SW 205 0 min 0,000 mm 0,0 UV-I 61 W/m 2,1 C 2,4 C 3,2 km/h (1 Bft) 100,00 %
13.11.2015 07:58 2,4 C 98 % 1026,4 hPa 0,0 l/m 2,3 km/h (1 Bft) S-SW 205 0 min 0,000 mm 0,0 UV-I 62 W/m 2,1 C 2,4 C 3,2 km/h (1 Bft) 96,15 %
13.11.2015 07:59 2,3 C 98 % 1026,4 hPa 0,0 l/m 0,7 km/h (0 Bft) S-SW 205 0 min 0,000 mm 0,0 UV-I 60 W/m 2,0 C 2,3 C 1,6 km/h (1 Bft) 100,00 %
13.11.2015 08:00 2,4 C 98 % 1026,4 hPa 0,0 l/m 2,3 km/h (1 Bft) S-SW 192 0 min 0,000 mm 0,0 UV-I 61 W/m 2,1 C 2,4 C 3,2 km/h (1 Bft) 95,83 %
13.11.2015 08:01 2,4 C 98 % 1026,4 hPa 0,0 l/m 1,5 km/h (1 Bft) S-SW 192 0 min 0,000 mm 0,0 UV-I 66 W/m 2,1 C 2,4 C 3,2 km/h (1 Bft) 96,15 %
13.11.2015 08:02 2,3 C 98 % 1026,5 hPa 0,0 l/m 1,0 km/h (0 Bft) S-SW 192 0 min 0,000 mm 0,0 UV-I 63 W/m 2,0 C 2,3 C 1,6 km/h (1 Bft) 100,00 %
13.11.2015 08:03 2,4 C 98 % 1026,5 hPa 0,0 l/m 2,5 km/h (1 Bft) S 191 1 min 0,000 mm 0,0 UV-I 71 W/m 2,1 C 2,4 C 3,2 km/h (1 Bft) 100,00 %
13.11.2015 08:04 2,4 C 98 % 1026,5 hPa 0,0 l/m 2,1 km/h (1 Bft) S-SW 209 0 min 0,000 mm 0,0 UV-I 69 W/m 2,1 C 2,4 C 3,2 km/h (1 Bft) 100,00 %
13.11.2015 08:05 2,4 C 98 % 1026,6 hPa 0,0 l/m 1,6 km/h (1 Bft) SW 234 0 min 0,000 mm 0,0 UV-I 51 W/m 2,1 C 2,4 C 3,2 km/h (1 Bft) 100,00 %
13.11.2015 08:06 2,5 C 98 % 1026,6 hPa 0,0 l/m 1,9 km/h (1 Bft) W 270 0 min 0,000 mm 0,0 UV-I 46 W/m 2,2 C 2,5 C 3,2 km/h (1 Bft) 100,00 %
13.11.2015 08:07 2,5 C 98 % 1026,7 hPa 0,0 l/m 1,5 km/h (1 Bft) W 277 0 min 0,000 mm 0,0 UV-I 47 W/m 2,2 C 2,5 C 3,2 km/h (1 Bft) 100,00 %
13.11.2015 08:08 2,5 C 98 % 1026,7 hPa 0,0 l/m 1,9 km/h (1 Bft) S-SW 204 0 min 0,000 mm 0,0 UV-I 47 W/m 2,2 C 2,5 C 4,8 km/h (1 Bft) 100,00 %
13.11.2015 08:09 2,5 C 98 % 1026,6 hPa 0,0 l/m 3,1 km/h (1 Bft) S-SW 209 0 min 0,000 mm 0,0 UV-I 48 W/m 2,2 C 2,5 C 4,8 km/h (1 Bft) 96,15 %
13.11.2015 08:10 2,5 C 98 % 1026,7 hPa 0,0 l/m 3,2 km/h (1 Bft) SW 219 0 min 0,000 mm 0,0 UV-I 52 W/m 2,2 C 2,5 C 4,8 km/h (1 Bft) 100,00 %
13.11.2015 08:11 2,5 C 98 % 1026,7 hPa 0,0 l/m 3,4 km/h (1 Bft) SW 217 0 min 0,000 mm 0,0 UV-I 64 W/m 2,2 C 2,5 C 4,8 km/h (1 Bft) 100,00 %
13.11.2015 08:12 2,4 C 98 % 1026,7 hPa 0,0 l/m 3,6 km/h (1 Bft) SW 223 0 min 0,000 mm 0,0 UV-I 64 W/m 2,1 C 2,4 C 4,8 km/h (1 Bft) 100,00 %
13.11.2015 08:13 2,4 C 98 % 1026,7 hPa 0,0 l/m 2,3 km/h (1 Bft) SW 223 0 min 0,000 mm 0,0 UV-I 52 W/m 2,1 C 2,4 C 3,2 km/h (1 Bft) 100,00 %
13.11.2015 08:14 2,4 C 98 % 1026,7 hPa 0,0 l/m 1,8 km/h (1 Bft) W-SW 243 0 min 0,000 mm 0,0 UV-I 44 W/m 2,1 C 2,4 C 3,2 km/h (1 Bft) 100,00 %
13.11.2015 08:15 2,4 C 98 % 1026,7 hPa 0,0 l/m 2,7 km/h (1 Bft) SW 219 0 min 0,000 mm 0,0 UV-I 47 W/m 2,1 C 2,4 C 4,8 km/h (1 Bft) 100,00 %
13.11.2015 08:16 2,4 C 98 % 1026,7 hPa 0,0 l/m 1,8 km/h (1 Bft) SW 219 0 min 0,000 mm 0,0 UV-I 50 W/m 2,1 C 2,4 C 3,2 km/h (1 Bft) 100,00 %
13.11.2015 08:17 2,4 C 98 % 1026,7 hPa 0,0 l/m 3,5 km/h (1 Bft) W-SW 238 0 min 0,000 mm 0,0 UV-I 48 W/m 2,1 C 2,4 C 6,4 km/h (2 Bft) 100,00 %
13.11.2015 08:18 2,4 C 98 % 1026,7 hPa 0,0 l/m 2,7 km/h (1 Bft) S-SW 202 0 min 0,000 mm 0,0 UV-I 48 W/m 2,1 C 2,4 C 4,8 km/h (1 Bft) 100,00 %
13.11.2015 08:19 2,5 C 98 % 1026,9 hPa 0,0 l/m 1,4 km/h (1 Bft) W-SW 256 0 min 0,000 mm 0,0 UV-I 49 W/m 2,2 C 2,5 C 3,2 km/h (1 Bft) 100,00 %
13.11.2015 08:20 2,6 C 98 % 1026,9 hPa 0,0 l/m 4,4 km/h (1 Bft) S-SW 211 0 min 0,000 mm 0,0 UV-I 59 W/m 2,3 C 2,6 C 6,4 km/h (2 Bft) 100,00 %
13.11.2015 08:21 2,6 C 98 % 1027,0 hPa 0,0 l/m 4,2 km/h (1 Bft) S-SW 213 0 min 0,000 mm 0,0 UV-I 66 W/m 2,3 C 2,6 C 6,4 km/h (2 Bft) 100,00 %
13.11.2015 08:22 2,6 C 98 % 1027,0 hPa 0,0 l/m 3,3 km/h (1 Bft) SW 228 0 min 0,000 mm 0,0 UV-I 70 W/m 2,3 C 2,6 C 4,8 km/h (1 Bft) 100,00 %
13.11.2015 08:23 2,6 C 98 % 1027,0 hPa 0,0 l/m 3,5 km/h (1 Bft) W-SW 240 0 min 0,000 mm 0,0 UV-I 70 W/m 2,3 C 2,6 C 4,8 km/h (1 Bft) 100,00 %
13.11.2015 08:24 2,7 C 98 % 1027,0 hPa 0,0 l/m 2,7 km/h (1 Bft) S-SW 213 0 min 0,000 mm 0,0 UV-I 72 W/m 2,4 C 2,7 C 4,8 km/h (1 Bft) 100,00 %
13.11.2015 08:25 2,7 C 98 % 1027,0 hPa 0,0 l/m 4,3 km/h (1 Bft) SW 215 0 min 0,000 mm 0,0 UV-I 74 W/m 2,4 C 2,7 C 8,0 km/h (2 Bft) 100,00 %
13.11.2015 08:26 2,7 C 98 % 1027,0 hPa 0,0 l/m 3,0 km/h (1 Bft) SW 232 0 min 0,000 mm 0,0 UV-I 78 W/m 2,4 C 2,7 C 4,8 km/h (1 Bft) 100,00 %
13.11.2015 08:27 2,7 C 98 % 1027,0 hPa 0,0 l/m 3,4 km/h (1 Bft) W-SW 246 0 min 0,000 mm 0,0 UV-I 83 W/m 2,4 C 2,7 C 6,4 km/h (2 Bft) 100,00 %
13.11.2015 08:28 2,7 C 98 % 1027,0 hPa 0,0 l/m 4,6 km/h (1 Bft) W 265 0 min 0,000 mm 0,0 UV-I 76 W/m 2,4 C 2,7 C 6,4 km/h (2 Bft) 96,15 %
13.11.2015 08:29 2,8 C 98 % 1026,9 hPa 0,0 l/m 1,4 km/h (1 Bft) W-SW 254 0 min 0,000 mm 0,0 UV-I 75 W/m 2,5 C 2,8 C 3,2 km/h (1 Bft) 100,00 %
13.11.2015 08:30 2,8 C 98 % 1026,8 hPa 0,0 l/m 1,9 km/h (1 Bft) W 268 0 min 0,000 mm 0,0 UV-I 70 W/m 2,5 C 2,8 C 3,2 km/h (1 Bft) 100,00 %
13.11.2015 08:31 2,8 C 98 % 1026,8 hPa 0,0 l/m 1,9 km/h (1 Bft) S-SW 196 0 min 0,000 mm 0,0 UV-I 72 W/m 2,5 C 2,8 C 3,2 km/h (1 Bft) 100,00 %
13.11.2015 08:32 2,8 C 98 % 1026,9 hPa 0,0 l/m 2,9 km/h (1 Bft) W-SW 240 0 min 0,000 mm 0,0 UV-I 77 W/m 2,5 C 2,8 C 4,8 km/h (1 Bft) 100,00 %
13.11.2015 08:33 2,9 C 98 % 1026,9 hPa 0,0 l/m 3,4 km/h (1 Bft) W-SW 238 0 min 0,000 mm 0,0 UV-I 80 W/m 2,6 C 2,9 C 4,8 km/h (1 Bft) 95,83 %
13.11.2015 08:34 2,8 C 98 % 1026,9 hPa 0,0 l/m 3,0 km/h (1 Bft) W 279 0 min 0,000 mm 0,0 UV-I 82 W/m 2,5 C 2,8 C 4,8 km/h (1 Bft) 100,00 %
13.11.2015 08:35 2,8 C 98 % 1026,9 hPa 0,0 l/m 2,1 km/h (1 Bft) W 279 0 min 0,000 mm 0,0 UV-I 80 W/m 2,5 C 2,8 C 3,2 km/h (1 Bft) 100,00 %
13.11.2015 08:36 2,9 C 98 % 1026,9 hPa 0,0 l/m 1,3 km/h (1 Bft) W-SW 251 0 min 0,000 mm 0,0 UV-I 77 W/m 2,6 C 2,9 C 3,2 km/h (1 Bft) 100,00 %
13.11.2015 08:37 2,9 C 98 % 1026,9 hPa 0,0 l/m 3,3 km/h (1 Bft) SW 219 0 min 0,000 mm 0,0 UV-I 77 W/m 2,6 C 2,9 C 4,8 km/h (1 Bft) 95,83 %
13.11.2015 08:38 2,9 C 98 % 1026,9 hPa 0,0 l/m 1,7 km/h (1 Bft) SW 229 0 min 0,000 mm 0,0 UV-I 80 W/m 2,6 C 2,9 C 3,2 km/h (1 Bft) 100,00 %
13.11.2015 08:39 2,9 C 98 % 1026,8 hPa 0,0 l/m 1,7 km/h (1 Bft) SW 227 0 min 0,000 mm 0,0 UV-I 74 W/m 2,6 C 2,9 C 3,2 km/h (1 Bft) 100,00 %
13.11.2015 08:40 2,9 C 98 % 1026,8 hPa 0,0 l/m 1,7 km/h (1 Bft) SW 217 0 min 0,000 mm 0,0 UV-I 72 W/m 2,6 C 2,9 C 3,2 km/h (1 Bft) 100,00 %
13.11.2015 08:41 3,0 C 98 % 1026,8 hPa 0,0 l/m 0,3 km/h (0 Bft) SW 217 0 min 0,000 mm 0,0 UV-I 75 W/m 2,7 C 3,0 C 1,6 km/h (1 Bft) 95,83 %
13.11.2015 08:42 3,0 C 98 % 1026,8 hPa 0,0 l/m 0,5 km/h (0 Bft) S-SW 213 0 min 0,000 mm 0,0 UV-I 80 W/m 2,7 C 3,0 C 1,6 km/h (1 Bft) 100,00 %
13.11.2015 08:43 3,1 C 98 % 1026,9 hPa 0,0 l/m 0,6 km/h (0 Bft) S-SW 213 0 min 0,000 mm 0,0 UV-I 83 W/m 2,8 C 3,1 C 1,6 km/h (1 Bft) 100,00 %
13.11.2015 08:44 3,1 C 98 % 1026,9 hPa 0,0 l/m 0,4 km/h (0 Bft) S-SW 213 0 min 0,000 mm 0,0 UV-I 84 W/m 2,8 C 3,1 C 1,6 km/h (1 Bft) 100,00 %
13.11.2015 08:45 3,1 C 98 % 1026,8 hPa 0,0 l/m 0,7 km/h (0 Bft) S-SW 213 0 min 0,000 mm 0,0 UV-I 85 W/m 2,8 C 3,1 C 1,6 km/h (1 Bft) 100,00 %
13.11.2015 08:46 3,1 C 98 % 1026,9 hPa 0,0 l/m 2,5 km/h (1 Bft) S-SW 213 0 min 0,000 mm 0,0 UV-I 81 W/m 2,8 C 3,1 C 4,8 km/h (1 Bft) 100,00 %
13.11.2015 08:47 2,9 C 98 % 1026,9 hPa 0,0 l/m 1,7 km/h (1 Bft) SW 225 0 min 0,000 mm 0,0 UV-I 80 W/m 2,6 C 2,9 C 3,2 km/h (1 Bft) 100,00 %
13.11.2015 08:48 3,0 C 98 % 1026,9 hPa 0,0 l/m 2,7 km/h (1 Bft) SW 227 0 min 0,000 mm 0,0 UV-I 81 W/m 2,7 C 3,0 C 4,8 km/h (1 Bft) 100,00 %
13.11.2015 08:49 3,0 C 98 % 1026,9 hPa 0,0 l/m 2,4 km/h (1 Bft) SW 224 0 min 0,000 mm 0,0 UV-I 83 W/m 2,7 C 3,0 C 3,2 km/h (1 Bft) 100,00 %
13.11.2015 08:50 3,0 C 98 % 1026,9 hPa 0,0 l/m 1,3 km/h (1 Bft) SW 224 0 min 0,000 mm 0,0 UV-I 80 W/m 2,7 C 3,0 C 3,2 km/h (1 Bft) 100,00 %
13.11.2015 08:51 3,1 C 98 % 1026,9 hPa 0,0 l/m 2,3 km/h (1 Bft) SW 236 0 min 0,000 mm 0,0 UV-I 78 W/m 2,8 C 3,1 C 4,8 km/h (1 Bft) 92,86 %
13.11.2015 08:52 3,1 C 98 % 1027,0 hPa 0,0 l/m 3,2 km/h (1 Bft) SW 227 0 min 0,000 mm 0,0 UV-I 77 W/m 2,8 C 3,1 C 4,8 km/h (1 Bft) 100,00 %
13.11.2015 08:53 3,1 C 98 % 1027,0 hPa 0,0 l/m 3,0 km/h (1 Bft) SW 215 0 min 0,000 mm 0,0 UV-I 78 W/m 2,8 C 3,1 C 3,2 km/h (1 Bft) 100,00 %
13.11.2015 08:54 3,2 C 98 % 1027,1 hPa 0,0 l/m 4,4 km/h (1 Bft) SW 236 0 min 0,000 mm 0,0 UV-I 76 W/m 2,9 C 3,2 C 8,0 km/h (2 Bft) 95,83 %
13.11.2015 08:55 3,2 C 98 % 1027,1 hPa 0,0 l/m 4,6 km/h (1 Bft) S-SW 207 0 min 0,000 mm 0,0 UV-I 74 W/m 2,9 C 3,2 C 6,4 km/h (2 Bft) 100,00 %
13.11.2015 08:56 3,1 C 98 % 1027,2 hPa 0,0 l/m 5,4 km/h (1 Bft) SW 223 0 min 0,000 mm 0,0 UV-I 76 W/m 2,8 C 3,1 C 8,0 km/h (2 Bft) 100,00 %
13.11.2015 08:57 3,1 C 98 % 1027,2 hPa 0,0 l/m 4,1 km/h (1 Bft) SW 234 0 min 0,000 mm 0,0 UV-I 78 W/m 2,8 C 3,1 C 6,4 km/h (2 Bft) 100,00 %
13.11.2015 08:58 3,1 C 98 % 1027,2 hPa 0,0 l/m 2,9 km/h (1 Bft) W 276 0 min 0,000 mm 0,0 UV-I 82 W/m 2,8 C 3,1 C 4,8 km/h (1 Bft) 100,00 %
13.11.2015 08:59 3,1 C 98 % 1027,2 hPa 0,0 l/m 1,3 km/h (1 Bft) W 267 0 min 0,000 mm 0,0 UV-I 80 W/m 2,8 C 3,1 C 3,2 km/h (1 Bft) 100,00 %
13.11.2015 09:00 3,2 C 98 % 1027,2 hPa 0,0 l/m 2,5 km/h (1 Bft) SW 225 0 min 0,025 mm 0,0 UV-I 77 W/m 2,9 C 3,2 C 3,2 km/h (1 Bft) 95,65 %
13.11.2015 09:01 3,2 C 98 % 1027,2 hPa 0,0 l/m 1,9 km/h (1 Bft) W 274 0 min 0,000 mm 0,0 UV-I 76 W/m 2,9 C 3,2 C 3,2 km/h (1 Bft) 100,00 %
13.11.2015 09:02 3,2 C 98 % 1027,2 hPa 0,0 l/m 3,2 km/h (1 Bft) W-SW 252 0 min 0,000 mm 0,0 UV-I 73 W/m 2,9 C 3,2 C 4,8 km/h (1 Bft) 100,00 %
13.11.2015 09:03 3,3 C 98 % 1027,3 hPa 0,0 l/m 2,1 km/h (1 Bft) W 262 0 min 0,000 mm 0,0 UV-I 74 W/m 3,0 C 3,3 C 3,2 km/h (1 Bft) 91,67 %
13.11.2015 09:04 3,3 C 98 % 1027,3 hPa 0,0 l/m 1,7 km/h (1 Bft) W-NW 296 0 min 0,000 mm 0,0 UV-I 74 W/m 3,0 C 3,3 C 3,2 km/h (1 Bft) 93,10 %
13.11.2015 09:05 3,3 C 98 % 1027,2 hPa 0,0 l/m 4,0 km/h (1 Bft) W 279 0 min 0,000 mm 0,0 UV-I 76 W/m 3,0 C 3,3 C 4,8 km/h (1 Bft) 100,00 %
13.11.2015 09:06 3,3 C 98 % 1027,3 hPa 0,0 l/m 3,0 km/h (1 Bft) W-NW 290 0 min 0,000 mm 0,0 UV-I 75 W/m 3,0 C 3,3 C 4,8 km/h (1 Bft) 95,65 %
13.11.2015 09:07 3,3 C 98 % 1027,2 hPa 0,0 l/m 3,3 km/h (1 Bft) SW 217 0 min 0,000 mm 0,0 UV-I 69 W/m 3,0 C 3,3 C 4,8 km/h (1 Bft) 100,00 %
13.11.2015 09:08 3,3 C 98 % 1027,2 hPa 0,0 l/m 3,0 km/h (1 Bft) W-SW 240 0 min 0,000 mm 0,0 UV-I 69 W/m 3,0 C 3,3 C 4,8 km/h (1 Bft) 95,65 %
13.11.2015 09:09 3,3 C 98 % 1027,2 hPa 0,0 l/m 2,4 km/h (1 Bft) S-SW 200 0 min 0,000 mm 0,0 UV-I 71 W/m 3,0 C 3,3 C 3,2 km/h (1 Bft) 100,00 %
13.11.2015 09:10 3,4 C 98 % 1027,1 hPa 0,0 l/m 1,4 km/h (1 Bft) S 183 0 min 0,000 mm 0,0 UV-I 77 W/m 3,1 C 3,4 C 3,2 km/h (1 Bft) 96,15 %
13.11.2015 09:11 3,4 C 98 % 1027,0 hPa 0,0 l/m 3,2 km/h (1 Bft) W-SW 242 0 min 0,000 mm 0,0 UV-I 81 W/m 3,1 C 3,4 C 4,8 km/h (1 Bft) 100,00 %
13.11.2015 09:12 3,4 C 98 % 1027,0 hPa 0,0 l/m 1,9 km/h (1 Bft) SW 235 0 min 0,000 mm 0,0 UV-I 79 W/m 3,1 C 3,4 C 3,2 km/h (1 Bft) 100,00 %
13.11.2015 09:13 3,4 C 98 % 1027,1 hPa 0,0 l/m 2,3 km/h (1 Bft) SW 229 0 min 0,000 mm 0,0 UV-I 82 W/m 3,1 C 3,4 C 3,2 km/h (1 Bft) 100,00 %
13.11.2015 09:14 3,4 C 98 % 1027,2 hPa 0,0 l/m 2,4 km/h (1 Bft) S-SW 209 0 min 0,000 mm 0,0 UV-I 88 W/m 3,1 C 3,4 C 4,8 km/h (1 Bft) 100,00 %
13.11.2015 09:15 3,4 C 98 % 1027,2 hPa 0,0 l/m 1,4 km/h (1 Bft) S 190 0 min 0,000 mm 0,0 UV-I 91 W/m 3,1 C 3,4 C 3,2 km/h (1 Bft) 100,00 %
13.11.2015 09:16 3,4 C 98 % 1027,3 hPa 0,0 l/m 2,6 km/h (1 Bft) W-SW 241 0 min 0,000 mm 0,0 UV-I 90 W/m 3,1 C 3,4 C 4,8 km/h (1 Bft) 96,15 %
13.11.2015 09:17 3,5 C 98 % 1027,3 hPa 0,0 l/m 2,5 km/h (1 Bft) SW 217 0 min 0,000 mm 0,0 UV-I 88 W/m 3,2 C 3,5 C 4,8 km/h (1 Bft) 100,00 %
13.11.2015 09:18 3,5 C 98 % 1027,2 hPa 0,0 l/m 4,3 km/h (1 Bft) SW 229 0 min 0,000 mm 0,0 UV-I 95 W/m 3,2 C 3,5 C 6,4 km/h (2 Bft) 100,00 %
13.11.2015 09:19 3,5 C 98 % 1027,2 hPa 0,0 l/m 3,8 km/h (1 Bft) S-SW 199 0 min 0,000 mm 0,0 UV-I 96 W/m 3,2 C 3,5 C 6,4 km/h (2 Bft) 96,15 %
13.11.2015 09:20 3,5 C 98 % 1027,2 hPa 0,0 l/m 2,9 km/h (1 Bft) W-SW 255 0 min 0,000 mm 0,0 UV-I 99 W/m 3,2 C 3,5 C 3,2 km/h (1 Bft) 100,00 %
13.11.2015 09:21 3,5 C 98 % 1027,2 hPa 0,0 l/m 1,2 km/h (1 Bft) W 277 0 min 0,000 mm 0,0 UV-I 100 W/m 3,2 C 3,5 C 3,2 km/h (1 Bft) 100,00 %
13.11.2015 09:22 3,6 C 98 % 1027,2 hPa 0,0 l/m 2,4 km/h (1 Bft) W 267 0 min 0,000 mm 0,0 UV-I 105 W/m 3,3 C 3,6 C 3,2 km/h (1 Bft) 100,00 %
13.11.2015 09:23 3,7 C 98 % 1027,2 hPa 0,0 l/m 2,0 km/h (1 Bft) SW 229 0 min 0,000 mm 0,0 UV-I 110 W/m 3,4 C 3,7 C 3,2 km/h (1 Bft) 100,00 %
13.11.2015 09:24 3,7 C 98 % 1027,3 hPa 0,0 l/m 3,4 km/h (1 Bft) S-SW 209 0 min 0,000 mm 0,0 UV-I 117 W/m 3,4 C 3,7 C 4,8 km/h (1 Bft) 100,00 %
13.11.2015 09:25 3,6 C 98 % 1027,3 hPa 0,0 l/m 2,9 km/h (1 Bft) SW 236 0 min 0,000 mm 0,0 UV-I 119 W/m 3,3 C 3,6 C 4,8 km/h (1 Bft) 100,00 %
13.11.2015 09:26 3,6 C 98 % 1027,3 hPa 0,0 l/m 2,5 km/h (1 Bft) SW 222 0 min 0,000 mm 0,0 UV-I 107 W/m 3,3 C 3,6 C 3,2 km/h (1 Bft) 100,00 %
13.11.2015 09:27 3,6 C 98 % 1027,3 hPa 0,0 l/m 2,3 km/h (1 Bft) W-SW 256 0 min 0,000 mm 0,0 UV-I 108 W/m 3,3 C 3,6 C 4,8 km/h (1 Bft) 100,00 %
13.11.2015 09:28 3,7 C 98 % 1027,3 hPa 0,0 l/m 2,5 km/h (1 Bft) SW 236 0 min 0,000 mm 0,0 UV-I 112 W/m 3,4 C 3,7 C 4,8 km/h (1 Bft) 95,83 %
13.11.2015 09:29 3,7 C 98 % 1027,3 hPa 0,0 l/m 1,5 km/h (1 Bft) SW 218 0 min 0,000 mm 0,0 UV-I 106 W/m 3,4 C 3,7 C 3,2 km/h (1 Bft) 100,00 %
13.11.2015 09:30 3,7 C 98 % 1027,3 hPa 0,0 l/m 1,3 km/h (1 Bft) S 182 0 min 0,000 mm 0,0 UV-I 103 W/m 3,4 C 3,7 C 3,2 km/h (1 Bft) 95,83 %
13.11.2015 09:31 3,7 C 98 % 1027,3 hPa 0,0 l/m 1,8 km/h (1 Bft) S-SW 192 0 min 0,000 mm 0,0 UV-I 99 W/m 3,4 C 3,7 C 4,8 km/h (1 Bft) 100,00 %
13.11.2015 09:32 3,7 C 98 % 1027,3 hPa 0,0 l/m 1,7 km/h (1 Bft) S-SW 205 0 min 0,000 mm 0,0 UV-I 99 W/m 3,4 C 3,7 C 3,2 km/h (1 Bft) 100,00 %
13.11.2015 09:33 3,7 C 98 % 1027,3 hPa 0,0 l/m 1,8 km/h (1 Bft) S-SW 205 0 min 0,000 mm 0,0 UV-I 103 W/m 3,4 C 3,7 C 3,2 km/h (1 Bft) 100,00 %
13.11.2015 09:34 3,8 C 98 % 1027,3 hPa 0,0 l/m 1,3 km/h (1 Bft) SW 236 0 min 0,000 mm 0,0 UV-I 105 W/m 3,5 C 3,8 C 3,2 km/h (1 Bft) 100,00 %
13.11.2015 09:35 3,8 C 98 % 1027,3 hPa 0,0 l/m 3,8 km/h (1 Bft) S-SW 213 0 min 0,000 mm 0,0 UV-I 110 W/m 3,5 C 3,8 C 6,4 km/h (2 Bft) 100,00 %
13.11.2015 09:36 3,8 C 98 % 1027,3 hPa 0,0 l/m 3,3 km/h (1 Bft) S-SW 213 0 min 0,000 mm 0,0 UV-I 109 W/m 3,5 C 3,8 C 4,8 km/h (1 Bft) 100,00 %
13.11.2015 09:37 3,8 C 98 % 1027,3 hPa 0,0 l/m 4,2 km/h (1 Bft) SW 224 0 min 0,000 mm 0,0 UV-I 103 W/m 3,5 C 3,8 C 4,8 km/h (1 Bft) 100,00 %
13.11.2015 09:38 3,8 C 98 % 1027,3 hPa 0,0 l/m 2,9 km/h (1 Bft) SW 218 0 min 0,000 mm 0,0 UV-I 111 W/m 3,5 C 3,8 C 4,8 km/h (1 Bft) 100,00 %
13.11.2015 09:39 3,7 C 98 % 1027,3 hPa 0,0 l/m 2,3 km/h (1 Bft) SW 228 0 min 0,000 mm 0,0 UV-I 122 W/m 3,4 C 3,7 C 4,8 km/h (1 Bft) 100,00 %
13.11.2015 09:40 3,8 C 98 % 1027,3 hPa 0,0 l/m 1,4 km/h (1 Bft) SW 229 0 min 0,000 mm 0,0 UV-I 118 W/m 3,5 C 3,8 C 3,2 km/h (1 Bft) 100,00 %
13.11.2015 09:41 3,8 C 98 % 1027,3 hPa 0,0 l/m 1,4 km/h (1 Bft) SW 229 0 min 0,000 mm 0,0 UV-I 106 W/m 3,5 C 3,8 C 3,2 km/h (1 Bft) 100,00 %
13.11.2015 09:42 3,8 C 98 % 1027,3 hPa 0,0 l/m 2,6 km/h (1 Bft) SW 236 0 min 0,000 mm 0,0 UV-I 111 W/m 3,5 C 3,8 C 3,2 km/h (1 Bft) 100,00 %
13.11.2015 09:43 3,8 C 98 % 1027,3 hPa 0,0 l/m 0,4 km/h (0 Bft) SW 236 0 min 0,000 mm 0,0 UV-I 113 W/m 3,5 C 3,8 C 1,6 km/h (1 Bft) 100,00 %
13.11.2015 09:44 3,9 C 98 % 1027,5 hPa 0,0 l/m 2,0 km/h (1 Bft) SW 225 0 min 0,000 mm 0,0 UV-I 112 W/m 3,6 C 3,9 C 3,2 km/h (1 Bft) 96,15 %
13.11.2015 09:45 4,0 C 98 % 1027,5 hPa 0,0 l/m 2,6 km/h (1 Bft) SW 220 0 min 0,000 mm 0,0 UV-I 107 W/m 3,7 C 4,0 C 3,2 km/h (1 Bft) 96,30 %
13.11.2015 09:46 4,1 C 98 % 1027,5 hPa 0,0 l/m 2,2 km/h (1 Bft) W 266 0 min 0,000 mm 0,0 UV-I 99 W/m 3,8 C 4,1 C 3,2 km/h (1 Bft) 100,00 %
13.11.2015 09:47 4,1 C 98 % 1027,5 hPa 0,0 l/m 0,7 km/h (0 Bft) W 266 0 min 0,000 mm 0,0 UV-I 100 W/m 3,8 C 4,1 C 1,6 km/h (1 Bft) 100,00 %
13.11.2015 09:48 4,2 C 98 % 1027,5 hPa 0,0 l/m 2,8 km/h (1 Bft) SW 216 0 min 0,000 mm 0,0 UV-I 104 W/m 3,9 C 4,2 C 4,8 km/h (1 Bft) 100,00 %
13.11.2015 09:49 4,1 C 98 % 1027,5 hPa 0,0 l/m 5,1 km/h (1 Bft) SW 219 0 min 0,000 mm 0,0 UV-I 107 W/m 3,8 C 4,1 C 6,4 km/h (2 Bft) 100,00 %
13.11.2015 09:50 4,1 C 98 % 1027,5 hPa 0,0 l/m 4,1 km/h (1 Bft) S-SW 213 0 min 0,000 mm 0,0 UV-I 111 W/m 3,8 C 4,1 C 4,8 km/h (1 Bft) 100,00 %
13.11.2015 09:51 4,1 C 98 % 1027,5 hPa 0,0 l/m 1,8 km/h (1 Bft) S-SW 211 0 min 0,000 mm 0,0 UV-I 116 W/m 3,8 C 4,1 C 3,2 km/h (1 Bft) 100,00 %
13.11.2015 09:52 4,1 C 98 % 1027,5 hPa 0,0 l/m 2,4 km/h (1 Bft) W-SW 238 0 min 0,000 mm 0,0 UV-I 126 W/m 3,8 C 4,1 C 3,2 km/h (1 Bft) 96,55 %
13.11.2015 09:53 4,1 C 98 % 1027,5 hPa 0,0 l/m 2,5 km/h (1 Bft) SW 230 0 min 0,000 mm 0,0 UV-I 134 W/m 3,8 C 4,1 C 4,8 km/h (1 Bft) 91,67 %
13.11.2015 09:54 4,1 C 98 % 1027,5 hPa 0,0 l/m 3,3 km/h (1 Bft) W-SW 238 0 min 0,000 mm 0,0 UV-I 127 W/m 3,8 C 4,1 C 4,8 km/h (1 Bft) 95,65 %
13.11.2015 09:55 4,1 C 98 % 1027,5 hPa 0,0 l/m 4,1 km/h (1 Bft) SW 224 0 min 0,000 mm 0,0 UV-I 122 W/m 3,8 C 4,1 C 4,8 km/h (1 Bft) 100,00 %
13.11.2015 09:56 4,1 C 98 % 1027,5 hPa 0,0 l/m 1,4 km/h (1 Bft) SW 224 0 min 0,000 mm 0,2 UV-I 127 W/m 3,8 C 4,1 C 3,2 km/h (1 Bft) 100,00 %
13.11.2015 09:57 4,2 C 98 % 1027,5 hPa 0,0 l/m 0,5 km/h (0 Bft) SW 227 0 min 0,000 mm 0,5 UV-I 145 W/m 3,9 C 4,2 C 1,6 km/h (1 Bft) 100,00 %
13.11.2015 09:58 4,2 C 98 % 1027,5 hPa 0,0 l/m 1,1 km/h (1 Bft) SW 227 0 min 0,000 mm 0,5 UV-I 155 W/m 3,9 C 4,2 C 1,6 km/h (1 Bft) 100,00 %
13.11.2015 09:59 4,3 C 98 % 1027,5 hPa 0,0 l/m 4,7 km/h (1 Bft) S-SW 213 0 min 0,000 mm 0,5 UV-I 144 W/m 4,0 C 4,3 C 6,4 km/h (2 Bft) 100,00 %
13.11.2015 10:00 4,3 C 99 % 1027,5 hPa 0,0 l/m 2,6 km/h (1 Bft) S-SW 210 0 min 0,051 mm 0,5 UV-I 140 W/m 4,2 C 4,3 C 6,4 km/h (2 Bft) 91,30 %
13.11.2015 10:01 4,3 C 99 % 1027,5 hPa 0,0 l/m 3,3 km/h (1 Bft) SW 234 0 min 0,000 mm 0,5 UV-I 130 W/m 4,2 C 4,3 C 6,4 km/h (2 Bft) 100,00 %
13.11.2015 10:02 4,3 C 99 % 1027,5 hPa 0,0 l/m 4,3 km/h (1 Bft) SW 215 0 min 0,000 mm 0,5 UV-I 128 W/m 4,2 C 4,3 C 6,4 km/h (2 Bft) 100,00 %
13.11.2015 10:03 4,3 C 99 % 1027,5 hPa 0,0 l/m 3,9 km/h (1 Bft) SW 229 0 min 0,000 mm 0,5 UV-I 133 W/m 4,2 C 4,3 C 4,8 km/h (1 Bft) 96,15 %
13.11.2015 10:04 4,3 C 99 % 1027,6 hPa 0,0 l/m 2,7 km/h (1 Bft) SW 221 0 min 0,000 mm 0,6 UV-I 147 W/m 4,2 C 4,3 C 4,8 km/h (1 Bft) 100,00 %
13.11.2015 10:05 4,3 C 99 % 1027,6 hPa 0,0 l/m 3,0 km/h (1 Bft) W-SW 252 0 min 0,000 mm 0,5 UV-I 160 W/m 4,2 C 4,3 C 4,8 km/h (1 Bft) 100,00 %
13.11.2015 10:06 4,4 C 99 % 1027,6 hPa 0,0 l/m 1,4 km/h (1 Bft) W-SW 240 0 min 0,000 mm 0,5 UV-I 142 W/m 4,3 C 4,4 C 3,2 km/h (1 Bft) 100,00 %
13.11.2015 10:07 4,5 C 99 % 1027,6 hPa 0,0 l/m 1,3 km/h (1 Bft) W-SW 240 0 min 0,000 mm 0,5 UV-I 129 W/m 4,4 C 4,5 C 3,2 km/h (1 Bft) 100,00 %
13.11.2015 10:08 4,6 C 98 % 1027,6 hPa 0,0 l/m 0,5 km/h (0 Bft) W-SW 240 0 min 0,000 mm 0,3 UV-I 115 W/m 4,3 C 4,6 C 1,6 km/h (1 Bft) 100,00 %
13.11.2015 10:09 4,6 C 98 % 1027,6 hPa 0,0 l/m 0,6 km/h (0 Bft) W-SW 240 0 min 0,000 mm 0,0 UV-I 109 W/m 4,3 C 4,6 C 1,6 km/h (1 Bft) 100,00 %
13.11.2015 10:10 4,6 C 99 % 1027,6 hPa 0,0 l/m 1,5 km/h (1 Bft) SW 215 0 min 0,000 mm 0,0 UV-I 107 W/m 4,5 C 4,6 C 3,2 km/h (1 Bft) 100,00 %
13.11.2015 10:11 4,6 C 99 % 1027,6 hPa 0,0 l/m 2,7 km/h (1 Bft) SW 215 0 min 0,000 mm 0,0 UV-I 107 W/m 4,5 C 4,6 C 4,8 km/h (1 Bft) 100,00 %
13.11.2015 10:12 4,6 C 99 % 1027,6 hPa 0,0 l/m 2,3 km/h (1 Bft) SW 215 0 min 0,000 mm 0,0 UV-I 109 W/m 4,5 C 4,6 C 4,8 km/h (1 Bft) 100,00 %
13.11.2015 10:13 4,6 C 99 % 1027,6 hPa 0,0 l/m 1,8 km/h (1 Bft) SW 215 0 min 0,000 mm 0,2 UV-I 107 W/m 4,5 C 4,6 C 3,2 km/h (1 Bft) 100,00 %
13.11.2015 10:14 4,6 C 99 % 1027,6 hPa 0,0 l/m 1,8 km/h (1 Bft) S-SW 202 0 min 0,000 mm 0,5 UV-I 105 W/m 4,5 C 4,6 C 3,2 km/h (1 Bft) 95,83 %
13.11.2015 10:15 4,6 C 99 % 1027,6 hPa 0,0 l/m 2,4 km/h (1 Bft) SW 224 0 min 0,000 mm 0,5 UV-I 114 W/m 4,5 C 4,6 C 3,2 km/h (1 Bft) 100,00 %
13.11.2015 10:16 4,6 C 98 % 1027,6 hPa 0,0 l/m 3,6 km/h (1 Bft) SW 218 0 min 0,000 mm 0,5 UV-I 132 W/m 4,3 C 4,6 C 4,8 km/h (1 Bft) 100,00 %
13.11.2015 10:17 4,6 C 98 % 1027,5 hPa 0,0 l/m 2,5 km/h (1 Bft) SW 219 0 min 0,000 mm 0,5 UV-I 138 W/m 4,3 C 4,6 C 3,2 km/h (1 Bft) 100,00 %
13.11.2015 10:18 4,6 C 98 % 1027,6 hPa 0,0 l/m 0,7 km/h (0 Bft) W 264 0 min 0,000 mm 0,5 UV-I 142 W/m 4,3 C 4,6 C 1,6 km/h (1 Bft) 100,00 %
13.11.2015 10:19 4,7 C 99 % 1027,6 hPa 0,0 l/m 1,9 km/h (1 Bft) SW 232 0 min 0,000 mm 0,5 UV-I 139 W/m 4,6 C 4,7 C 3,2 km/h (1 Bft) 91,67 %
13.11.2015 10:20 4,7 C 99 % 1027,5 hPa 0,0 l/m 0,1 km/h (0 Bft) SW 232 0 min 0,000 mm 0,5 UV-I 126 W/m 4,6 C 4,7 C 1,6 km/h (1 Bft) 96,15 %
13.11.2015 10:21 4,6 C 99 % 1027,5 hPa 0,0 l/m 0,1 km/h (0 Bft) SW 232 0 min 0,000 mm 0,5 UV-I 113 W/m 4,5 C 4,6 C 1,6 km/h (1 Bft) 100,00 %
13.11.2015 10:22 4,6 C 99 % 1027,5 hPa 0,0 l/m 0,0 km/h (0 Bft) SW 232 0 min 0,000 mm 0,5 UV-I 101 W/m 4,5 C 4,6 C 0,0 km/h (0 Bft) 91,30 %
13.11.2015 10:23 4,7 C 99 % 1027,5 hPa 0,0 l/m 0,0 km/h (0 Bft) SW 232 0 min 0,000 mm 0,5 UV-I 99 W/m 4,6 C 4,7 C 0,0 km/h (0 Bft) 100,00 %
13.11.2015 10:24 4,8 C 99 % 1027,4 hPa 0,0 l/m 0,4 km/h (0 Bft) SW 232 0 min 0,000 mm 0,5 UV-I 107 W/m 4,7 C 4,8 C 1,6 km/h (1 Bft) 100,00 %
13.11.2015 10:25 4,8 C 98 % 1027,4 hPa 0,0 l/m 1,9 km/h (1 Bft) W 270 0 min 0,000 mm 0,5 UV-I 117 W/m 4,5 C 4,8 C 3,2 km/h (1 Bft) 100,00 %
13.11.2015 10:26 4,8 C 98 % 1027,4 hPa 0,0 l/m 1,2 km/h (1 Bft) W 271 0 min 0,000 mm 0,5 UV-I 130 W/m 4,5 C 4,8 C 3,2 km/h (1 Bft) 100,00 %
13.11.2015 10:27 4,7 C 99 % 1027,5 hPa 0,0 l/m 0,3 km/h (0 Bft) W 271 0 min 0,000 mm 0,6 UV-I 134 W/m 4,6 C 4,7 C 1,6 km/h (1 Bft) 100,00 %
13.11.2015 10:28 4,7 C 99 % 1027,5 hPa 0,0 l/m 0,9 km/h (0 Bft) W 269 0 min 0,000 mm 0,5 UV-I 128 W/m 4,6 C 4,7 C 1,6 km/h (1 Bft) 100,00 %
13.11.2015 10:29 4,7 C 99 % 1027,5 hPa 0,0 l/m 1,4 km/h (1 Bft) W 269 0 min 0,000 mm 0,6 UV-I 134 W/m 4,6 C 4,7 C 3,2 km/h (1 Bft) 100,00 %
13.11.2015 10:30 4,7 C 99 % 1027,5 hPa 0,0 l/m 0,1 km/h (0 Bft) W 269 0 min 0,000 mm 0,6 UV-I 141 W/m 4,6 C 4,7 C 1,6 km/h (1 Bft) 99,10 %
13.11.2015 10:31 4,7 C 99 % 1027,5 hPa 0,0 l/m 0,0 km/h (0 Bft) W 269 0 min 0,000 mm 0,6 UV-I 143 W/m 4,6 C 4,7 C 0,0 km/h (0 Bft) 100,00 %
13.11.2015 10:32 4,7 C 99 % 1027,5 hPa 0,0 l/m 0,3 km/h (0 Bft) W-SW 244 0 min 0,000 mm 0,6 UV-I 141 W/m 4,6 C 4,7 C 1,6 km/h (1 Bft) 100,00 %
13.11.2015 10:33 4,7 C 99 % 1027,5 hPa 0,0 l/m 1,7 km/h (1 Bft) S-SO 155 0 min 0,000 mm 0,6 UV-I 139 W/m 4,6 C 4,7 C 3,2 km/h (1 Bft) 100,00 %
13.11.2015 10:34 4,8 C 98 % 1027,5 hPa 0,0 l/m 2,5 km/h (1 Bft) SO 142 0 min 0,000 mm 0,6 UV-I 139 W/m 4,5 C 4,8 C 3,2 km/h (1 Bft) 100,00 %
13.11.2015 10:35 4,8 C 98 % 1027,5 hPa 0,0 l/m 1,9 km/h (1 Bft) S-SO 151 0 min 0,000 mm 0,6 UV-I 149 W/m 4,5 C 4,8 C 3,2 km/h (1 Bft) 100,00 %
13.11.2015 10:36 4,8 C 98 % 1027,6 hPa 0,0 l/m 2,1 km/h (1 Bft) S-SO 152 0 min 0,000 mm 0,6 UV-I 159 W/m 4,5 C 4,8 C 3,2 km/h (1 Bft) 100,00 %
13.11.2015 10:37 4,8 C 98 % 1027,5 hPa 0,0 l/m 0,6 km/h (0 Bft) S-SO 152 0 min 0,000 mm 0,6 UV-I 161 W/m 4,5 C 4,8 C 1,6 km/h (1 Bft) 100,00 %
13.11.2015 10:38 4,9 C 98 % 1027,5 hPa 0,0 l/m 2,2 km/h (1 Bft) SW 229 0 min 0,000 mm 0,6 UV-I 155 W/m 4,6 C 4,9 C 4,8 km/h (1 Bft) 100,00 %
13.11.2015 10:39 4,9 C 99 % 1027,6 hPa 0,0 l/m 2,7 km/h (1 Bft) W-SW 240 0 min 0,000 mm 0,6 UV-I 160 W/m 4,8 C 4,9 C 4,8 km/h (1 Bft) 100,00 %
13.11.2015 10:40 4,9 C 99 % 1027,6 hPa 0,0 l/m 3,1 km/h (1 Bft) S-SW 194 0 min 0,000 mm 0,6 UV-I 155 W/m 4,8 C 4,9 C 4,8 km/h (1 Bft) 100,00 %
13.11.2015 10:41 4,9 C 99 % 1027,5 hPa 0,0 l/m 4,6 km/h (1 Bft) S-SO 157 0 min 0,000 mm 0,6 UV-I 156 W/m 4,8 C 4,9 C 8,0 km/h (2 Bft) 100,00 %
13.11.2015 10:42 4,9 C 99 % 1027,4 hPa 0,0 l/m 3,4 km/h (1 Bft) S-SW 192 0 min 0,000 mm 0,7 UV-I 154 W/m 4,8 C 4,9 C 4,8 km/h (1 Bft) 100,00 %
13.11.2015 10:43 4,9 C 98 % 1027,4 hPa 0,0 l/m 1,4 km/h (1 Bft) S-SW 192 0 min 0,000 mm 0,7 UV-I 142 W/m 4,6 C 4,9 C 3,2 km/h (1 Bft) 100,00 %
13.11.2015 10:44 4,9 C 99 % 1027,5 hPa 0,0 l/m 0,8 km/h (0 Bft) S-SW 193 0 min 0,000 mm 0,6 UV-I 137 W/m 4,8 C 4,9 C 1,6 km/h (1 Bft) 92,59 %
13.11.2015 10:45 5,0 C 99 % 1027,4 hPa 0,0 l/m 1,7 km/h (1 Bft) S-SW 196 0 min 0,000 mm 0,6 UV-I 130 W/m 4,9 C 5,0 C 3,2 km/h (1 Bft) 100,00 %
13.11.2015 10:46 5,0 C 99 % 1027,4 hPa 0,0 l/m 2,1 km/h (1 Bft) S-SW 198 0 min 0,000 mm 0,6 UV-I 144 W/m 4,9 C 5,0 C 3,2 km/h (1 Bft) 100,00 %
13.11.2015 10:47 4,9 C 99 % 1027,4 hPa 0,0 l/m 1,9 km/h (1 Bft) S-SW 199 0 min 0,000 mm 0,6 UV-I 149 W/m 4,8 C 4,9 C 3,2 km/h (1 Bft) 100,00 %
13.11.2015 10:48 4,9 C 99 % 1027,4 hPa 0,0 l/m 1,1 km/h (1 Bft) S-SW 199 0 min 0,000 mm 0,6 UV-I 132 W/m 4,8 C 4,9 C 3,2 km/h (1 Bft) 100,00 %
13.11.2015 10:49 5,0 C 99 % 1027,5 hPa 0,0 l/m 1,5 km/h (1 Bft) S 175 0 min 0,000 mm 0,6 UV-I 136 W/m 4,9 C 5,0 C 3,2 km/h (1 Bft) 100,00 %
13.11.2015 10:50 5,0 C 99 % 1027,4 hPa 0,0 l/m 2,4 km/h (1 Bft) SW 226 0 min 0,000 mm 0,6 UV-I 152 W/m 4,9 C 5,0 C 4,8 km/h (1 Bft) 100,00 %
13.11.2015 10:51 5,0 C 99 % 1027,5 hPa 0,0 l/m 1,9 km/h (1 Bft) SW 226 0 min 0,000 mm 0,7 UV-I 150 W/m 4,9 C 5,0 C 4,8 km/h (1 Bft) 100,00 %
13.11.2015 10:52 5,2 C 99 % 1027,4 hPa 0,0 l/m 2,2 km/h (1 Bft) SW 217 0 min 0,000 mm 0,7 UV-I 155 W/m 5,1 C 5,2 C 3,2 km/h (1 Bft) 100,00 %
13.11.2015 10:53 5,2 C 98 % 1027,5 hPa 0,0 l/m 3,9 km/h (1 Bft) SW 228 0 min 0,000 mm 0,7 UV-I 173 W/m 4,9 C 5,2 C 6,4 km/h (2 Bft) 95,65 %
13.11.2015 10:54 5,1 C 99 % 1027,5 hPa 0,0 l/m 2,8 km/h (1 Bft) S 175 0 min 0,000 mm 0,7 UV-I 197 W/m 5,0 C 5,1 C 6,4 km/h (2 Bft) 100,00 %
13.11.2015 10:55 5,1 C 98 % 1027,5 hPa 0,0 l/m 2,7 km/h (1 Bft) S 180 0 min 0,000 mm 0,7 UV-I 206 W/m 4,8 C 5,1 C 4,8 km/h (1 Bft) 100,00 %
13.11.2015 10:56 5,1 C 99 % 1027,5 hPa 0,0 l/m 3,1 km/h (1 Bft) SW 217 0 min 0,000 mm 0,7 UV-I 200 W/m 5,0 C 5,1 C 4,8 km/h (1 Bft) 100,00 %
13.11.2015 10:57 5,1 C 99 % 1027,5 hPa 0,0 l/m 3,2 km/h (1 Bft) SW 223 0 min 0,000 mm 0,7 UV-I 180 W/m 5,0 C 5,1 C 4,8 km/h (1 Bft) 100,00 %
13.11.2015 10:58 5,0 C 99 % 1027,5 hPa 0,0 l/m 1,8 km/h (1 Bft) SW 223 0 min 0,000 mm 0,7 UV-I 161 W/m 4,9 C 5,0 C 3,2 km/h (1 Bft) 100,00 %
13.11.2015 10:59 5,0 C 99 % 1027,5 hPa 0,0 l/m 0,8 km/h (0 Bft) SW 223 0 min 0,000 mm 0,6 UV-I 153 W/m 4,9 C 5,0 C 1,6 km/h (1 Bft) 100,00 %
13.11.2015 11:00 5,0 C 99 % 1027,5 hPa 0,0 l/m 2,3 km/h (1 Bft) S-SO 155 0 min 0,051 mm 0,7 UV-I 164 W/m 4,9 C 5,0 C 3,2 km/h (1 Bft) 100,00 %
13.11.2015 11:01 5,1 C 99 % 1027,5 hPa 0,0 l/m 2,1 km/h (1 Bft) S 181 0 min 0,000 mm 0,7 UV-I 181 W/m 5,0 C 5,1 C 3,2 km/h (1 Bft) 100,00 %
13.11.2015 11:02 5,1 C 99 % 1027,5 hPa 0,0 l/m 1,9 km/h (1 Bft) S-SW 205 0 min 0,000 mm 0,7 UV-I 182 W/m 5,0 C 5,1 C 3,2 km/h (1 Bft) 100,00 %
13.11.2015 11:03 5,1 C 98 % 1027,5 hPa 0,0 l/m 2,7 km/h (1 Bft) S-SW 196 0 min 0,000 mm 0,7 UV-I 180 W/m 4,8 C 5,1 C 4,8 km/h (1 Bft) 100,00 %
13.11.2015 11:04 5,1 C 98 % 1027,4 hPa 0,0 l/m 2,5 km/h (1 Bft) S-SW 195 0 min 0,000 mm 0,7 UV-I 184 W/m 4,8 C 5,1 C 4,8 km/h (1 Bft) 100,00 %
13.11.2015 11:05 5,1 C 99 % 1027,4 hPa 0,0 l/m 0,3 km/h (0 Bft) S-SW 195 0 min 0,000 mm 0,7 UV-I 177 W/m 5,0 C 5,1 C 1,6 km/h (1 Bft) 100,00 %
13.11.2015 11:06 5,1 C 98 % 1027,4 hPa 0,0 l/m 1,1 km/h (1 Bft) S-SW 194 0 min 0,000 mm 0,7 UV-I 169 W/m 4,8 C 5,1 C 3,2 km/h (1 Bft) 96,15 %
13.11.2015 11:07 5,2 C 98 % 1027,4 hPa 0,0 l/m 0,8 km/h (0 Bft) S-SW 194 0 min 0,000 mm 0,7 UV-I 162 W/m 4,9 C 5,2 C 1,6 km/h (1 Bft) 100,00 %
13.11.2015 11:08 5,1 C 98 % 1027,3 hPa 0,0 l/m 0,6 km/h (0 Bft) S 188 0 min 0,000 mm 0,7 UV-I 160 W/m 4,8 C 5,1 C 1,6 km/h (1 Bft) 100,00 %
13.11.2015 11:09 5,2 C 98 % 1027,3 hPa 0,0 l/m 0,7 km/h (0 Bft) S 188 0 min 0,000 mm 0,7 UV-I 163 W/m 4,9 C 5,2 C 1,6 km/h (1 Bft) 100,00 %
13.11.2015 11:10 5,2 C 98 % 1027,4 hPa 0,0 l/m 1,0 km/h (0 Bft) S-SO 154 0 min 0,000 mm 0,7 UV-I 168 W/m 4,9 C 5,2 C 3,2 km/h (1 Bft) 100,00 %
13.11.2015 11:11 5,3 C 99 % 1027,4 hPa 0,0 l/m 1,1 km/h (1 Bft) SO 146 0 min 0,000 mm 0,7 UV-I 168 W/m 5,2 C 5,3 C 3,2 km/h (1 Bft) 96,15 %
13.11.2015 11:12 5,3 C 99 % 1027,4 hPa 0,0 l/m 0,2 km/h (0 Bft) SO 146 0 min 0,000 mm 0,7 UV-I 160 W/m 5,2 C 5,3 C 1,6 km/h (1 Bft) 100,00 %
13.11.2015 11:13 5,4 C 98 % 1027,3 hPa 0,0 l/m 0,0 km/h (0 Bft) SO 146 0 min 0,000 mm 0,7 UV-I 150 W/m 5,1 C 5,4 C 0,0 km/h (0 Bft) 100,00 %
13.11.2015 11:14 5,5 C 98 % 1027,4 hPa 0,0 l/m 0,6 km/h (0 Bft) SW 226 0 min 0,000 mm 0,7 UV-I 148 W/m 5,2 C 5,5 C 4,8 km/h (1 Bft) 100,00 %
13.11.2015 11:15 5,4 C 98 % 1027,4 hPa 0,0 l/m 3,2 km/h (1 Bft) S-SW 198 0 min 0,000 mm 0,7 UV-I 148 W/m 5,1 C 5,4 C 4,8 km/h (1 Bft) 95,65 %
13.11.2015 11:16 5,4 C 98 % 1027,4 hPa 0,0 l/m 3,1 km/h (1 Bft) SW 219 0 min 0,000 mm 0,7 UV-I 144 W/m 5,1 C 5,4 C 4,8 km/h (1 Bft) 100,00 %
13.11.2015 11:17 5,4 C 98 % 1027,3 hPa 0,0 l/m 2,7 km/h (1 Bft) SW 234 0 min 0,000 mm 0,7 UV-I 153 W/m 5,1 C 5,4 C 4,8 km/h (1 Bft) 100,00 %
13.11.2015 11:18 5,4 C 98 % 1027,3 hPa 0,0 l/m 2,5 km/h (1 Bft) W-SW 239 0 min 0,000 mm 0,8 UV-I 163 W/m 5,1 C 5,4 C 4,8 km/h (1 Bft) 100,00 %
13.11.2015 11:19 5,4 C 98 % 1027,3 hPa 0,0 l/m 3,4 km/h (1 Bft) SW 231 0 min 0,000 mm 0,8 UV-I 158 W/m 5,1 C 5,4 C 4,8 km/h (1 Bft) 100,00 %
13.11.2015 11:20 5,3 C 98 % 1027,4 hPa 0,0 l/m 2,3 km/h (1 Bft) SW 229 0 min 0,000 mm 0,7 UV-I 154 W/m 5,0 C 5,3 C 3,2 km/h (1 Bft) 100,00 %
13.11.2015 11:21 5,3 C 99 % 1027,3 hPa 0,0 l/m 0,5 km/h (0 Bft) SW 229 0 min 0,000 mm 0,7 UV-I 156 W/m 5,2 C 5,3 C 1,6 km/h (1 Bft) 100,00 %
13.11.2015 11:22 5,3 C 99 % 1027,3 hPa 0,0 l/m 0,9 km/h (0 Bft) SW 229 0 min 0,000 mm 0,7 UV-I 164 W/m 5,2 C 5,3 C 1,6 km/h (1 Bft) 100,00 %
13.11.2015 11:23 5,3 C 99 % 1027,3 hPa 0,0 l/m 0,1 km/h (0 Bft) SW 229 0 min 0,000 mm 0,7 UV-I 164 W/m 5,2 C 5,3 C 1,6 km/h (1 Bft) 96,15 %
13.11.2015 11:24 5,3 C 99 % 1027,2 hPa 0,0 l/m 0,0 km/h (0 Bft) SW 229 0 min 0,000 mm 0,8 UV-I 167 W/m 5,2 C 5,3 C 0,0 km/h (0 Bft) 100,00 %
13.11.2015 11:25 5,4 C 98 % 1027,2 hPa 0,0 l/m 0,0 km/h (0 Bft) SW 229 0 min 0,000 mm 0,8 UV-I 172 W/m 5,1 C 5,4 C 0,0 km/h (0 Bft) 100,00 %
13.11.2015 11:26 5,4 C 98 % 1027,3 hPa 0,0 l/m 0,5 km/h (0 Bft) W 274 0 min 0,000 mm 0,8 UV-I 178 W/m 5,1 C 5,4 C 3,2 km/h (1 Bft) 100,00 %
13.11.2015 11:27 5,4 C 98 % 1027,3 hPa 0,0 l/m 1,3 km/h (1 Bft) W 281 0 min 0,000 mm 0,8 UV-I 178 W/m 5,1 C 5,4 C 3,2 km/h (1 Bft) 95,65 %
13.11.2015 11:28 5,4 C 98 % 1027,3 hPa 0,0 l/m 0,1 km/h (0 Bft) W 281 0 min 0,000 mm 0,8 UV-I 190 W/m 5,1 C 5,4 C 1,6 km/h (1 Bft) 100,00 %
13.11.2015 11:29 5,5 C 98 % 1027,3 hPa 0,0 l/m 0,1 km/h (0 Bft) W 281 0 min 0,000 mm 0,8 UV-I 190 W/m 5,2 C 5,5 C 1,6 km/h (1 Bft) 100,00 %
13.11.2015 11:30 5,6 C 99 % 1027,3 hPa 0,0 l/m 1,2 km/h (1 Bft) N 11 0 min 0,000 mm 0,8 UV-I 203 W/m 5,5 C 5,6 C 3,2 km/h (1 Bft) 100,00 %
13.11.2015 11:31 5,7 C 98 % 1027,3 hPa 0,0 l/m 1,7 km/h (1 Bft) NW 306 0 min 0,000 mm 0,8 UV-I 205 W/m 5,4 C 5,7 C 3,2 km/h (1 Bft) 100,00 %
13.11.2015 11:32 5,7 C 98 % 1027,3 hPa 0,0 l/m 0,3 km/h (0 Bft) NW 306 0 min 0,000 mm 0,8 UV-I 194 W/m 5,4 C 5,7 C 1,6 km/h (1 Bft) 100,00 %
13.11.2015 11:33 5,8 C 98 % 1027,3 hPa 0,0 l/m 0,1 km/h (0 Bft) NW 306 0 min 0,000 mm 0,8 UV-I 202 W/m 5,5 C 5,8 C 1,6 km/h (1 Bft) 100,00 %
13.11.2015 11:34 5,8 C 98 % 1027,3 hPa 0,0 l/m 0,4 km/h (0 Bft) NW 306 0 min 0,000 mm 0,8 UV-I 203 W/m 5,5 C 5,8 C 1,6 km/h (1 Bft) 100,00 %
13.11.2015 11:35 5,8 C 98 % 1027,3 hPa 0,0 l/m 0,0 km/h (0 Bft) NW 306 0 min 0,000 mm 0,8 UV-I 208 W/m 5,5 C 5,8 C 0,0 km/h (0 Bft) 100,00 %
13.11.2015 11:36 5,8 C 98 % 1027,3 hPa 0,0 l/m 1,3 km/h (1 Bft) NW 306 0 min 0,000 mm 0,8 UV-I 209 W/m 5,5 C 5,8 C 3,2 km/h (1 Bft) 100,00 %
13.11.2015 11:37 5,7 C 98 % 1027,2 hPa 0,0 l/m 0,0 km/h (0 Bft) NW 306 0 min 0,000 mm 0,8 UV-I 201 W/m 5,4 C 5,7 C 0,0 km/h (0 Bft) 100,00 %
13.11.2015 11:38 5,7 C 98 % 1027,2 hPa 0,0 l/m 0,0 km/h (0 Bft) NW 306 0 min 0,000 mm 0,8 UV-I 180 W/m 5,4 C 5,7 C 0,0 km/h (0 Bft) 95,65 %
13.11.2015 11:39 5,7 C 98 % 1027,2 hPa 0,0 l/m 0,4 km/h (0 Bft) NW 306 0 min 0,000 mm 0,8 UV-I 167 W/m 5,4 C 5,7 C 1,6 km/h (1 Bft) 100,00 %
13.11.2015 11:40 5,7 C 98 % 1027,1 hPa 0,0 l/m 0,0 km/h (0 Bft) NW 306 0 min 0,000 mm 0,7 UV-I 163 W/m 5,4 C 5,7 C 0,0 km/h (0 Bft) 96,55 %
13.11.2015 11:41 5,8 C 98 % 1027,1 hPa 0,0 l/m 0,1 km/h (0 Bft) NW 306 0 min 0,000 mm 0,8 UV-I 159 W/m 5,5 C 5,8 C 1,6 km/h (1 Bft) 100,00 %
13.11.2015 11:42 5,8 C 98 % 1027,1 hPa 0,0 l/m 1,3 km/h (1 Bft) N 355 0 min 0,000 mm 0,8 UV-I 153 W/m 5,5 C 5,8 C 3,2 km/h (1 Bft) 100,00 %
13.11.2015 11:43 5,8 C 99 % 1027,1 hPa 0,0 l/m 3,0 km/h (1 Bft) N-NW 344 0 min 0,000 mm 0,8 UV-I 155 W/m 5,7 C 5,8 C 3,2 km/h (1 Bft) 100,00 %
13.11.2015 11:44 5,8 C 99 % 1027,1 hPa 0,0 l/m 1,4 km/h (1 Bft) N 355 0 min 0,000 mm 0,8 UV-I 162 W/m 5,7 C 5,8 C 3,2 km/h (1 Bft) 100,00 %
13.11.2015 11:45 5,7 C 98 % 1027,1 hPa 0,0 l/m 2,0 km/h (1 Bft) N 5 0 min 0,000 mm 0,8 UV-I 161 W/m 5,4 C 5,7 C 4,8 km/h (1 Bft) 100,00 %
13.11.2015 11:46 5,7 C 98 % 1027,1 hPa 0,0 l/m 2,8 km/h (1 Bft) N 355 0 min 0,000 mm 0,8 UV-I 154 W/m 5,4 C 5,7 C 3,2 km/h (1 Bft) 100,00 %
13.11.2015 11:47 5,6 C 98 % 1027,1 hPa 0,0 l/m 0,4 km/h (0 Bft) N 355 0 min 0,000 mm 0,8 UV-I 154 W/m 5,3 C 5,6 C 1,6 km/h (1 Bft) 95,83 %
13.11.2015 11:48 5,7 C 99 % 1027,1 hPa 0,0 l/m 0,1 km/h (0 Bft) N 355 0 min 0,000 mm 0,8 UV-I 150 W/m 5,6 C 5,7 C 1,6 km/h (1 Bft) 95,65 %
13.11.2015 11:49 5,7 C 98 % 1027,1 hPa 0,0 l/m 0,4 km/h (0 Bft) N 355 0 min 0,000 mm 0,8 UV-I 150 W/m 5,4 C 5,7 C 1,6 km/h (1 Bft) 100,00 %
13.11.2015 11:50 5,7 C 98 % 1027,1 hPa 0,0 l/m 1,9 km/h (1 Bft) N 11 0 min 0,000 mm 0,9 UV-I 182 W/m 5,4 C 5,7 C 3,2 km/h (1 Bft) 100,00 %
13.11.2015 11:51 5,7 C 99 % 1027,1 hPa 0,0 l/m 1,9 km/h (1 Bft) NW 304 0 min 0,000 mm 0,9 UV-I 205 W/m 5,6 C 5,7 C 3,2 km/h (1 Bft) 100,00 %
13.11.2015 11:52 5,7 C 99 % 1027,1 hPa 0,0 l/m 0,5 km/h (0 Bft) NW 304 0 min 0,000 mm 0,9 UV-I 200 W/m 5,6 C 5,7 C 1,6 km/h (1 Bft) 100,00 %
13.11.2015 11:53 5,7 C 98 % 1027,1 hPa 0,0 l/m 0,8 km/h (0 Bft) NW 304 0 min 0,000 mm 0,9 UV-I 184 W/m 5,4 C 5,7 C 1,6 km/h (1 Bft) 100,00 %
13.11.2015 11:54 5,8 C 98 % 1027,1 hPa 0,0 l/m 1,6 km/h (1 Bft) N 11 0 min 0,000 mm 0,9 UV-I 181 W/m 5,5 C 5,8 C 3,2 km/h (1 Bft) 100,00 %
13.11.2015 11:55 5,8 C 99 % 1027,0 hPa 0,0 l/m 1,9 km/h (1 Bft) NW 309 0 min 0,000 mm 0,9 UV-I 179 W/m 5,7 C 5,8 C 3,2 km/h (1 Bft) 100,00 %
13.11.2015 11:56 5,8 C 98 % 1027,0 hPa 0,0 l/m 1,6 km/h (1 Bft) N 355 0 min 0,000 mm 1,0 UV-I 183 W/m 5,5 C 5,8 C 3,2 km/h (1 Bft) 100,00 %
13.11.2015 11:57 5,8 C 98 % 1027,0 hPa 0,0 l/m 0,9 km/h (0 Bft) N 355 0 min 0,000 mm 1,0 UV-I 203 W/m 5,5 C 5,8 C 1,6 km/h (1 Bft) 100,00 %
13.11.2015 11:58 5,8 C 99 % 1027,0 hPa 0,0 l/m 2,0 km/h (1 Bft) NW 315 0 min 0,000 mm 1,0 UV-I 204 W/m 5,7 C 5,8 C 3,2 km/h (1 Bft) 100,00 %
13.11.2015 11:59 5,8 C 98 % 1027,0 hPa 0,0 l/m 2,1 km/h (1 Bft) W-NW 284 0 min 0,000 mm 1,0 UV-I 194 W/m 5,5 C 5,8 C 3,2 km/h (1 Bft) 100,00 %
13.11.2015 12:00 5,8 C 98 % 1027,0 hPa 0,0 l/m 1,9 km/h (1 Bft) W 275 0 min 0,000 mm 0,9 UV-I 193 W/m 5,5 C 5,8 C 3,2 km/h (1 Bft) 100,00 %
13.11.2015 12:01 5,8 C 98 % 1027,0 hPa 0,0 l/m 1,0 km/h (0 Bft) NW 317 0 min 0,076 mm 0,9 UV-I 190 W/m 5,5 C 5,8 C 3,2 km/h (1 Bft) 100,00 %
13.11.2015 12:02 5,8 C 98 % 1027,0 hPa 0,0 l/m 0,5 km/h (0 Bft) NW 317 0 min 0,000 mm 0,9 UV-I 206 W/m 5,5 C 5,8 C 1,6 km/h (1 Bft) 100,00 %
13.11.2015 12:03 5,8 C 98 % 1027,0 hPa 0,0 l/m 0,2 km/h (0 Bft) NW 317 0 min 0,000 mm 0,9 UV-I 206 W/m 5,5 C 5,8 C 1,6 km/h (1 Bft) 100,00 %
13.11.2015 12:04 5,8 C 98 % 1027,0 hPa 0,0 l/m 0,9 km/h (0 Bft) NW 313 0 min 0,000 mm 0,9 UV-I 204 W/m 5,5 C 5,8 C 1,6 km/h (1 Bft) 100,00 %
13.11.2015 12:05 5,8 C 98 % 1026,9 hPa 0,0 l/m 1,9 km/h (1 Bft) SW 220 0 min 0,000 mm 0,9 UV-I 200 W/m 5,5 C 5,8 C 3,2 km/h (1 Bft) 100,00 %
13.11.2015 12:06 5,8 C 98 % 1026,9 hPa 0,0 l/m 1,9 km/h (1 Bft) SW 220 0 min 0,000 mm 0,9 UV-I 220 W/m 5,5 C 5,8 C 3,2 km/h (1 Bft) 100,00 %
13.11.2015 12:07 5,9 C 99 % 1026,9 hPa 0,0 l/m 3,1 km/h (1 Bft) W-NW 294 1 min 0,000 mm 0,9 UV-I 263 W/m 5,8 C 5,9 C 3,2 km/h (1 Bft) 100,00 %
13.11.2015 12:08 5,9 C 99 % 1026,9 hPa 0,0 l/m 1,0 km/h (0 Bft) W-NW 297 1 min 0,000 mm 0,9 UV-I 231 W/m 5,8 C 5,9 C 3,2 km/h (1 Bft) 100,00 %
13.11.2015 12:09 6,0 C 99 % 1026,9 hPa 0,0 l/m 1,3 km/h (1 Bft) NW 304 1 min 0,000 mm 0,8 UV-I 228 W/m 5,9 C 6,0 C 3,2 km/h (1 Bft) 100,00 %
13.11.2015 12:10 6,1 C 99 % 1026,9 hPa 0,0 l/m 0,8 km/h (0 Bft) NW 304 1 min 0,000 mm 0,8 UV-I 227 W/m 6,0 C 6,1 C 3,2 km/h (1 Bft) 100,00 %
13.11.2015 12:11 6,2 C 99 % 1026,9 hPa 0,0 l/m 1,1 km/h (1 Bft) NW 305 0 min 0,000 mm 0,8 UV-I 208 W/m 6,1 C 6,2 C 1,6 km/h (1 Bft) 100,00 %
13.11.2015 12:12 6,2 C 99 % 1026,8 hPa 0,0 l/m 0,6 km/h (0 Bft) NW 308 0 min 0,000 mm 0,8 UV-I 183 W/m 6,1 C 6,2 C 3,2 km/h (1 Bft) 100,00 %
13.11.2015 12:13 6,2 C 99 % 1026,9 hPa 0,0 l/m 2,4 km/h (1 Bft) NW 326 0 min 0,000 mm 0,9 UV-I 160 W/m 6,1 C 6,2 C 3,2 km/h (1 Bft) 100,00 %
13.11.2015 12:14 6,2 C 99 % 1026,9 hPa 0,0 l/m 2,7 km/h (1 Bft) N 355 0 min 0,000 mm 0,9 UV-I 176 W/m 6,1 C 6,2 C 4,8 km/h (1 Bft) 100,00 %
13.11.2015 12:15 6,1 C 98 % 1026,8 hPa 0,0 l/m 0,4 km/h (0 Bft) N 355 0 min 0,000 mm 0,9 UV-I 207 W/m 5,8 C 6,1 C 1,6 km/h (1 Bft) 100,00 %
13.11.2015 12:16 6,1 C 98 % 1026,8 hPa 0,0 l/m 3,0 km/h (1 Bft) N 355 1 min 0,000 mm 1,0 UV-I 242 W/m 5,8 C 6,1 C 4,8 km/h (1 Bft) 100,00 %
13.11.2015 12:17 6,2 C 98 % 1026,8 hPa 0,0 l/m 1,3 km/h (1 Bft) N 355 1 min 0,000 mm 0,9 UV-I 291 W/m 5,9 C 6,2 C 1,6 km/h (1 Bft) 100,00 %
13.11.2015 12:18 6,2 C 98 % 1026,8 hPa 0,0 l/m 1,9 km/h (1 Bft) N 355 1 min 0,000 mm 0,9 UV-I 285 W/m 5,9 C 6,2 C 3,2 km/h (1 Bft) 100,00 %
13.11.2015 12:19 6,2 C 99 % 1026,8 hPa 0,0 l/m 1,5 km/h (1 Bft) N 5 0 min 0,000 mm 0,8 UV-I 207 W/m 6,1 C 6,2 C 3,2 km/h (1 Bft) 91,67 %
13.11.2015 12:20 6,3 C 99 % 1026,8 hPa 0,0 l/m 0,9 km/h (0 Bft) N 9 0 min 0,000 mm 0,7 UV-I 145 W/m 6,2 C 6,3 C 3,2 km/h (1 Bft) 100,00 %
13.11.2015 12:21 6,4 C 99 % 1026,7 hPa 0,0 l/m 0,5 km/h (0 Bft) N 9 0 min 0,000 mm 0,7 UV-I 122 W/m 6,3 C 6,4 C 1,6 km/h (1 Bft) 100,00 %
13.11.2015 12:22 6,4 C 99 % 1026,8 hPa 0,0 l/m 1,0 km/h (0 Bft) N 5 0 min 0,000 mm 0,7 UV-I 121 W/m 6,3 C 6,4 C 1,6 km/h (1 Bft) 92,86 %
13.11.2015 12:23 6,4 C 99 % 1026,7 hPa 0,0 l/m 0,7 km/h (0 Bft) N 5 0 min 0,000 mm 0,8 UV-I 133 W/m 6,3 C 6,4 C 1,6 km/h (1 Bft) 95,83 %
13.11.2015 12:24 6,4 C 98 % 1026,7 hPa 0,0 l/m 1,0 km/h (0 Bft) N 5 0 min 0,000 mm 0,8 UV-I 139 W/m 6,1 C 6,4 C 3,2 km/h (1 Bft) 95,65 %
13.11.2015 12:25 6,3 C 99 % 1026,8 hPa 0,0 l/m 1,9 km/h (1 Bft) N 5 0 min 0,000 mm 0,8 UV-I 152 W/m 6,2 C 6,3 C 3,2 km/h (1 Bft) 100,00 %
13.11.2015 12:26 6,3 C 99 % 1026,8 hPa 0,0 l/m 1,3 km/h (1 Bft) N 5 0 min 0,000 mm 0,8 UV-I 141 W/m 6,2 C 6,3 C 3,2 km/h (1 Bft) 100,00 %
13.11.2015 12:27 6,3 C 99 % 1026,7 hPa 0,0 l/m 3,2 km/h (1 Bft) N 9 0 min 0,000 mm 0,8 UV-I 124 W/m 6,2 C 6,3 C 4,8 km/h (1 Bft) 100,00 %
13.11.2015 12:28 6,3 C 99 % 1026,7 hPa 0,0 l/m 1,4 km/h (1 Bft) N 11 0 min 0,000 mm 0,8 UV-I 120 W/m 6,2 C 6,3 C 4,8 km/h (1 Bft) 100,00 %
13.11.2015 12:29 6,3 C 99 % 1026,7 hPa 0,0 l/m 1,6 km/h (1 Bft) N 11 0 min 0,000 mm 0,8 UV-I 112 W/m 6,2 C 6,3 C 3,2 km/h (1 Bft) 100,00 %
13.11.2015 12:30 6,3 C 99 % 1026,7 hPa 0,0 l/m 1,0 km/h (0 Bft) N 11 0 min 0,000 mm 0,9 UV-I 115 W/m 6,2 C 6,3 C 1,6 km/h (1 Bft) 95,65 %
13.11.2015 12:31 6,2 C 99 % 1026,7 hPa 0,0 l/m 0,9 km/h (0 Bft) N 355 0 min 0,000 mm 0,9 UV-I 127 W/m 6,1 C 6,2 C 1,6 km/h (1 Bft) 100,00 %
13.11.2015 12:32 6,2 C 99 % 1026,7 hPa 0,0 l/m 0,3 km/h (0 Bft) N 355 0 min 0,000 mm 1,0 UV-I 193 W/m 6,1 C 6,2 C 1,6 km/h (1 Bft) 100,00 %
13.11.2015 12:33 6,3 C 99 % 1026,7 hPa 0,0 l/m 0,7 km/h (0 Bft) N-NW 348 1 min 0,000 mm 1,0 UV-I 267 W/m 6,2 C 6,3 C 1,6 km/h (1 Bft) 100,00 %
13.11.2015 12:34 6,3 C 99 % 1026,7 hPa 0,0 l/m 0,6 km/h (0 Bft) N-NW 345 1 min 0,000 mm 0,9 UV-I 254 W/m 6,2 C 6,3 C 1,6 km/h (1 Bft) 100,00 %
13.11.2015 12:35 6,3 C 99 % 1026,7 hPa 0,0 l/m 0,8 km/h (0 Bft) N-NW 346 0 min 0,000 mm 0,8 UV-I 206 W/m 6,2 C 6,3 C 1,6 km/h (1 Bft) 100,00 %
13.11.2015 12:36 6,3 C 99 % 1026,7 hPa 0,0 l/m 0,8 km/h (0 Bft) NW 326 0 min 0,000 mm 0,8 UV-I 214 W/m 6,2 C 6,3 C 3,2 km/h (1 Bft) 100,00 %
13.11.2015 12:37 6,4 C 98 % 1026,7 hPa 0,0 l/m 0,1 km/h (0 Bft) NW 326 0 min 0,000 mm 0,7 UV-I 135 W/m 6,1 C 6,4 C 1,6 km/h (1 Bft) 100,00 %
13.11.2015 12:38 6,4 C 99 % 1026,7 hPa 0,0 l/m 0,0 km/h (0 Bft) NW 326 0 min 0,000 mm 0,7 UV-I 118 W/m 6,3 C 6,4 C 0,0 km/h (0 Bft) 100,00 %
13.11.2015 12:39 6,4 C 99 % 1026,7 hPa 0,0 l/m 1,1 km/h (1 Bft) NW 326 0 min 0,000 mm 0,7 UV-I 119 W/m 6,3 C 6,4 C 1,6 km/h (1 Bft) 100,00 %
13.11.2015 12:40 6,3 C 99 % 1026,7 hPa 0,0 l/m 0,1 km/h (0 Bft) NW 326 0 min 0,000 mm 0,7 UV-I 140 W/m 6,2 C 6,3 C 1,6 km/h (1 Bft) 100,00 %
13.11.2015 12:41 6,4 C 99 % 1026,7 hPa 0,0 l/m 0,0 km/h (0 Bft) NW 326 0 min 0,000 mm 0,7 UV-I 126 W/m 6,3 C 6,4 C 0,0 km/h (0 Bft) 100,00 %
13.11.2015 12:42 6,4 C 99 % 1026,6 hPa 0,0 l/m 0,1 km/h (0 Bft) NW 326 0 min 0,000 mm 0,7 UV-I 122 W/m 6,3 C 6,4 C 1,6 km/h (1 Bft) 100,00 %
13.11.2015 12:43 6,4 C 99 % 1026,6 hPa 0,0 l/m 1,3 km/h (1 Bft) NW 326 0 min 0,000 mm 0,7 UV-I 113 W/m 6,3 C 6,4 C 1,6 km/h (1 Bft) 100,00 %
13.11.2015 12:44 6,4 C 98 % 1026,6 hPa 0,0 l/m 0,1 km/h (0 Bft) NW 326 0 min 0,000 mm 0,8 UV-I 148 W/m 6,1 C 6,4 C 1,6 km/h (1 Bft) 95,83 %
13.11.2015 12:45 6,5 C 98 % 1026,6 hPa 0,0 l/m 0,0 km/h (0 Bft) NW 326 0 min 0,000 mm 0,8 UV-I 148 W/m 6,2 C 6,5 C 0,0 km/h (0 Bft) 100,00 %
13.11.2015 12:46 6,5 C 99 % 1026,6 hPa 0,0 l/m 0,0 km/h (0 Bft) NW 326 0 min 0,000 mm 0,8 UV-I 145 W/m 6,4 C 6,5 C 0,0 km/h (0 Bft) 100,00 %
13.11.2015 12:47 6,6 C 99 % 1026,5 hPa 0,0 l/m 0,0 km/h (0 Bft) NW 326 0 min 0,000 mm 0,9 UV-I 176 W/m 6,5 C 6,6 C 0,0 km/h (0 Bft) 100,00 %
13.11.2015 12:48 6,6 C 99 % 1026,5 hPa 0,0 l/m 0,1 km/h (0 Bft) NW 326 1 min 0,000 mm 0,9 UV-I 216 W/m 6,5 C 6,6 C 1,6 km/h (1 Bft) 100,00 %
13.11.2015 12:49 6,6 C 99 % 1026,5 hPa 0,0 l/m 1,0 km/h (0 Bft) NW 326 0 min 0,000 mm 0,9 UV-I 164 W/m 6,5 C 6,6 C 1,6 km/h (1 Bft) 96,15 %
13.11.2015 12:50 6,6 C 99 % 1026,6 hPa 0,0 l/m 0,1 km/h (0 Bft) NW 326 0 min 0,000 mm 0,9 UV-I 200 W/m 6,5 C 6,6 C 1,6 km/h (1 Bft) 100,00 %
13.11.2015 12:51 6,7 C 99 % 1026,6 hPa 0,0 l/m 0,0 km/h (0 Bft) NW 326 1 min 0,000 mm 0,9 UV-I 282 W/m 6,6 C 6,7 C 0,0 km/h (0 Bft) 96,67 %
13.11.2015 12:52 6,7 C 99 % 1026,6 hPa 0,0 l/m 0,1 km/h (0 Bft) NW 326 1 min 0,000 mm 1,0 UV-I 333 W/m 6,6 C 6,7 C 1,6 km/h (1 Bft) 100,00 %
13.11.2015 12:53 6,8 C 99 % 1026,6 hPa 0,0 l/m 1,7 km/h (1 Bft) W-NW 297 1 min 0,000 mm 1,0 UV-I 324 W/m 6,7 C 6,8 C 3,2 km/h (1 Bft) 100,00 %
13.11.2015 12:54 6,8 C 99 % 1026,6 hPa 0,0 l/m 3,8 km/h (1 Bft) W-NW 284 1 min 0,000 mm 1,0 UV-I 336 W/m 6,7 C 6,8 C 4,8 km/h (1 Bft) 100,00 %
13.11.2015 12:55 6,8 C 98 % 1026,6 hPa 0,0 l/m 3,1 km/h (1 Bft) W-NW 284 1 min 0,000 mm 1,0 UV-I 352 W/m 6,5 C 6,8 C 4,8 km/h (1 Bft) 100,00 %
13.11.2015 12:56 6,7 C 98 % 1026,6 hPa 0,0 l/m 1,8 km/h (1 Bft) W-NW 284 1 min 0,000 mm 1,0 UV-I 383 W/m 6,4 C 6,7 C 3,2 km/h (1 Bft) 100,00 %
13.11.2015 12:57 6,8 C 98 % 1026,6 hPa 0,0 l/m 0,5 km/h (0 Bft) W 277 1 min 0,000 mm 1,1 UV-I 361 W/m 6,5 C 6,8 C 1,6 km/h (1 Bft) 100,00 %
13.11.2015 12:58 6,8 C 98 % 1026,7 hPa 0,0 l/m 2,6 km/h (1 Bft) W-SW 238 1 min 0,000 mm 0,9 UV-I 373 W/m 6,5 C 6,8 C 3,2 km/h (1 Bft) 100,00 %
13.11.2015 12:59 6,7 C 98 % 1026,6 hPa 0,0 l/m 2,5 km/h (1 Bft) SW 229 1 min 0,000 mm 0,9 UV-I 266 W/m 6,4 C 6,7 C 3,2 km/h (1 Bft) 95,83 %
13.11.2015 13:00 6,7 C 98 % 1026,6 hPa 0,0 l/m 2,7 km/h (1 Bft) S-SW 205 1 min 0,076 mm 0,9 UV-I 235 W/m 6,4 C 6,7 C 4,8 km/h (1 Bft) 100,00 %
13.11.2015 13:01 6,6 C 99 % 1026,6 hPa 0,0 l/m 1,6 km/h (1 Bft) SW 214 1 min 0,000 mm 0,9 UV-I 219 W/m 6,5 C 6,6 C 3,2 km/h (1 Bft) 100,00 %
13.11.2015 13:02 6,6 C 99 % 1026,6 hPa 0,0 l/m 1,2 km/h (1 Bft) SW 214 0 min 0,000 mm 0,9 UV-I 179 W/m 6,5 C 6,6 C 1,6 km/h (1 Bft) 100,00 %
13.11.2015 13:03 6,6 C 99 % 1026,6 hPa 0,0 l/m 0,1 km/h (0 Bft) SW 214 0 min 0,000 mm 0,8 UV-I 121 W/m 6,5 C 6,6 C 1,6 km/h (1 Bft) 95,83 %
13.11.2015 13:04 6,6 C 99 % 1026,5 hPa 0,0 l/m 0,1 km/h (0 Bft) SW 214 0 min 0,000 mm 0,8 UV-I 107 W/m 6,5 C 6,6 C 1,6 km/h (1 Bft) 100,00 %
13.11.2015 13:05 6,7 C 99 % 1026,5 hPa 0,0 l/m 0,4 km/h (0 Bft) SW 214 0 min 0,000 mm 0,8 UV-I 96 W/m 6,6 C 6,7 C 1,6 km/h (1 Bft) 100,00 %
13.11.2015 13:06 6,6 C 98 % 1026,5 hPa 0,0 l/m 0,6 km/h (0 Bft) SW 214 0 min 0,000 mm 0,8 UV-I 99 W/m 6,3 C 6,6 C 1,6 km/h (1 Bft) 100,00 %
13.11.2015 13:07 6,6 C 98 % 1026,5 hPa 0,0 l/m 0,0 km/h (0 Bft) SW 214 0 min 0,000 mm 0,9 UV-I 159 W/m 6,3 C 6,6 C 0,0 km/h (0 Bft) 100,00 %
13.11.2015 13:08 6,6 C 99 % 1026,4 hPa 0,0 l/m 0,0 km/h (0 Bft) SW 214 0 min 0,000 mm 0,9 UV-I 172 W/m 6,5 C 6,6 C 0,0 km/h (0 Bft) 100,00 %
13.11.2015 13:09 6,6 C 99 % 1026,4 hPa 0,0 l/m 0,1 km/h (0 Bft) SW 214 0 min 0,000 mm 0,9 UV-I 106 W/m 6,5 C 6,6 C 1,6 km/h (1 Bft) 100,00 %
13.11.2015 13:10 6,7 C 98 % 1026,4 hPa 0,0 l/m 0,2 km/h (0 Bft) SW 214 0 min 0,000 mm 0,9 UV-I 92 W/m 6,4 C 6,7 C 1,6 km/h (1 Bft) 100,00 %
13.11.2015 13:11 6,7 C 98 % 1026,4 hPa 0,0 l/m 1,3 km/h (1 Bft) W-SW 241 0 min 0,000 mm 1,0 UV-I 114 W/m 6,4 C 6,7 C 1,6 km/h (1 Bft) 100,00 %
13.11.2015 13:12 6,8 C 98 % 1026,4 hPa 0,0 l/m 0,6 km/h (0 Bft) W-SW 248 0 min 0,000 mm 1,0 UV-I 130 W/m 6,5 C 6,8 C 1,6 km/h (1 Bft) 100,00 %
13.11.2015 13:13 6,9 C 99 % 1026,4 hPa 0,0 l/m 0,8 km/h (0 Bft) W-SW 248 1 min 0,000 mm 1,0 UV-I 348 W/m 6,8 C 6,9 C 1,6 km/h (1 Bft) 100,00 %
13.11.2015 13:14 7,0 C 99 % 1026,4 hPa 0,0 l/m 0,1 km/h (0 Bft) W-SW 248 1 min 0,000 mm 1,0 UV-I 350 W/m 6,9 C 7,0 C 1,6 km/h (1 Bft) 95,83 %
13.11.2015 13:15 7,1 C 98 % 1026,4 hPa 0,0 l/m 0,1 km/h (0 Bft) W-SW 248 1 min 0,000 mm 1,0 UV-I 350 W/m 6,8 C 7,1 C 1,6 km/h (1 Bft) 95,65 %
13.11.2015 13:16 7,2 C 99 % 1026,3 hPa 0,0 l/m 0,3 km/h (0 Bft) W-SW 248 1 min 0,000 mm 1,0 UV-I 350 W/m 7,1 C 7,2 C 1,6 km/h (1 Bft) 100,00 %
13.11.2015 13:17 7,1 C 98 % 1026,3 hPa 0,0 l/m 0,2 km/h (0 Bft) W-SW 248 1 min 0,000 mm 0,9 UV-I 294 W/m 6,8 C 7,1 C 1,6 km/h (1 Bft) 100,00 %
13.11.2015 13:18 7,1 C 98 % 1026,3 hPa 0,0 l/m 0,5 km/h (0 Bft) W-SW 254 1 min 0,000 mm 1,0 UV-I 217 W/m 6,8 C 7,1 C 3,2 km/h (1 Bft) 100,00 %
13.11.2015 13:19 7,2 C 98 % 1026,3 hPa 0,0 l/m 1,6 km/h (1 Bft) W-SW 254 1 min 0,000 mm 1,0 UV-I 246 W/m 6,9 C 7,2 C 3,2 km/h (1 Bft) 100,00 %
13.11.2015 13:20 7,2 C 99 % 1026,3 hPa 0,0 l/m 1,0 km/h (0 Bft) W-SW 254 1 min 0,000 mm 1,0 UV-I 373 W/m 7,1 C 7,2 C 1,6 km/h (1 Bft) 96,55 %
13.11.2015 13:21 7,3 C 98 % 1026,4 hPa 0,0 l/m 0,6 km/h (0 Bft) W-SW 256 1 min 0,000 mm 1,0 UV-I 371 W/m 7,0 C 7,3 C 1,6 km/h (1 Bft) 96,15 %
13.11.2015 13:22 7,4 C 98 % 1026,4 hPa 0,0 l/m 0,5 km/h (0 Bft) W 259 1 min 0,000 mm 1,0 UV-I 371 W/m 7,1 C 7,4 C 1,6 km/h (1 Bft) 100,00 %
13.11.2015 13:23 7,5 C 98 % 1026,4 hPa 0,0 l/m 1,4 km/h (1 Bft) W 259 1 min 0,000 mm 0,9 UV-I 245 W/m 7,2 C 7,5 C 3,2 km/h (1 Bft) 100,00 %
13.11.2015 13:24 7,6 C 98 % 1026,3 hPa 0,0 l/m 0,8 km/h (0 Bft) W 259 1 min 0,000 mm 1,0 UV-I 272 W/m 7,3 C 7,6 C 1,6 km/h (1 Bft) 100,00 %
13.11.2015 13:25 7,6 C 98 % 1026,3 hPa 0,0 l/m 0,5 km/h (0 Bft) W 259 1 min 0,000 mm 1,0 UV-I 314 W/m 7,3 C 7,6 C 1,6 km/h (1 Bft) 100,00 %
13.11.2015 13:26 7,5 C 98 % 1026,3 hPa 0,0 l/m 0,5 km/h (0 Bft) W 259 1 min 0,000 mm 0,9 UV-I 294 W/m 7,2 C 7,5 C 1,6 km/h (1 Bft) 100,00 %
13.11.2015 13:27 7,6 C 98 % 1026,4 hPa 0,0 l/m 1,3 km/h (1 Bft) W 259 1 min 0,000 mm 0,9 UV-I 294 W/m 7,3 C 7,6 C 3,2 km/h (1 Bft) 95,65 %
13.11.2015 13:28 7,6 C 97 % 1026,3 hPa 0,0 l/m 1,5 km/h (1 Bft) N 349 1 min 0,000 mm 0,9 UV-I 278 W/m 7,2 C 7,6 C 3,2 km/h (1 Bft) 100,00 %
13.11.2015 13:29 7,7 C 97 % 1026,3 hPa 0,0 l/m 0,9 km/h (0 Bft) N 349 1 min 0,000 mm 0,9 UV-I 208 W/m 7,3 C 7,7 C 3,2 km/h (1 Bft) 96,15 %
13.11.2015 13:30 7,7 C 97 % 1026,3 hPa 0,0 l/m 0,3 km/h (0 Bft) N-NW 339 1 min 0,000 mm 0,9 UV-I 215 W/m 7,3 C 7,7 C 1,6 km/h (1 Bft) 100,00 %
13.11.2015 13:31 7,7 C 96 % 1026,3 hPa 0,0 l/m 1,5 km/h (1 Bft) N 355 1 min 0,000 mm 0,9 UV-I 331 W/m 7,1 C 7,7 C 3,2 km/h (1 Bft) 96,15 %
13.11.2015 13:32 7,8 C 97 % 1026,3 hPa 0,0 l/m 0,9 km/h (0 Bft) N 355 1 min 0,000 mm 0,9 UV-I 336 W/m 7,4 C 7,8 C 1,6 km/h (1 Bft) 100,00 %
13.11.2015 13:33 8,0 C 97 % 1026,3 hPa 0,0 l/m 1,5 km/h (1 Bft) O-NO 78 1 min 0,000 mm 0,9 UV-I 348 W/m 7,6 C 8,0 C 3,2 km/h (1 Bft) 100,00 %
13.11.2015 13:34 7,9 C 96 % 1026,3 hPa 0,0 l/m 1,7 km/h (1 Bft) O-NO 78 1 min 0,000 mm 0,9 UV-I 325 W/m 7,3 C 7,9 C 3,2 km/h (1 Bft) 91,30 %
13.11.2015 13:35 8,0 C 96 % 1026,3 hPa 0,0 l/m 0,1 km/h (0 Bft) O-NO 78 1 min 0,000 mm 0,9 UV-I 328 W/m 7,4 C 8,0 C 1,6 km/h (1 Bft) 100,00 %
13.11.2015 13:36 8,1 C 96 % 1026,3 hPa 0,0 l/m 0,4 km/h (0 Bft) O-NO 78 1 min 0,000 mm 0,9 UV-I 317 W/m 7,5 C 8,1 C 1,6 km/h (1 Bft) 100,00 %
13.11.2015 13:37 8,2 C 96 % 1026,3 hPa 0,0 l/m 0,1 km/h (0 Bft) NO 51 1 min 0,000 mm 0,9 UV-I 320 W/m 7,6 C 8,2 C 1,6 km/h (1 Bft) 100,00 %
13.11.2015 13:38 8,2 C 96 % 1026,3 hPa 0,0 l/m 1,3 km/h (1 Bft) NO 47 1 min 0,000 mm 0,9 UV-I 318 W/m 7,6 C 8,2 C 1,6 km/h (1 Bft) 92,00 %
13.11.2015 13:39 8,3 C 95 % 1026,3 hPa 0,0 l/m 2,8 km/h (1 Bft) N 11 1 min 0,000 mm 0,9 UV-I 320 W/m 7,5 C 8,3 C 4,8 km/h (1 Bft) 100,00 %
13.11.2015 13:40 8,2 C 95 % 1026,3 hPa 0,0 l/m 1,3 km/h (1 Bft) N 11 1 min 0,000 mm 0,9 UV-I 315 W/m 7,4 C 8,2 C 3,2 km/h (1 Bft) 95,65 %
13.11.2015 13:41 8,3 C 95 % 1026,3 hPa 0,0 l/m 2,1 km/h (1 Bft) W-NW 286 1 min 0,000 mm 0,9 UV-I 309 W/m 7,5 C 8,3 C 3,2 km/h (1 Bft) 100,00 %
13.11.2015 13:42 8,2 C 94 % 1026,3 hPa 0,0 l/m 3,3 km/h (1 Bft) W-NW 282 1 min 0,000 mm 0,9 UV-I 302 W/m 7,3 C 8,2 C 4,8 km/h (1 Bft) 100,00 %
13.11.2015 13:43 8,2 C 94 % 1026,3 hPa 0,0 l/m 2,1 km/h (1 Bft) W-NW 282 1 min 0,000 mm 0,9 UV-I 303 W/m 7,3 C 8,2 C 3,2 km/h (1 Bft) 100,00 %
13.11.2015 13:44 8,2 C 94 % 1026,3 hPa 0,0 l/m 0,6 km/h (0 Bft) W-NW 284 1 min 0,000 mm 0,9 UV-I 291 W/m 7,3 C 8,2 C 1,6 km/h (1 Bft) 100,00 %
13.11.2015 13:45 8,3 C 94 % 1026,2 hPa 0,0 l/m 1,2 km/h (1 Bft) W-SW 248 1 min 0,000 mm 0,8 UV-I 282 W/m 7,4 C 8,3 C 3,2 km/h (1 Bft) 100,00 %
13.11.2015 13:46 8,3 C 94 % 1026,1 hPa 0,0 l/m 1,3 km/h (1 Bft) W 262 1 min 0,000 mm 0,8 UV-I 281 W/m 7,4 C 8,3 C 3,2 km/h (1 Bft) 95,65 %
13.11.2015 13:47 8,3 C 94 % 1026,1 hPa 0,0 l/m 2,0 km/h (1 Bft) N-NW 340 1 min 0,000 mm 0,8 UV-I 270 W/m 7,4 C 8,3 C 3,2 km/h (1 Bft) 100,00 %
13.11.2015 13:48 8,3 C 94 % 1026,1 hPa 0,0 l/m 1,9 km/h (1 Bft) N 350 1 min 0,000 mm 0,8 UV-I 235 W/m 7,4 C 8,3 C 3,2 km/h (1 Bft) 100,00 %
13.11.2015 13:49 8,3 C 93 % 1026,0 hPa 0,0 l/m 0,9 km/h (0 Bft) N 355 1 min 0,000 mm 0,8 UV-I 204 W/m 7,2 C 8,3 C 1,6 km/h (1 Bft) 100,00 %
13.11.2015 13:50 8,3 C 94 % 1026,0 hPa 0,0 l/m 0,2 km/h (0 Bft) N 355 0 min 0,000 mm 0,7 UV-I 137 W/m 7,4 C 8,3 C 1,6 km/h (1 Bft) 100,00 %
13.11.2015 13:51 8,4 C 94 % 1026,0 hPa 0,0 l/m 0,4 km/h (0 Bft) N 355 0 min 0,000 mm 0,7 UV-I 74 W/m 7,5 C 8,4 C 1,6 km/h (1 Bft) 100,00 %
13.11.2015 13:52 8,4 C 94 % 1026,0 hPa 0,0 l/m 0,7 km/h (0 Bft) N 355 0 min 0,000 mm 0,6 UV-I 64 W/m 7,5 C 8,4 C 1,6 km/h (1 Bft) 95,65 %
13.11.2015 13:53 8,3 C 93 % 1026,0 hPa 0,0 l/m 0,3 km/h (0 Bft) N 355 0 min 0,000 mm 0,6 UV-I 62 W/m 7,2 C 8,3 C 1,6 km/h (1 Bft) 100,00 %
13.11.2015 13:54 8,3 C 93 % 1026,0 hPa 0,0 l/m 0,5 km/h (0 Bft) N 355 0 min 0,000 mm 0,6 UV-I 63 W/m 7,2 C 8,3 C 1,6 km/h (1 Bft) 100,00 %
13.11.2015 13:55 8,3 C 93 % 1026,0 hPa 0,0 l/m 1,4 km/h (1 Bft) NW 306 0 min 0,000 mm 0,6 UV-I 65 W/m 7,2 C 8,3 C 3,2 km/h (1 Bft) 100,00 %
13.11.2015 13:56 8,3 C 93 % 1026,0 hPa 0,0 l/m 0,2 km/h (0 Bft) NW 306 0 min 0,000 mm 0,6 UV-I 70 W/m 7,2 C 8,3 C 1,6 km/h (1 Bft) 100,00 %
13.11.2015 13:57 8,3 C 93 % 1026,0 hPa 0,0 l/m 0,0 km/h (0 Bft) NW 306 0 min 0,000 mm 0,6 UV-I 97 W/m 7,2 C 8,3 C 0,0 km/h (0 Bft) 100,00 %
13.11.2015 13:58 8,3 C 93 % 1026,0 hPa 0,0 l/m 0,1 km/h (0 Bft) NW 305 0 min 0,000 mm 0,6 UV-I 116 W/m 7,2 C 8,3 C 1,6 km/h (1 Bft) 95,83 %
13.11.2015 13:59 8,3 C 93 % 1026,0 hPa 0,0 l/m 0,2 km/h (0 Bft) NW 305 0 min 0,000 mm 0,6 UV-I 142 W/m 7,2 C 8,3 C 1,6 km/h (1 Bft) 100,00 %
13.11.2015 14:00 8,3 C 93 % 1026,0 hPa 0,0 l/m 0,3 km/h (0 Bft) W 275 1 min 0,102 mm 0,6 UV-I 185 W/m 7,2 C 8,3 C 1,6 km/h (1 Bft) 100,00 %
13.11.2015 14:01 8,3 C 93 % 1026,0 hPa 0,0 l/m 0,5 km/h (0 Bft) W 274 1 min 0,000 mm 0,6 UV-I 219 W/m 7,2 C 8,3 C 1,6 km/h (1 Bft) 95,65 %
13.11.2015 14:02 8,4 C 93 % 1026,0 hPa 0,0 l/m 0,3 km/h (0 Bft) W 274 1 min 0,000 mm 0,6 UV-I 246 W/m 7,3 C 8,4 C 1,6 km/h (1 Bft) 100,00 %
13.11.2015 14:03 8,4 C 93 % 1026,0 hPa 0,0 l/m 0,8 km/h (0 Bft) W 274 1 min 0,000 mm 0,6 UV-I 251 W/m 7,3 C 8,4 C 1,6 km/h (1 Bft) 100,00 %
13.11.2015 14:04 8,4 C 93 % 1026,0 hPa 0,0 l/m 0,5 km/h (0 Bft) W 274 1 min 0,000 mm 0,6 UV-I 254 W/m 7,3 C 8,4 C 1,6 km/h (1 Bft) 100,00 %
13.11.2015 14:05 8,4 C 92 % 1026,0 hPa 0,0 l/m 0,3 km/h (0 Bft) W 274 1 min 0,000 mm 0,6 UV-I 218 W/m 7,2 C 8,4 C 1,6 km/h (1 Bft) 100,00 %
13.11.2015 14:06 8,5 C 93 % 1026,0 hPa 0,0 l/m 0,0 km/h (0 Bft) W 274 1 min 0,000 mm 0,6 UV-I 190 W/m 7,4 C 8,5 C 0,0 km/h (0 Bft) 100,00 %
13.11.2015 14:07 8,6 C 93 % 1026,0 hPa 0,0 l/m 0,0 km/h (0 Bft) W 274 1 min 0,000 mm 0,6 UV-I 164 W/m 7,5 C 8,6 C 0,0 km/h (0 Bft) 100,00 %
13.11.2015 14:08 8,7 C 92 % 1026,0 hPa 0,0 l/m 0,7 km/h (0 Bft) N-NW 334 0 min 0,000 mm 0,6 UV-I 112 W/m 7,5 C 8,7 C 1,6 km/h (1 Bft) 100,00 %
13.11.2015 14:09 8,7 C 92 % 1026,0 hPa 0,0 l/m 1,6 km/h (1 Bft) N-NW 342 0 min 0,000 mm 0,6 UV-I 108 W/m 7,5 C 8,7 C 3,2 km/h (1 Bft) 100,00 %
13.11.2015 14:10 8,7 C 92 % 1026,0 hPa 0,0 l/m 1,8 km/h (1 Bft) NW 309 0 min 0,000 mm 0,5 UV-I 116 W/m 7,5 C 8,7 C 3,2 km/h (1 Bft) 100,00 %
13.11.2015 14:11 8,7 C 91 % 1026,0 hPa 0,0 l/m 1,4 km/h (1 Bft) NW 309 1 min 0,000 mm 0,6 UV-I 165 W/m 7,3 C 8,7 C 3,2 km/h (1 Bft) 97,44 %
13.11.2015 14:12 8,7 C 92 % 1025,9 hPa 0,0 l/m 0,2 km/h (0 Bft) NW 309 1 min 0,000 mm 0,6 UV-I 231 W/m 7,5 C 8,7 C 1,6 km/h (1 Bft) 100,00 %
13.11.2015 14:13 8,7 C 92 % 1025,9 hPa 0,0 l/m 0,1 km/h (0 Bft) NW 309 1 min 0,000 mm 0,6 UV-I 229 W/m 7,5 C 8,7 C 1,6 km/h (1 Bft) 100,00 %
13.11.2015 14:14 8,8 C 91 % 1025,9 hPa 0,0 l/m 1,2 km/h (1 Bft) N-NW 334 1 min 0,000 mm 0,6 UV-I 229 W/m 7,4 C 8,8 C 1,6 km/h (1 Bft) 100,00 %
13.11.2015 14:15 8,8 C 91 % 1025,9 hPa 0,0 l/m 1,7 km/h (1 Bft) N-NW 344 1 min 0,000 mm 0,6 UV-I 249 W/m 7,4 C 8,8 C 3,2 km/h (1 Bft) 95,83 %
13.11.2015 14:16 8,8 C 91 % 1025,9 hPa 0,0 l/m 0,8 km/h (0 Bft) N-NW 344 1 min 0,000 mm 0,5 UV-I 233 W/m 7,4 C 8,8 C 1,6 km/h (1 Bft) 100,00 %
13.11.2015 14:17 8,9 C 90 % 1026,0 hPa 0,0 l/m 0,8 km/h (0 Bft) N-NW 343 0 min 0,000 mm 0,5 UV-I 150 W/m 7,4 C 8,9 C 1,6 km/h (1 Bft) 95,83 %
13.11.2015 14:18 8,9 C 90 % 1025,9 hPa 0,0 l/m 1,9 km/h (1 Bft) N 355 1 min 0,000 mm 0,5 UV-I 164 W/m 7,4 C 8,9 C 3,2 km/h (1 Bft) 100,00 %
13.11.2015 14:19 8,9 C 90 % 1026,0 hPa 0,0 l/m 1,9 km/h (1 Bft) N 11 1 min 0,000 mm 0,5 UV-I 167 W/m 7,4 C 8,9 C 3,2 km/h (1 Bft) 100,00 %
13.11.2015 14:20 8,8 C 90 % 1025,9 hPa 0,0 l/m 0,9 km/h (0 Bft) N 11 1 min 0,000 mm 0,5 UV-I 160 W/m 7,3 C 8,8 C 1,6 km/h (1 Bft) 100,00 %
13.11.2015 14:21 8,8 C 90 % 1025,9 hPa 0,0 l/m 0,8 km/h (0 Bft) N 5 0 min 0,000 mm 0,5 UV-I 133 W/m 7,3 C 8,8 C 1,6 km/h (1 Bft) 100,00 %
13.11.2015 14:22 8,8 C 90 % 1025,9 hPa 0,0 l/m 0,0 km/h (0 Bft) N 5 0 min 0,000 mm 0,5 UV-I 123 W/m 7,3 C 8,8 C 0,0 km/h (0 Bft) 100,00 %
13.11.2015 14:23 8,8 C 90 % 1025,9 hPa 0,0 l/m 0,6 km/h (0 Bft) N 5 0 min 0,000 mm 0,5 UV-I 141 W/m 7,3 C 8,8 C 1,6 km/h (1 Bft) 100,00 %
13.11.2015 14:24 8,8 C 90 % 1025,9 hPa 0,0 l/m 1,4 km/h (1 Bft) N 9 1 min 0,000 mm 0,5 UV-I 197 W/m 7,3 C 8,8 C 3,2 km/h (1 Bft) 100,00 %
13.11.2015 14:25 8,8 C 90 % 1025,9 hPa 0,0 l/m 0,8 km/h (0 Bft) N 9 1 min 0,000 mm 0,5 UV-I 173 W/m 7,3 C 8,8 C 1,6 km/h (1 Bft) 100,00 %
13.11.2015 14:26 8,8 C 90 % 1026,0 hPa 0,0 l/m 0,2 km/h (0 Bft) N 9 1 min 0,000 mm 0,5 UV-I 162 W/m 7,3 C 8,8 C 1,6 km/h (1 Bft) 100,00 %
13.11.2015 14:27 8,8 C 90 % 1026,0 hPa 0,0 l/m 0,0 km/h (0 Bft) N 9 1 min 0,000 mm 0,5 UV-I 164 W/m 7,3 C 8,8 C 0,0 km/h (0 Bft) 100,00 %
13.11.2015 14:28 8,8 C 91 % 1026,0 hPa 0,0 l/m 1,6 km/h (1 Bft) N 9 1 min 0,000 mm 0,5 UV-I 197 W/m 7,4 C 8,8 C 3,2 km/h (1 Bft) 95,65 %
13.11.2015 14:29 8,8 C 90 % 1026,0 hPa 0,0 l/m 0,9 km/h (0 Bft) N 9 1 min 0,000 mm 0,5 UV-I 226 W/m 7,3 C 8,8 C 3,2 km/h (1 Bft) 100,00 %
13.11.2015 14:30 8,8 C 90 % 1026,0 hPa 0,0 l/m 0,1 km/h (0 Bft) N 5 1 min 0,000 mm 0,5 UV-I 245 W/m 7,3 C 8,8 C 1,6 km/h (1 Bft) 100,00 %
13.11.2015 14:31 8,8 C 89 % 1025,9 hPa 0,0 l/m 2,3 km/h (1 Bft) N 355 1 min 0,000 mm 0,5 UV-I 252 W/m 7,1 C 8,8 C 3,2 km/h (1 Bft) 100,00 %
13.11.2015 14:32 8,9 C 90 % 1025,9 hPa 0,0 l/m 2,4 km/h (1 Bft) W-SW 257 1 min 0,000 mm 0,3 UV-I 225 W/m 7,4 C 8,9 C 4,8 km/h (1 Bft) 100,00 %
13.11.2015 14:33 8,9 C 89 % 1025,9 hPa 0,0 l/m 0,3 km/h (0 Bft) W-SW 257 1 min 0,000 mm 0,0 UV-I 153 W/m 7,2 C 8,9 C 1,6 km/h (1 Bft) 100,00 %
13.11.2015 14:34 8,9 C 90 % 1025,9 hPa 0,0 l/m 0,0 km/h (0 Bft) W-SW 257 0 min 0,000 mm 0,0 UV-I 115 W/m 7,4 C 8,9 C 0,0 km/h (0 Bft) 100,00 %
13.11.2015 14:35 8,9 C 90 % 1025,9 hPa 0,0 l/m 0,4 km/h (0 Bft) W-SW 257 0 min 0,000 mm 0,0 UV-I 104 W/m 7,4 C 8,9 C 1,6 km/h (1 Bft) 100,00 %
13.11.2015 14:36 8,9 C 90 % 1025,9 hPa 0,0 l/m 0,9 km/h (0 Bft) W-SW 257 0 min 0,000 mm 0,0 UV-I 99 W/m 7,4 C 8,9 C 3,2 km/h (1 Bft) 100,00 %
13.11.2015 14:37 8,9 C 89 % 1025,9 hPa 0,0 l/m 0,4 km/h (0 Bft) W-SW 257 0 min 0,000 mm 0,0 UV-I 93 W/m 7,2 C 8,9 C 1,6 km/h (1 Bft) 100,00 %
13.11.2015 14:38 8,9 C 89 % 1025,9 hPa 0,0 l/m 0,6 km/h (0 Bft) W-SW 257 0 min 0,000 mm 0,0 UV-I 100 W/m 7,2 C 8,9 C 1,6 km/h (1 Bft) 100,00 %
13.11.2015 14:39 8,9 C 89 % 1025,9 hPa 0,0 l/m 0,0 km/h (0 Bft) W-SW 257 0 min 0,000 mm 0,0 UV-I 120 W/m 7,2 C 8,9 C 0,0 km/h (0 Bft) 100,00 %
13.11.2015 14:40 8,8 C 89 % 1025,8 hPa 0,0 l/m 0,0 km/h (0 Bft) W-SW 257 0 min 0,000 mm 0,0 UV-I 117 W/m 7,1 C 8,8 C 0,0 km/h (0 Bft) 95,83 %
13.11.2015 14:41 8,8 C 89 % 1025,9 hPa 0,0 l/m 0,4 km/h (0 Bft) SW 223 0 min 0,000 mm 0,0 UV-I 110 W/m 7,1 C 8,8 C 3,2 km/h (1 Bft) 100,00 %
13.11.2015 14:42 8,8 C 90 % 1025,9 hPa 0,0 l/m 2,1 km/h (1 Bft) SW 223 0 min 0,000 mm 0,0 UV-I 106 W/m 7,3 C 8,8 C 3,2 km/h (1 Bft) 100,00 %
13.11.2015 14:43 8,8 C 91 % 1025,9 hPa 0,0 l/m 1,2 km/h (1 Bft) SW 223 0 min 0,000 mm 0,0 UV-I 101 W/m 7,4 C 8,8 C 3,2 km/h (1 Bft) 96,15 %
13.11.2015 14:44 8,7 C 90 % 1025,9 hPa 0,0 l/m 0,8 km/h (0 Bft) SW 223 0 min 0,000 mm 0,0 UV-I 97 W/m 7,2 C 8,7 C 3,2 km/h (1 Bft) 100,00 %
13.11.2015 14:45 8,7 C 91 % 1025,9 hPa 0,0 l/m 1,2 km/h (1 Bft) SW 223 0 min 0,000 mm 0,0 UV-I 95 W/m 7,3 C 8,7 C 1,6 km/h (1 Bft) 100,00 %
13.11.2015 14:46 8,7 C 90 % 1025,9 hPa 0,0 l/m 2,4 km/h (1 Bft) S-SW 202 0 min 0,000 mm 0,0 UV-I 95 W/m 7,2 C 8,7 C 4,8 km/h (1 Bft) 100,00 %
13.11.2015 14:47 8,7 C 90 % 1025,9 hPa 0,0 l/m 3,1 km/h (1 Bft) S-SW 201 0 min 0,000 mm 0,0 UV-I 92 W/m 7,2 C 8,7 C 4,8 km/h (1 Bft) 100,00 %
13.11.2015 14:48 8,7 C 91 % 1026,0 hPa 0,0 l/m 2,1 km/h (1 Bft) S-SW 202 0 min 0,000 mm 0,0 UV-I 91 W/m 7,3 C 8,7 C 3,2 km/h (1 Bft) 95,83 %
13.11.2015 14:49 8,7 C 90 % 1025,9 hPa 0,0 l/m 2,7 km/h (1 Bft) S-SW 202 0 min 0,000 mm 0,0 UV-I 91 W/m 7,2 C 8,7 C 3,2 km/h (1 Bft) 100,00 %
13.11.2015 14:50 8,7 C 91 % 1026,0 hPa 0,0 l/m 1,9 km/h (1 Bft) S-SW 198 0 min 0,000 mm 0,0 UV-I 90 W/m 7,3 C 8,7 C 3,2 km/h (1 Bft) 100,00 %
13.11.2015 14:51 8,7 C 91 % 1026,0 hPa 0,0 l/m 0,1 km/h (0 Bft) S-SW 198 0 min 0,000 mm 0,0 UV-I 93 W/m 7,3 C 8,7 C 1,6 km/h (1 Bft) 100,00 %
13.11.2015 14:52 8,8 C 90 % 1026,0 hPa 0,0 l/m 0,6 km/h (0 Bft) S-SW 200 0 min 0,000 mm 0,0 UV-I 97 W/m 7,3 C 8,8 C 1,6 km/h (1 Bft) 100,00 %
13.11.2015 14:53 8,8 C 91 % 1026,0 hPa 0,0 l/m 1,8 km/h (1 Bft) SW 215 0 min 0,000 mm 0,0 UV-I 100 W/m 7,4 C 8,8 C 3,2 km/h (1 Bft) 100,00 %
13.11.2015 14:54 8,8 C 91 % 1026,0 hPa 0,0 l/m 2,7 km/h (1 Bft) SW 230 0 min 0,000 mm 0,0 UV-I 99 W/m 7,4 C 8,8 C 3,2 km/h (1 Bft) 95,65 %
13.11.2015 14:55 8,8 C 91 % 1026,0 hPa 0,0 l/m 1,4 km/h (1 Bft) SW 230 0 min 0,000 mm 0,0 UV-I 93 W/m 7,4 C 8,8 C 3,2 km/h (1 Bft) 100,00 %
13.11.2015 14:56 8,8 C 91 % 1026,0 hPa 0,0 l/m 2,7 km/h (1 Bft) SW 230 0 min 0,000 mm 0,0 UV-I 87 W/m 7,4 C 8,8 C 3,2 km/h (1 Bft) 100,00 %
13.11.2015 14:57 8,7 C 91 % 1026,0 hPa 0,0 l/m 2,2 km/h (1 Bft) SW 230 0 min 0,000 mm 0,0 UV-I 81 W/m 7,3 C 8,7 C 4,8 km/h (1 Bft) 100,00 %
13.11.2015 14:58 8,7 C 92 % 1026,0 hPa 0,0 l/m 1,6 km/h (1 Bft) SW 230 0 min 0,000 mm 0,0 UV-I 77 W/m 7,5 C 8,7 C 1,6 km/h (1 Bft) 100,00 %
13.11.2015 14:59 8,7 C 92 % 1026,1 hPa 0,0 l/m 1,9 km/h (1 Bft) W-SW 252 0 min 0,000 mm 0,0 UV-I 76 W/m 7,5 C 8,7 C 3,2 km/h (1 Bft) 100,00 %
13.11.2015 15:00 8,7 C 92 % 1026,1 hPa 0,0 l/m 2,4 km/h (1 Bft) W-SW 237 0 min 0,000 mm 0,0 UV-I 76 W/m 7,5 C 8,7 C 3,2 km/h (1 Bft) 100,00 %
13.11.2015 15:01 8,7 C 92 % 1026,0 hPa 0,0 l/m 2,8 km/h (1 Bft) W-SW 237 0 min 0,076 mm 0,0 UV-I 78 W/m 7,5 C 8,7 C 4,8 km/h (1 Bft) 100,00 %
13.11.2015 15:02 8,7 C 92 % 1026,0 hPa 0,0 l/m 1,8 km/h (1 Bft) SW 233 0 min 0,000 mm 0,0 UV-I 80 W/m 7,5 C 8,7 C 3,2 km/h (1 Bft) 100,00 %
13.11.2015 15:03 8,6 C 92 % 1026,0 hPa 0,0 l/m 0,6 km/h (0 Bft) SW 233 0 min 0,000 mm 0,0 UV-I 84 W/m 7,4 C 8,6 C 1,6 km/h (1 Bft) 95,83 %
13.11.2015 15:04 8,6 C 92 % 1026,0 hPa 0,0 l/m 1,3 km/h (1 Bft) SW 233 0 min 0,000 mm 0,0 UV-I 81 W/m 7,4 C 8,6 C 3,2 km/h (1 Bft) 99,16 %
13.11.2015 15:05 8,6 C 92 % 1026,0 hPa 0,0 l/m 1,8 km/h (1 Bft) SW 220 0 min 0,000 mm 0,0 UV-I 79 W/m 7,4 C 8,6 C 3,2 km/h (1 Bft) 100,00 %
13.11.2015 15:06 8,6 C 92 % 1025,9 hPa 0,0 l/m 0,5 km/h (0 Bft) SW 220 0 min 0,000 mm 0,0 UV-I 74 W/m 7,4 C 8,6 C 1,6 km/h (1 Bft) 100,00 %
13.11.2015 15:07 8,7 C 92 % 1026,0 hPa 0,0 l/m 1,7 km/h (1 Bft) S-SO 167 0 min 0,000 mm 0,0 UV-I 67 W/m 7,5 C 8,7 C 4,8 km/h (1 Bft) 100,00 %
13.11.2015 15:08 8,7 C 92 % 1025,9 hPa 0,0 l/m 0,6 km/h (0 Bft) S-SO 167 0 min 0,000 mm 0,0 UV-I 63 W/m 7,5 C 8,7 C 1,6 km/h (1 Bft) 100,00 %
13.11.2015 15:09 8,7 C 92 % 1025,9 hPa 0,0 l/m 0,2 km/h (0 Bft) S-SO 167 0 min 0,000 mm 0,0 UV-I 62 W/m 7,5 C 8,7 C 1,6 km/h (1 Bft) 100,00 %
13.11.2015 15:10 8,7 C 92 % 1025,9 hPa 0,0 l/m 1,4 km/h (1 Bft) S-SO 167 0 min 0,000 mm 0,0 UV-I 60 W/m 7,5 C 8,7 C 1,6 km/h (1 Bft) 100,00 %
13.11.2015 15:11 8,7 C 92 % 1025,9 hPa 0,0 l/m 1,5 km/h (1 Bft) S 173 0 min 0,000 mm 0,0 UV-I 59 W/m 7,5 C 8,7 C 4,8 km/h (1 Bft) 100,00 %
13.11.2015 15:12 8,7 C 92 % 1025,9 hPa 0,0 l/m 1,6 km/h (1 Bft) S 173 0 min 0,000 mm 0,0 UV-I 58 W/m 7,5 C 8,7 C 3,2 km/h (1 Bft) 100,00 %
13.11.2015 15:13 8,7 C 92 % 1025,9 hPa 0,0 l/m 0,8 km/h (0 Bft) S 173 0 min 0,000 mm 0,0 UV-I 57 W/m 7,5 C 8,7 C 3,2 km/h (1 Bft) 95,65 %
13.11.2015 15:14 8,7 C 92 % 1026,0 hPa 0,0 l/m 1,2 km/h (1 Bft) S 173 0 min 0,000 mm 0,0 UV-I 54 W/m 7,5 C 8,7 C 3,2 km/h (1 Bft) 100,00 %
13.11.2015 15:15 8,7 C 92 % 1026,0 hPa 0,0 l/m 1,5 km/h (1 Bft) S 174 0 min 0,000 mm 0,0 UV-I 51 W/m 7,5 C 8,7 C 3,2 km/h (1 Bft) 95,65 %
13.11.2015 15:16 8,7 C 92 % 1026,0 hPa 0,0 l/m 1,5 km/h (1 Bft) S 174 0 min 0,000 mm 0,0 UV-I 49 W/m 7,5 C 8,7 C 3,2 km/h (1 Bft) 100,00 %
13.11.2015 15:17 8,7 C 92 % 1026,0 hPa 0,0 l/m 1,1 km/h (1 Bft) S 182 0 min 0,000 mm 0,0 UV-I 48 W/m 7,5 C 8,7 C 1,6 km/h (1 Bft) 100,00 %
13.11.2015 15:18 8,7 C 92 % 1025,9 hPa 0,0 l/m 1,5 km/h (1 Bft) S 191 0 min 0,000 mm 0,0 UV-I 46 W/m 7,5 C 8,7 C 3,2 km/h (1 Bft) 100,00 %
13.11.2015 15:19 8,7 C 92 % 1025,9 hPa 0,0 l/m 2,1 km/h (1 Bft) S 191 0 min 0,000 mm 0,0 UV-I 46 W/m 7,5 C 8,7 C 3,2 km/h (1 Bft) 95,65 %
13.11.2015 15:20 8,7 C 92 % 1025,9 hPa 0,0 l/m 1,9 km/h (1 Bft) S 191 0 min 0,000 mm 0,0 UV-I 44 W/m 7,5 C 8,7 C 3,2 km/h (1 Bft) 100,00 %
13.11.2015 15:21 8,6 C 92 % 1026,0 hPa 0,0 l/m 1,6 km/h (1 Bft) SW 221 0 min 0,000 mm 0,0 UV-I 44 W/m 7,4 C 8,6 C 3,2 km/h (1 Bft) 100,00 %
13.11.2015 15:22 8,7 C 92 % 1026,0 hPa 0,0 l/m 2,0 km/h (1 Bft) SW 215 0 min 0,000 mm 0,0 UV-I 42 W/m 7,5 C 8,7 C 3,2 km/h (1 Bft) 95,83 %
13.11.2015 15:23 8,6 C 92 % 1025,9 hPa 0,0 l/m 2,4 km/h (1 Bft) S-SW 206 0 min 0,000 mm 0,0 UV-I 44 W/m 7,4 C 8,6 C 3,2 km/h (1 Bft) 99,16 %
13.11.2015 15:24 8,6 C 92 % 1025,9 hPa 0,0 l/m 1,9 km/h (1 Bft) S 186 0 min 0,000 mm 0,0 UV-I 44 W/m 7,4 C 8,6 C 4,8 km/h (1 Bft) 100,00 %
13.11.2015 15:25 8,6 C 92 % 1025,9 hPa 0,0 l/m 2,5 km/h (1 Bft) S 186 0 min 0,000 mm 0,0 UV-I 45 W/m 7,4 C 8,6 C 3,2 km/h (1 Bft) 100,00 %
13.11.2015 15:26 8,6 C 92 % 1025,9 hPa 0,0 l/m 2,2 km/h (1 Bft) S-SW 200 0 min 0,000 mm 0,0 UV-I 46 W/m 7,4 C 8,6 C 3,2 km/h (1 Bft) 95,83 %
13.11.2015 15:27 8,6 C 92 % 1026,0 hPa 0,0 l/m 3,5 km/h (1 Bft) S-SW 200 0 min 0,000 mm 0,0 UV-I 48 W/m 7,4 C 8,6 C 4,8 km/h (1 Bft) 100,00 %
13.11.2015 15:28 8,6 C 92 % 1026,0 hPa 0,0 l/m 2,3 km/h (1 Bft) S-SW 196 0 min 0,000 mm 0,0 UV-I 53 W/m 7,4 C 8,6 C 3,2 km/h (1 Bft) 100,00 %
13.11.2015 15:29 8,6 C 92 % 1026,0 hPa 0,0 l/m 0,9 km/h (0 Bft) S-SW 196 0 min 0,000 mm 0,0 UV-I 50 W/m 7,4 C 8,6 C 1,6 km/h (1 Bft) 100,00 %
13.11.2015 15:30 8,6 C 92 % 1025,9 hPa 0,0 l/m 0,9 km/h (0 Bft) S 175 0 min 0,000 mm 0,0 UV-I 51 W/m 7,4 C 8,6 C 1,6 km/h (1 Bft) 95,83 %
13.11.2015 15:31 8,7 C 92 % 1025,9 hPa 0,0 l/m 1,9 km/h (1 Bft) S-SO 153 0 min 0,000 mm 0,0 UV-I 49 W/m 7,5 C 8,7 C 3,2 km/h (1 Bft) 100,00 %
13.11.2015 15:32 8,7 C 92 % 1025,9 hPa 0,0 l/m 1,4 km/h (1 Bft) SO 142 0 min 0,000 mm 0,0 UV-I 49 W/m 7,5 C 8,7 C 3,2 km/h (1 Bft) 100,00 %
13.11.2015 15:33 8,7 C 92 % 1025,9 hPa 0,0 l/m 1,4 km/h (1 Bft) S 169 0 min 0,000 mm 0,0 UV-I 49 W/m 7,5 C 8,7 C 3,2 km/h (1 Bft) 100,00 %
13.11.2015 15:34 8,7 C 92 % 1025,9 hPa 0,0 l/m 2,4 km/h (1 Bft) S 172 0 min 0,000 mm 0,0 UV-I 51 W/m 7,5 C 8,7 C 4,8 km/h (1 Bft) 95,65 %
13.11.2015 15:35 8,6 C 92 % 1026,0 hPa 0,0 l/m 1,2 km/h (1 Bft) S 173 0 min 0,000 mm 0,0 UV-I 52 W/m 7,4 C 8,6 C 3,2 km/h (1 Bft) 100,00 %
13.11.2015 15:36 8,7 C 92 % 1026,0 hPa 0,0 l/m 1,0 km/h (0 Bft) S 173 0 min 0,000 mm 0,0 UV-I 53 W/m 7,5 C 8,7 C 1,6 km/h (1 Bft) 100,00 %
13.11.2015 15:37 8,6 C 92 % 1026,0 hPa 0,0 l/m 1,6 km/h (1 Bft) S 173 0 min 0,000 mm 0,0 UV-I 54 W/m 7,4 C 8,6 C 3,2 km/h (1 Bft) 100,00 %
13.11.2015 15:38 8,7 C 92 % 1025,9 hPa 0,0 l/m 0,5 km/h (0 Bft) S 173 0 min 0,000 mm 0,0 UV-I 53 W/m 7,5 C 8,7 C 1,6 km/h (1 Bft) 100,00 %
13.11.2015 15:39 8,7 C 92 % 1025,9 hPa 0,0 l/m 1,1 km/h (1 Bft) S-SO 150 0 min 0,000 mm 0,0 UV-I 52 W/m 7,5 C 8,7 C 3,2 km/h (1 Bft) 100,00 %
13.11.2015 15:40 8,7 C 92 % 1025,9 hPa 0,0 l/m 0,6 km/h (0 Bft) S-SO 150 0 min 0,000 mm 0,0 UV-I 48 W/m 7,5 C 8,7 C 1,6 km/h (1 Bft) 100,00 %
13.11.2015 15:41 8,7 C 92 % 1025,9 hPa 0,0 l/m 0,0 km/h (0 Bft) S-SO 150 0 min 0,000 mm 0,0 UV-I 47 W/m 7,5 C 8,7 C 0,0 km/h (0 Bft) 100,00 %
13.11.2015 15:42 8,7 C 92 % 1025,8 hPa 0,0 l/m 0,0 km/h (0 Bft) S-SO 150 0 min 0,000 mm 0,0 UV-I 45 W/m 7,5 C 8,7 C 0,0 km/h (0 Bft) 99,16 %
13.11.2015 15:43 8,7 C 92 % 1025,9 hPa 0,0 l/m 0,5 km/h (0 Bft) S-SO 150 0 min 0,000 mm 0,0 UV-I 41 W/m 7,5 C 8,7 C 1,6 km/h (1 Bft) 100,00 %
13.11.2015 15:44 8,7 C 91 % 1025,9 hPa 0,0 l/m 0,9 km/h (0 Bft) S-SO 150 0 min 0,000 mm 0,0 UV-I 37 W/m 7,3 C 8,7 C 1,6 km/h (1 Bft) 100,00 %
13.11.2015 15:45 8,7 C 91 % 1025,9 hPa 0,0 l/m 1,4 km/h (1 Bft) S-SO 150 0 min 0,000 mm 0,0 UV-I 34 W/m 7,3 C 8,7 C 1,6 km/h (1 Bft) 100,00 %
13.11.2015 15:46 8,7 C 91 % 1025,9 hPa 0,0 l/m 1,5 km/h (1 Bft) S-SO 153 0 min 0,000 mm 0,0 UV-I 31 W/m 7,3 C 8,7 C 3,2 km/h (1 Bft) 100,00 %
13.11.2015 15:47 8,7 C 91 % 1025,9 hPa 0,0 l/m 1,4 km/h (1 Bft) S-SO 153 0 min 0,000 mm 0,0 UV-I 29 W/m 7,3 C 8,7 C 3,2 km/h (1 Bft) 100,00 %
13.11.2015 15:48 8,7 C 91 % 1025,9 hPa 0,0 l/m 1,5 km/h (1 Bft) S 171 0 min 0,000 mm 0,0 UV-I 27 W/m 7,3 C 8,7 C 3,2 km/h (1 Bft) 100,00 %
13.11.2015 15:49 8,7 C 92 % 1025,9 hPa 0,0 l/m 0,2 km/h (0 Bft) S 171 0 min 0,000 mm 0,0 UV-I 25 W/m 7,5 C 8,7 C 1,6 km/h (1 Bft) 100,00 %
13.11.2015 15:50 8,7 C 92 % 1025,8 hPa 0,0 l/m 0,1 km/h (0 Bft) S 171 0 min 0,000 mm 0,0 UV-I 23 W/m 7,5 C 8,7 C 1,6 km/h (1 Bft) 100,00 %
13.11.2015 15:51 8,7 C 92 % 1025,8 hPa 0,0 l/m 0,4 km/h (0 Bft) S 171 0 min 0,000 mm 0,0 UV-I 21 W/m 7,5 C 8,7 C 1,6 km/h (1 Bft) 96,15 %
13.11.2015 15:52 8,7 C 92 % 1025,8 hPa 0,0 l/m 1,4 km/h (1 Bft) S 171 0 min 0,000 mm 0,0 UV-I 21 W/m 7,5 C 8,7 C 3,2 km/h (1 Bft) 96,30 %
13.11.2015 15:53 8,7 C 92 % 1025,9 hPa 0,0 l/m 2,1 km/h (1 Bft) S 176 0 min 0,000 mm 0,0 UV-I 20 W/m 7,5 C 8,7 C 3,2 km/h (1 Bft) 100,00 %
13.11.2015 15:54 8,7 C 92 % 1025,8 hPa 0,0 l/m 2,5 km/h (1 Bft) S 176 0 min 0,000 mm 0,0 UV-I 19 W/m 7,5 C 8,7 C 3,2 km/h (1 Bft) 100,00 %
13.11.2015 15:55 8,7 C 92 % 1025,8 hPa 0,0 l/m 1,6 km/h (1 Bft) S 176 0 min 0,000 mm 0,0 UV-I 18 W/m 7,5 C 8,7 C 3,2 km/h (1 Bft) 100,00 %
13.11.2015 15:56 8,7 C 92 % 1025,8 hPa 0,0 l/m 1,3 km/h (1 Bft) S 175 0 min 0,000 mm 0,0 UV-I 18 W/m 7,5 C 8,7 C 3,2 km/h (1 Bft) 100,00 %
13.11.2015 15:57 8,7 C 92 % 1025,9 hPa 0,0 l/m 0,8 km/h (0 Bft) S 175 0 min 0,000 mm 0,0 UV-I 16 W/m 7,5 C 8,7 C 1,6 km/h (1 Bft) 100,00 %
13.11.2015 15:58 8,7 C 91 % 1025,8 hPa 0,0 l/m 0,2 km/h (0 Bft) S 175 0 min 0,000 mm 0,0 UV-I 15 W/m 7,3 C 8,7 C 1,6 km/h (1 Bft) 100,00 %
13.11.2015 15:59 8,7 C 91 % 1025,8 hPa 0,0 l/m 1,2 km/h (1 Bft) S 185 0 min 0,000 mm 0,0 UV-I 14 W/m 7,3 C 8,7 C 3,2 km/h (1 Bft) 100,00 %
13.11.2015 16:00 8,7 C 91 % 1025,8 hPa 0,0 l/m 1,7 km/h (1 Bft) S 185 0 min 0,000 mm 0,0 UV-I 14 W/m 7,3 C 8,7 C 3,2 km/h (1 Bft) 100,00 %
13.11.2015 16:01 8,7 C 92 % 1025,9 hPa 0,0 l/m 1,7 km/h (1 Bft) S-SW 192 0 min 0,026 mm 0,0 UV-I 12 W/m 7,5 C 8,7 C 3,2 km/h (1 Bft) 100,00 %
13.11.2015 16:02 8,7 C 91 % 1025,9 hPa 0,0 l/m 1,0 km/h (0 Bft) S-SW 192 0 min 0,000 mm 0,0 UV-I 12 W/m 7,3 C 8,7 C 1,6 km/h (1 Bft) 100,00 %
13.11.2015 16:03 8,7 C 92 % 1025,9 hPa 0,0 l/m 0,0 km/h (0 Bft) S-SW 192 0 min 0,000 mm 0,0 UV-I 12 W/m 7,5 C 8,7 C 0,0 km/h (0 Bft) 100,00 %
13.11.2015 16:04 8,7 C 92 % 1025,9 hPa 0,0 l/m 1,9 km/h (1 Bft) S-SW 192 0 min 0,000 mm 0,0 UV-I 12 W/m 7,5 C 8,7 C 3,2 km/h (1 Bft) 100,00 %
13.11.2015 16:05 8,7 C 92 % 1025,9 hPa 0,0 l/m 0,6 km/h (0 Bft) S-SW 192 0 min 0,000 mm 0,0 UV-I 12 W/m 7,5 C 8,7 C 1,6 km/h (1 Bft) 100,00 %
13.11.2015 16:06 8,7 C 92 % 1025,9 hPa 0,0 l/m 0,6 km/h (0 Bft) S-SW 192 0 min 0,000 mm 0,0 UV-I 11 W/m 7,5 C 8,7 C 1,6 km/h (1 Bft) 100,00 %
13.11.2015 16:07 8,7 C 92 % 1025,9 hPa 0,0 l/m 0,1 km/h (0 Bft) S-SW 192 0 min 0,000 mm 0,0 UV-I 11 W/m 7,5 C 8,7 C 1,6 km/h (1 Bft) 100,00 %
13.11.2015 16:08 8,6 C 92 % 1025,9 hPa 0,0 l/m 0,1 km/h (0 Bft) S-SW 192 0 min 0,000 mm 0,0 UV-I 11 W/m 7,4 C 8,6 C 1,6 km/h (1 Bft) 100,00 %
13.11.2015 16:09 8,6 C 92 % 1025,9 hPa 0,0 l/m 1,3 km/h (1 Bft) S-SW 192 0 min 0,000 mm 0,0 UV-I 11 W/m 7,4 C 8,6 C 3,2 km/h (1 Bft) 100,00 %
13.11.2015 16:10 8,6 C 92 % 1025,9 hPa 0,0 l/m 2,1 km/h (1 Bft) S-SW 192 0 min 0,000 mm 0,0 UV-I 11 W/m 7,4 C 8,6 C 3,2 km/h (1 Bft) 100,00 %
13.11.2015 16:11 8,6 C 92 % 1025,9 hPa 0,0 l/m 0,3 km/h (0 Bft) S-SW 192 0 min 0,000 mm 0,0 UV-I 10 W/m 7,4 C 8,6 C 1,6 km/h (1 Bft) 100,00 %
13.11.2015 16:12 8,6 C 92 % 1025,9 hPa 0,0 l/m 0,1 km/h (0 Bft) S-SW 192 0 min 0,000 mm 0,0 UV-I 9 W/m 7,4 C 8,6 C 1,6 km/h (1 Bft) 100,00 %
13.11.2015 16:13 8,6 C 92 % 1025,9 hPa 0,0 l/m 0,0 km/h (0 Bft) S-SW 192 0 min 0,000 mm 0,0 UV-I 9 W/m 7,4 C 8,6 C 0,0 km/h (0 Bft) 100,00 %
13.11.2015 16:14 8,6 C 92 % 1025,9 hPa 0,0 l/m 0,0 km/h (0 Bft) S-SW 192 0 min 0,000 mm 0,0 UV-I 9 W/m 7,4 C 8,6 C 0,0 km/h (0 Bft) 100,00 %
13.11.2015 16:15 8,6 C 92 % 1026,0 hPa 0,0 l/m 0,0 km/h (0 Bft) S-SW 192 0 min 0,000 mm 0,0 UV-I 9 W/m 7,4 C 8,6 C 0,0 km/h (0 Bft) 100,00 %
13.11.2015 16:16 8,6 C 92 % 1025,9 hPa 0,0 l/m 0,0 km/h (0 Bft) S-SW 192 0 min 0,000 mm 0,0 UV-I 8 W/m 7,4 C 8,6 C 0,0 km/h (0 Bft) 91,30 %
13.11.2015 16:17 8,5 C 92 % 1026,0 hPa 0,0 l/m 0,0 km/h (0 Bft) S-SW 192 0 min 0,000 mm 0,0 UV-I 7 W/m 7,3 C 8,5 C 0,0 km/h (0 Bft) 100,00 %
13.11.2015 16:18 8,5 C 92 % 1026,0 hPa 0,0 l/m 0,3 km/h (0 Bft) S-SW 192 0 min 0,000 mm 0,0 UV-I 7 W/m 7,3 C 8,5 C 1,6 km/h (1 Bft) 96,15 %
13.11.2015 16:19 8,6 C 92 % 1026,0 hPa 0,0 l/m 0,8 km/h (0 Bft) S-SW 192 0 min 0,000 mm 0,0 UV-I 7 W/m 7,4 C 8,6 C 1,6 km/h (1 Bft) 100,00 %
13.11.2015 16:20 8,5 C 92 % 1025,9 hPa 0,0 l/m 0,7 km/h (0 Bft) S-SW 192 0 min 0,000 mm 0,0 UV-I 5 W/m 7,3 C 8,5 C 1,6 km/h (1 Bft) 95,65 %
13.11.2015 16:21 8,5 C 92 % 1025,9 hPa 0,0 l/m 2,0 km/h (1 Bft) S 183 0 min 0,000 mm 0,0 UV-I 5 W/m 7,3 C 8,5 C 3,2 km/h (1 Bft) 100,00 %
13.11.2015 16:22 8,5 C 92 % 1025,9 hPa 0,0 l/m 1,5 km/h (1 Bft) S 183 0 min 0,000 mm 0,0 UV-I 5 W/m 7,3 C 8,5 C 3,2 km/h (1 Bft) 100,00 %
13.11.2015 16:23 8,5 C 92 % 1026,0 hPa 0,0 l/m 0,4 km/h (0 Bft) S 183 0 min 0,000 mm 0,0 UV-I 5 W/m 7,3 C 8,5 C 1,6 km/h (1 Bft) 95,65 %
13.11.2015 16:24 8,5 C 92 % 1026,0 hPa 0,0 l/m 0,0 km/h (0 Bft) S 183 0 min 0,000 mm 0,0 UV-I 2 W/m 7,3 C 8,5 C 0,0 km/h (0 Bft) 100,00 %
13.11.2015 16:25 8,4 C 92 % 1026,0 hPa 0,0 l/m 0,0 km/h (0 Bft) S 183 0 min 0,000 mm 0,0 UV-I 0 W/m 7,2 C 8,4 C 0,0 km/h (0 Bft) 100,00 %
13.11.2015 16:26 8,4 C 92 % 1025,9 hPa 0,0 l/m 0,0 km/h (0 Bft) S 183 0 min 0,000 mm 0,0 UV-I 0 W/m 7,2 C 8,4 C 0,0 km/h (0 Bft) 91,67 %
13.11.2015 16:27 8,4 C 92 % 1025,9 hPa 0,0 l/m 0,0 km/h (0 Bft) S 183 0 min 0,000 mm 0,0 UV-I 0 W/m 7,2 C 8,4 C 0,0 km/h (0 Bft) 94,29 %
13.11.2015 16:28 8,4 C 92 % 1025,9 hPa 0,0 l/m 0,0 km/h (0 Bft) S 183 0 min 0,000 mm 0,0 UV-I 0 W/m 7,2 C 8,4 C 0,0 km/h (0 Bft) 100,00 %
13.11.2015 16:29 8,4 C 92 % 1025,9 hPa 0,0 l/m 0,0 km/h (0 Bft) S 183 0 min 0,000 mm 0,0 UV-I 0 W/m 7,2 C 8,4 C 0,0 km/h (0 Bft) 100,00 %
13.11.2015 16:30 8,3 C 92 % 1026,0 hPa 0,0 l/m 0,0 km/h (0 Bft) S 183 0 min 0,000 mm 0,0 UV-I 0 W/m 7,1 C 8,3 C 0,0 km/h (0 Bft) 97,22 %
13.11.2015 16:31 8,3 C 92 % 1025,9 hPa 0,0 l/m 0,0 km/h (0 Bft) S 183 0 min 0,000 mm 0,0 UV-I 0 W/m 7,1 C 8,3 C 0,0 km/h (0 Bft) 100,00 %
13.11.2015 16:32 8,3 C 92 % 1026,0 hPa 0,0 l/m 0,0 km/h (0 Bft) S 183 0 min 0,000 mm 0,0 UV-I 0 W/m 7,1 C 8,3 C 0,0 km/h (0 Bft) 100,00 %
13.11.2015 16:33 8,3 C 93 % 1026,1 hPa 0,0 l/m 0,0 km/h (0 Bft) S 183 0 min 0,000 mm 0,0 UV-I 0 W/m 7,2 C 8,3 C 0,0 km/h (0 Bft) 100,00 %
13.11.2015 16:34 8,3 C 92 % 1026,1 hPa 0,0 l/m 0,0 km/h (0 Bft) S 183 0 min 0,000 mm 0,0 UV-I 0 W/m 7,1 C 8,3 C 0,0 km/h (0 Bft) 100,00 %
13.11.2015 16:35 8,2 C 93 % 1026,0 hPa 0,0 l/m 0,0 km/h (0 Bft) S 183 0 min 0,000 mm 0,0 UV-I 0 W/m 7,1 C 8,2 C 0,0 km/h (0 Bft) 100,00 %
13.11.2015 16:36 8,2 C 93 % 1026,0 hPa 0,0 l/m 0,1 km/h (0 Bft) S 183 0 min 0,000 mm 0,0 UV-I 0 W/m 7,1 C 8,2 C 1,6 km/h (1 Bft) 100,00 %
13.11.2015 16:37 8,2 C 93 % 1026,0 hPa 0,0 l/m 0,8 km/h (0 Bft) S 183 0 min 0,000 mm 0,0 UV-I 0 W/m 7,1 C 8,2 C 1,6 km/h (1 Bft) 100,00 %
13.11.2015 16:38 8,2 C 93 % 1026,0 hPa 0,0 l/m 1,3 km/h (1 Bft) S 183 0 min 0,000 mm 0,0 UV-I 0 W/m 7,1 C 8,2 C 3,2 km/h (1 Bft) 100,00 %
13.11.2015 16:39 8,2 C 93 % 1026,0 hPa 0,0 l/m 1,4 km/h (1 Bft) S 183 0 min 0,000 mm 0,0 UV-I 0 W/m 7,1 C 8,2 C 3,2 km/h (1 Bft) 100,00 %
13.11.2015 16:40 8,2 C 93 % 1026,0 hPa 0,0 l/m 1,0 km/h (0 Bft) S 180 0 min 0,000 mm 0,0 UV-I 0 W/m 7,1 C 8,2 C 3,2 km/h (1 Bft) 100,00 %
13.11.2015 16:41 8,2 C 93 % 1025,9 hPa 0,0 l/m 1,7 km/h (1 Bft) S 180 0 min 0,000 mm 0,0 UV-I 0 W/m 7,1 C 8,2 C 3,2 km/h (1 Bft) 100,00 %
13.11.2015 16:42 8,1 C 93 % 1026,0 hPa 0,0 l/m 0,1 km/h (0 Bft) S 180 0 min 0,000 mm 0,0 UV-I 0 W/m 7,0 C 8,1 C 1,6 km/h (1 Bft) 100,00 %
13.11.2015 16:43 8,0 C 93 % 1025,9 hPa 0,0 l/m 0,0 km/h (0 Bft) S 180 0 min 0,000 mm 0,0 UV-I 0 W/m 6,9 C 8,0 C 0,0 km/h (0 Bft) 100,00 %
13.11.2015 16:44 7,9 C 93 % 1025,9 hPa 0,0 l/m 0,6 km/h (0 Bft) S 180 0 min 0,000 mm 0,0 UV-I 0 W/m 6,8 C 7,9 C 1,6 km/h (1 Bft) 100,00 %
13.11.2015 16:45 7,9 C 93 % 1025,9 hPa 0,0 l/m 0,8 km/h (0 Bft) S 180 0 min 0,000 mm 0,0 UV-I 0 W/m 6,8 C 7,9 C 1,6 km/h (1 Bft) 100,00 %
13.11.2015 16:46 7,9 C 94 % 1025,9 hPa 0,0 l/m 0,3 km/h (0 Bft) S 180 0 min 0,000 mm 0,0 UV-I 0 W/m 7,0 C 7,9 C 1,6 km/h (1 Bft) 100,00 %
13.11.2015 16:47 7,9 C 94 % 1025,9 hPa 0,0 l/m 0,0 km/h (0 Bft) S 180 0 min 0,000 mm 0,0 UV-I 0 W/m 7,0 C 7,9 C 0,0 km/h (0 Bft) 100,00 %
13.11.2015 16:48 7,9 C 94 % 1025,9 hPa 0,0 l/m 0,1 km/h (0 Bft) S 180 0 min 0,000 mm 0,0 UV-I 0 W/m 7,0 C 7,9 C 1,6 km/h (1 Bft) 95,65 %
13.11.2015 16:49 7,9 C 94 % 1026,0 hPa 0,0 l/m 0,5 km/h (0 Bft) S 180 0 min 0,000 mm 0,0 UV-I 0 W/m 7,0 C 7,9 C 1,6 km/h (1 Bft) 100,00 %
13.11.2015 16:50 7,9 C 94 % 1026,0 hPa 0,0 l/m 0,0 km/h (0 Bft) S 180 0 min 0,000 mm 0,0 UV-I 0 W/m 7,0 C 7,9 C 0,0 km/h (0 Bft) 100,00 %
13.11.2015 16:51 7,9 C 94 % 1026,0 hPa 0,0 l/m 0,0 km/h (0 Bft) S 180 0 min 0,000 mm 0,0 UV-I 0 W/m 7,0 C 7,9 C 0,0 km/h (0 Bft) 93,33 %
13.11.2015 16:52 7,9 C 94 % 1026,0 hPa 0,0 l/m 0,0 km/h (0 Bft) S 180 0 min 0,000 mm 0,0 UV-I 0 W/m 7,0 C 7,9 C 0,0 km/h (0 Bft) 95,65 %
13.11.2015 16:53 7,9 C 94 % 1026,0 hPa 0,0 l/m 0,0 km/h (0 Bft) S 180 0 min 0,000 mm 0,0 UV-I 0 W/m 7,0 C 7,9 C 0,0 km/h (0 Bft) 100,00 %
13.11.2015 16:54 7,9 C 94 % 1026,0 hPa 0,0 l/m 0,0 km/h (0 Bft) S 180 0 min 0,000 mm 0,0 UV-I 0 W/m 7,0 C 7,9 C 0,0 km/h (0 Bft) 96,15 %
13.11.2015 16:55 7,9 C 94 % 1026,0 hPa 0,0 l/m 0,0 km/h (0 Bft) S 180 0 min 0,000 mm 0,0 UV-I 0 W/m 7,0 C 7,9 C 0,0 km/h (0 Bft) 95,83 %
13.11.2015 16:56 7,8 C 94 % 1026,0 hPa 0,0 l/m 0,0 km/h (0 Bft) S 180 0 min 0,000 mm 0,0 UV-I 0 W/m 6,9 C 7,8 C 0,0 km/h (0 Bft) 100,00 %
13.11.2015 16:57 7,8 C 94 % 1026,0 hPa 0,0 l/m 0,0 km/h (0 Bft) S 180 0 min 0,000 mm 0,0 UV-I 0 W/m 6,9 C 7,8 C 0,0 km/h (0 Bft) 100,00 %
13.11.2015 16:58 7,8 C 94 % 1026,0 hPa 0,0 l/m 0,4 km/h (0 Bft) S 180 0 min 0,000 mm 0,0 UV-I 0 W/m 6,9 C 7,8 C 1,6 km/h (1 Bft) 100,00 %
13.11.2015 16:59 7,8 C 94 % 1026,0 hPa 0,0 l/m 1,1 km/h (1 Bft) S 180 0 min 0,000 mm 0,0 UV-I 0 W/m 6,9 C 7,8 C 3,2 km/h (1 Bft) 100,00 %
13.11.2015 17:00 7,8 C 94 % 1025,9 hPa 0,0 l/m 1,6 km/h (1 Bft) S 180 0 min 0,000 mm 0,0 UV-I 0 W/m 6,9 C 7,8 C 3,2 km/h (1 Bft) 100,00 %
13.11.2015 17:01 7,7 C 93 % 1025,9 hPa 0,0 l/m 2,0 km/h (1 Bft) S 180 0 min 0,000 mm 0,0 UV-I 0 W/m 6,6 C 7,7 C 3,2 km/h (1 Bft) 100,00 %
13.11.2015 17:02 7,7 C 94 % 1025,9 hPa 0,0 l/m 1,9 km/h (1 Bft) S 180 0 min 0,000 mm 0,0 UV-I 0 W/m 6,8 C 7,7 C 3,2 km/h (1 Bft) 100,00 %
13.11.2015 17:03 7,6 C 94 % 1025,9 hPa 0,0 l/m 1,6 km/h (1 Bft) S 180 0 min 0,000 mm 0,0 UV-I 0 W/m 6,7 C 7,6 C 3,2 km/h (1 Bft) 100,00 %
13.11.2015 17:04 7,6 C 94 % 1025,8 hPa 0,0 l/m 0,3 km/h (0 Bft) S 180 0 min 0,000 mm 0,0 UV-I 0 W/m 6,7 C 7,6 C 1,6 km/h (1 Bft) 100,00 %
13.11.2015 17:05 7,6 C 94 % 1025,9 hPa 0,0 l/m 0,0 km/h (0 Bft) S 180 0 min 0,000 mm 0,0 UV-I 0 W/m 6,7 C 7,6 C 0,0 km/h (0 Bft) 100,00 %
13.11.2015 17:06 7,6 C 94 % 1025,9 hPa 0,0 l/m 0,3 km/h (0 Bft) S 180 0 min 0,000 mm 0,0 UV-I 0 W/m 6,7 C 7,6 C 1,6 km/h (1 Bft) 100,00 %
13.11.2015 17:07 7,6 C 94 % 1025,9 hPa 0,0 l/m 0,0 km/h (0 Bft) S 180 0 min 0,000 mm 0,0 UV-I 0 W/m 6,7 C 7,6 C 0,0 km/h (0 Bft) 95,65 %
13.11.2015 17:08 7,6 C 95 % 1025,9 hPa 0,0 l/m 0,0 km/h (0 Bft) S 180 0 min 0,000 mm 0,0 UV-I 0 W/m 6,9 C 7,6 C 0,0 km/h (0 Bft) 100,00 %
13.11.2015 17:09 7,6 C 95 % 1025,9 hPa 0,0 l/m 0,0 km/h (0 Bft) S 180 0 min 0,000 mm 0,0 UV-I 0 W/m 6,9 C 7,6 C 0,0 km/h (0 Bft) 100,00 %
13.11.2015 17:10 7,6 C 95 % 1025,8 hPa 0,0 l/m 0,0 km/h (0 Bft) S 180 0 min 0,000 mm 0,0 UV-I 0 W/m 6,9 C 7,6 C 0,0 km/h (0 Bft) 100,00 %
13.11.2015 17:11 7,6 C 95 % 1025,9 hPa 0,0 l/m 0,1 km/h (0 Bft) S 180 0 min 0,000 mm 0,0 UV-I 0 W/m 6,9 C 7,6 C 1,6 km/h (1 Bft) 100,00 %
13.11.2015 17:12 7,6 C 95 % 1025,8 hPa 0,0 l/m 0,0 km/h (0 Bft) S 180 0 min 0,000 mm 0,0 UV-I 0 W/m 6,9 C 7,6 C 0,0 km/h (0 Bft) 100,00 %
13.11.2015 17:13 7,6 C 94 % 1025,8 hPa 0,0 l/m 0,3 km/h (0 Bft) S 180 0 min 0,000 mm 0,0 UV-I 0 W/m 6,7 C 7,6 C 1,6 km/h (1 Bft) 95,65 %
13.11.2015 17:14 7,6 C 94 % 1025,8 hPa 0,0 l/m 0,5 km/h (0 Bft) S 180 0 min 0,000 mm 0,0 UV-I 0 W/m 6,7 C 7,6 C 1,6 km/h (1 Bft) 100,00 %
13.11.2015 17:15 7,6 C 94 % 1025,8 hPa 0,0 l/m 1,5 km/h (1 Bft) S 180 0 min 0,000 mm 0,0 UV-I 0 W/m 6,7 C 7,6 C 3,2 km/h (1 Bft) 100,00 %
13.11.2015 17:16 7,6 C 95 % 1025,8 hPa 0,0 l/m 2,1 km/h (1 Bft) S-SO 162 0 min 0,000 mm 0,0 UV-I 0 W/m 6,9 C 7,6 C 3,2 km/h (1 Bft) 100,00 %
13.11.2015 17:17 7,6 C 95 % 1025,8 hPa 0,0 l/m 1,7 km/h (1 Bft) S-SO 159 0 min 0,000 mm 0,0 UV-I 0 W/m 6,9 C 7,6 C 3,2 km/h (1 Bft) 99,17 %
13.11.2015 17:18 7,6 C 94 % 1025,9 hPa 0,0 l/m 1,5 km/h (1 Bft) S-SO 159 0 min 0,000 mm 0,0 UV-I 0 W/m 6,7 C 7,6 C 1,6 km/h (1 Bft) 100,00 %
13.11.2015 17:19 7,6 C 94 % 1025,8 hPa 0,0 l/m 1,9 km/h (1 Bft) S-SO 159 0 min 0,000 mm 0,0 UV-I 0 W/m 6,7 C 7,6 C 3,2 km/h (1 Bft) 100,00 %
13.11.2015 17:20 7,6 C 94 % 1025,9 hPa 0,0 l/m 1,4 km/h (1 Bft) S-SO 159 0 min 0,000 mm 0,0 UV-I 0 W/m 6,7 C 7,6 C 3,2 km/h (1 Bft) 100,00 %
13.11.2015 17:21 7,6 C 94 % 1025,9 hPa 0,0 l/m 2,0 km/h (1 Bft) S-SO 156 0 min 0,000 mm 0,0 UV-I 0 W/m 6,7 C 7,6 C 3,2 km/h (1 Bft) 100,00 %
13.11.2015 17:22 7,6 C 94 % 1025,8 hPa 0,0 l/m 2,4 km/h (1 Bft) S-SO 153 0 min 0,000 mm 0,0 UV-I 0 W/m 6,7 C 7,6 C 3,2 km/h (1 Bft) 100,00 %
13.11.2015 17:23 7,6 C 95 % 1025,9 hPa 0,0 l/m 2,4 km/h (1 Bft) S-SO 149 0 min 0,000 mm 0,0 UV-I 0 W/m 6,9 C 7,6 C 3,2 km/h (1 Bft) 95,83 %
13.11.2015 17:24 7,6 C 95 % 1025,9 hPa 0,0 l/m 3,4 km/h (1 Bft) SO 134 0 min 0,000 mm 0,0 UV-I 0 W/m 6,9 C 7,6 C 4,8 km/h (1 Bft) 100,00 %
13.11.2015 17:25 7,7 C 95 % 1025,9 hPa 0,0 l/m 3,2 km/h (1 Bft) SO 125 0 min 0,000 mm 0,0 UV-I 0 W/m 7,0 C 7,7 C 4,8 km/h (1 Bft) 100,00 %
13.11.2015 17:26 7,7 C 95 % 1025,9 hPa 0,0 l/m 1,3 km/h (1 Bft) SO 125 0 min 0,000 mm 0,0 UV-I 0 W/m 7,0 C 7,7 C 3,2 km/h (1 Bft) 100,00 %
13.11.2015 17:27 7,7 C 95 % 1026,0 hPa 0,0 l/m 0,0 km/h (0 Bft) SO 125 0 min 0,000 mm 0,0 UV-I 0 W/m 7,0 C 7,7 C 0,0 km/h (0 Bft) 100,00 %
13.11.2015 17:28 7,8 C 94 % 1026,0 hPa 0,0 l/m 0,1 km/h (0 Bft) SO 125 0 min 0,000 mm 0,0 UV-I 0 W/m 6,9 C 7,8 C 1,6 km/h (1 Bft) 100,00 %
13.11.2015 17:29 7,8 C 94 % 1026,0 hPa 0,0 l/m 0,0 km/h (0 Bft) SO 125 0 min 0,000 mm 0,0 UV-I 0 W/m 6,9 C 7,8 C 0,0 km/h (0 Bft) 100,00 %
13.11.2015 17:30 7,8 C 94 % 1026,0 hPa 0,0 l/m 0,0 km/h (0 Bft) SO 125 0 min 0,000 mm 0,0 UV-I 0 W/m 6,9 C 7,8 C 0,0 km/h (0 Bft) 100,00 %
13.11.2015 17:31 7,8 C 94 % 1026,0 hPa 0,0 l/m 0,0 km/h (0 Bft) SO 125 0 min 0,000 mm 0,0 UV-I 0 W/m 6,9 C 7,8 C 0,0 km/h (0 Bft) 100,00 %
13.11.2015 17:32 7,8 C 94 % 1026,0 hPa 0,0 l/m 0,0 km/h (0 Bft) SO 125 0 min 0,000 mm 0,0 UV-I 0 W/m 6,9 C 7,8 C 0,0 km/h (0 Bft) 100,00 %
13.11.2015 17:33 7,7 C 94 % 1026,2 hPa 0,0 l/m 0,0 km/h (0 Bft) SO 125 0 min 0,000 mm 0,0 UV-I 0 W/m 6,8 C 7,7 C 0,0 km/h (0 Bft) 100,00 %
13.11.2015 17:34 7,7 C 94 % 1026,2 hPa 0,0 l/m 0,1 km/h (0 Bft) SO 125 0 min 0,000 mm 0,0 UV-I 0 W/m 6,8 C 7,7 C 1,6 km/h (1 Bft) 100,00 %
13.11.2015 17:35 7,6 C 94 % 1026,2 hPa 0,0 l/m 1,4 km/h (1 Bft) SO 125 0 min 0,000 mm 0,0 UV-I 0 W/m 6,7 C 7,6 C 1,6 km/h (1 Bft) 100,00 %
13.11.2015 17:36 7,5 C 94 % 1026,2 hPa 0,0 l/m 0,2 km/h (0 Bft) SO 125 0 min 0,000 mm 0,0 UV-I 0 W/m 6,6 C 7,5 C 1,6 km/h (1 Bft) 100,00 %
13.11.2015 17:37 7,5 C 94 % 1026,2 hPa 0,0 l/m 0,9 km/h (0 Bft) SO 125 0 min 0,000 mm 0,0 UV-I 0 W/m 6,6 C 7,5 C 1,6 km/h (1 Bft) 95,83 %
13.11.2015 17:38 7,4 C 94 % 1026,2 hPa 0,0 l/m 1,0 km/h (0 Bft) SO 125 0 min 0,000 mm 0,0 UV-I 0 W/m 6,5 C 7,4 C 1,6 km/h (1 Bft) 100,00 %
13.11.2015 17:39 7,4 C 94 % 1026,2 hPa 0,0 l/m 0,1 km/h (0 Bft) SO 125 0 min 0,000 mm 0,0 UV-I 0 W/m 6,5 C 7,4 C 1,6 km/h (1 Bft) 100,00 %
13.11.2015 17:40 7,3 C 94 % 1026,2 hPa 0,0 l/m 0,1 km/h (0 Bft) SO 125 0 min 0,000 mm 0,0 UV-I 0 W/m 6,4 C 7,3 C 1,6 km/h (1 Bft) 100,00 %
13.11.2015 17:41 7,3 C 94 % 1026,2 hPa 0,0 l/m 0,1 km/h (0 Bft) SO 125 0 min 0,000 mm 0,0 UV-I 0 W/m 6,4 C 7,3 C 1,6 km/h (1 Bft) 100,00 %
13.11.2015 17:42 7,2 C 94 % 1026,2 hPa 0,0 l/m 0,0 km/h (0 Bft) SO 125 0 min 0,000 mm 0,0 UV-I 0 W/m 6,3 C 7,2 C 0,0 km/h (0 Bft) 100,00 %
13.11.2015 17:43 7,2 C 95 % 1026,2 hPa 0,0 l/m 0,0 km/h (0 Bft) SO 125 0 min 0,000 mm 0,0 UV-I 0 W/m 6,5 C 7,2 C 0,0 km/h (0 Bft) 95,65 %
13.11.2015 17:44 7,2 C 95 % 1026,1 hPa 0,0 l/m 0,2 km/h (0 Bft) SO 125 0 min 0,000 mm 0,0 UV-I 0 W/m 6,5 C 7,2 C 1,6 km/h (1 Bft) 100,00 %
13.11.2015 17:45 7,2 C 95 % 1026,1 hPa 0,0 l/m 2,3 km/h (1 Bft) SO 126 0 min 0,000 mm 0,0 UV-I 0 W/m 6,5 C 7,2 C 3,2 km/h (1 Bft) 100,00 %
13.11.2015 17:46 7,2 C 95 % 1026,1 hPa 0,0 l/m 2,6 km/h (1 Bft) SO 126 0 min 0,000 mm 0,0 UV-I 0 W/m 6,5 C 7,2 C 3,2 km/h (1 Bft) 100,00 %
13.11.2015 17:47 7,3 C 96 % 1026,2 hPa 0,0 l/m 1,9 km/h (1 Bft) SO 126 0 min 0,000 mm 0,0 UV-I 0 W/m 6,7 C 7,3 C 3,2 km/h (1 Bft) 100,00 %
13.11.2015 17:48 7,3 C 96 % 1026,2 hPa 0,0 l/m 2,0 km/h (1 Bft) SO 127 0 min 0,000 mm 0,0 UV-I 0 W/m 6,7 C 7,3 C 3,2 km/h (1 Bft) 100,00 %
13.11.2015 17:49 7,4 C 96 % 1026,2 hPa 0,0 l/m 0,6 km/h (0 Bft) SO 127 0 min 0,000 mm 0,0 UV-I 0 W/m 6,8 C 7,4 C 1,6 km/h (1 Bft) 100,00 %
13.11.2015 17:50 7,4 C 96 % 1026,3 hPa 0,0 l/m 0,0 km/h (0 Bft) SO 127 0 min 0,000 mm 0,0 UV-I 0 W/m 6,8 C 7,4 C 0,0 km/h (0 Bft) 100,00 %
13.11.2015 17:51 7,5 C 95 % 1026,3 hPa 0,0 l/m 1,1 km/h (1 Bft) SO 127 0 min 0,000 mm 0,0 UV-I 0 W/m 6,8 C 7,5 C 1,6 km/h (1 Bft) 100,00 %
13.11.2015 17:52 7,6 C 95 % 1026,2 hPa 0,0 l/m 1,3 km/h (1 Bft) SO 127 0 min 0,000 mm 0,0 UV-I 0 W/m 6,9 C 7,6 C 3,2 km/h (1 Bft) 95,83 %
13.11.2015 17:53 7,6 C 95 % 1026,2 hPa 0,0 l/m 0,7 km/h (0 Bft) SO 127 0 min 0,000 mm 0,0 UV-I 0 W/m 6,9 C 7,6 C 1,6 km/h (1 Bft) 100,00 %
13.11.2015 17:54 7,6 C 95 % 1026,2 hPa 0,0 l/m 0,0 km/h (0 Bft) SO 127 0 min 0,000 mm 0,0 UV-I 0 W/m 6,9 C 7,6 C 0,0 km/h (0 Bft) 100,00 %
13.11.2015 17:55 7,6 C 95 % 1026,1 hPa 0,0 l/m 0,3 km/h (0 Bft) SO 127 0 min 0,000 mm 0,0 UV-I 0 W/m 6,9 C 7,6 C 1,6 km/h (1 Bft) 100,00 %
13.11.2015 17:56 7,7 C 95 % 1026,0 hPa 0,0 l/m 0,0 km/h (0 Bft) SO 127 0 min 0,000 mm 0,0 UV-I 0 W/m 7,0 C 7,7 C 0,0 km/h (0 Bft) 100,00 %
13.11.2015 17:57 7,7 C 95 % 1026,1 hPa 0,0 l/m 0,0 km/h (0 Bft) SO 127 0 min 0,000 mm 0,0 UV-I 0 W/m 7,0 C 7,7 C 0,0 km/h (0 Bft) 95,65 %
13.11.2015 17:58 7,7 C 95 % 1026,1 hPa 0,0 l/m 0,0 km/h (0 Bft) SO 127 0 min 0,000 mm 0,0 UV-I 0 W/m 7,0 C 7,7 C 0,0 km/h (0 Bft) 100,00 %
13.11.2015 17:59 7,7 C 95 % 1026,0 hPa 0,0 l/m 0,0 km/h (0 Bft) SO 127 0 min 0,000 mm 0,0 UV-I 0 W/m 7,0 C 7,7 C 0,0 km/h (0 Bft) 100,00 %
13.11.2015 18:00 7,7 C 95 % 1026,0 hPa 0,0 l/m 0,0 km/h (0 Bft) SO 127 0 min 0,000 mm 0,0 UV-I 0 W/m 7,0 C 7,7 C 0,0 km/h (0 Bft) 100,00 %
13.11.2015 18:01 7,7 C 95 % 1026,0 hPa 0,0 l/m 0,0 km/h (0 Bft) SO 127 0 min 0,000 mm 0,0 UV-I 0 W/m 7,0 C 7,7 C 0,0 km/h (0 Bft) 100,00 %
13.11.2015 18:02 7,8 C 94 % 1026,1 hPa 0,0 l/m 0,0 km/h (0 Bft) SO 127 0 min 0,000 mm 0,0 UV-I 0 W/m 6,9 C 7,8 C 0,0 km/h (0 Bft) 100,00 %
13.11.2015 18:03 7,8 C 94 % 1026,1 hPa 0,0 l/m 0,0 km/h (0 Bft) SO 127 0 min 0,000 mm 0,0 UV-I 0 W/m 6,9 C 7,8 C 0,0 km/h (0 Bft) 100,00 %
13.11.2015 18:04 7,8 C 94 % 1026,1 hPa 0,0 l/m 0,0 km/h (0 Bft) SO 127 0 min 0,000 mm 0,0 UV-I 0 W/m 6,9 C 7,8 C 0,0 km/h (0 Bft) 100,00 %
13.11.2015 18:05 7,8 C 94 % 1026,1 hPa 0,0 l/m 0,0 km/h (0 Bft) SO 127 0 min 0,000 mm 0,0 UV-I 0 W/m 6,9 C 7,8 C 0,0 km/h (0 Bft) 100,00 %
13.11.2015 18:06 7,7 C 94 % 1026,1 hPa 0,0 l/m 0,0 km/h (0 Bft) SO 127 0 min 0,000 mm 0,0 UV-I 0 W/m 6,8 C 7,7 C 0,0 km/h (0 Bft) 100,00 %
13.11.2015 18:07 7,7 C 94 % 1026,1 hPa 0,0 l/m 0,4 km/h (0 Bft) SO 127 0 min 0,000 mm 0,0 UV-I 0 W/m 6,8 C 7,7 C 1,6 km/h (1 Bft) 100,00 %
13.11.2015 18:10 7,5 C 94 % 1026,2 hPa 0,0 l/m 1,1 km/h (1 Bft) SO 127 0 min 0,000 mm 0,0 UV-I 0 W/m 6,6 C 7,5 C 3,2 km/h (1 Bft) 95,89 %
13.11.2015 18:15 7,3 C 95 % 1026,1 hPa 0,0 l/m 0,5 km/h (0 Bft) SO 127 0 min 0,000 mm 0,0 UV-I 0 W/m 6,6 C 7,3 C 3,2 km/h (1 Bft) 98,39 %
13.11.2015 18:20 7,4 C 95 % 1026,2 hPa 0,0 l/m 1,8 km/h (1 Bft) S-SO 153 0 min 0,000 mm 0,0 UV-I 0 W/m 6,7 C 7,4 C 3,2 km/h (1 Bft) 100,00 %
13.11.2015 18:25 7,5 C 95 % 1026,1 hPa 0,0 l/m 1,1 km/h (1 Bft) S-SO 151 0 min 0,000 mm 0,0 UV-I 0 W/m 6,8 C 7,5 C 3,2 km/h (1 Bft) 100,00 %
13.11.2015 18:30 7,5 C 95 % 1026,2 hPa 0,0 l/m 0,4 km/h (0 Bft) S-SO 151 0 min 0,000 mm 0,0 UV-I 0 W/m 6,8 C 7,5 C 1,6 km/h (1 Bft) 100,00 %
13.11.2015 18:35 7,7 C 95 % 1026,2 hPa 0,0 l/m 0,0 km/h (0 Bft) S-SO 151 0 min 0,000 mm 0,0 UV-I 0 W/m 7,0 C 7,7 C 1,6 km/h (1 Bft) 100,00 %
13.11.2015 18:40 7,6 C 94 % 1026,0 hPa 0,0 l/m 0,7 km/h (0 Bft) S-SO 151 0 min 0,000 mm 0,0 UV-I 0 W/m 6,7 C 7,6 C 3,2 km/h (1 Bft) 98,35 %
13.11.2015 18:45 7,3 C 95 % 1026,1 hPa 0,0 l/m 1,1 km/h (1 Bft) SO 142 0 min 0,000 mm 0,0 UV-I 0 W/m 6,6 C 7,3 C 3,2 km/h (1 Bft) 100,00 %
13.11.2015 18:50 7,3 C 95 % 1026,2 hPa 0,0 l/m 0,2 km/h (0 Bft) SO 142 0 min 0,000 mm 0,0 UV-I 0 W/m 6,6 C 7,3 C 1,6 km/h (1 Bft) 100,00 %
13.11.2015 18:55 7,4 C 95 % 1026,2 hPa 0,0 l/m 1,8 km/h (1 Bft) SO 134 0 min 0,000 mm 0,0 UV-I 0 W/m 6,7 C 7,4 C 3,2 km/h (1 Bft) 99,13 %
13.11.2015 19:00 7,6 C 96 % 1026,3 hPa 0,0 l/m 0,4 km/h (0 Bft) SO 135 0 min 0,000 mm 0,0 UV-I 0 W/m 7,0 C 7,6 C 1,6 km/h (1 Bft) 100,00 %
13.11.2015 19:05 7,8 C 95 % 1026,3 hPa 0,0 l/m 1,3 km/h (1 Bft) S-SO 154 0 min 0,000 mm 0,0 UV-I 0 W/m 7,0 C 7,8 C 4,8 km/h (1 Bft) 99,19 %
13.11.2015 19:10 7,8 C 94 % 1026,3 hPa 0,0 l/m 1,6 km/h (1 Bft) SO 136 0 min 0,000 mm 0,0 UV-I 0 W/m 6,9 C 7,8 C 3,2 km/h (1 Bft) 100,00 %
13.11.2015 19:15 7,8 C 94 % 1026,3 hPa 0,0 l/m 0,3 km/h (0 Bft) SO 136 0 min 0,000 mm 0,0 UV-I 0 W/m 6,9 C 7,8 C 1,6 km/h (1 Bft) 100,00 %
13.11.2015 19:20 7,7 C 94 % 1026,3 hPa 0,0 l/m 0,3 km/h (0 Bft) SO 136 0 min 0,000 mm 0,0 UV-I 0 W/m 6,8 C 7,7 C 3,2 km/h (1 Bft) 99,08 %
13.11.2015 19:25 7,7 C 94 % 1026,2 hPa 0,0 l/m 0,4 km/h (0 Bft) SO 136 0 min 0,000 mm 0,0 UV-I 0 W/m 6,8 C 7,7 C 3,2 km/h (1 Bft) 100,00 %
13.11.2015 19:30 7,7 C 94 % 1026,3 hPa 0,0 l/m 0,5 km/h (0 Bft) SO 136 0 min 0,000 mm 0,0 UV-I 0 W/m 6,8 C 7,7 C 3,2 km/h (1 Bft) 99,10 %
13.11.2015 19:35 7,4 C 94 % 1026,4 hPa 0,0 l/m 0,7 km/h (0 Bft) SO 136 0 min 0,000 mm 0,0 UV-I 0 W/m 6,5 C 7,4 C 1,6 km/h (1 Bft) 100,00 %
13.11.2015 19:40 7,2 C 95 % 1026,3 hPa 0,0 l/m 0,0 km/h (0 Bft) SO 136 0 min 0,000 mm 0,0 UV-I 0 W/m 6,5 C 7,2 C 0,0 km/h (0 Bft) 99,17 %
13.11.2015 19:45 7,0 C 95 % 1026,4 hPa 0,0 l/m 0,0 km/h (0 Bft) SO 136 0 min 0,000 mm 0,0 UV-I 0 W/m 6,3 C 7,0 C 0,0 km/h (0 Bft) 100,00 %
13.11.2015 19:50 7,0 C 95 % 1026,2 hPa 0,0 l/m 0,0 km/h (0 Bft) SO 136 0 min 0,000 mm 0,0 UV-I 0 W/m 6,3 C 7,0 C 1,6 km/h (1 Bft) 100,00 %
13.11.2015 19:55 6,9 C 95 % 1026,3 hPa 0,0 l/m 0,5 km/h (0 Bft) NO 47 0 min 0,000 mm 0,0 UV-I 0 W/m 6,2 C 6,9 C 3,2 km/h (1 Bft) 100,00 %
13.11.2015 20:00 7,0 C 96 % 1026,3 hPa 0,0 l/m 0,7 km/h (0 Bft) NO 49 0 min 0,000 mm 0,0 UV-I 0 W/m 6,4 C 7,0 C 1,6 km/h (1 Bft) 98,35 %
13.11.2015 20:05 7,1 C 96 % 1026,3 hPa 0,0 l/m 0,2 km/h (0 Bft) NO 49 0 min 0,000 mm 0,0 UV-I 0 W/m 6,5 C 7,1 C 1,6 km/h (1 Bft) 100,00 %
13.11.2015 20:10 7,2 C 95 % 1026,3 hPa 0,0 l/m 0,1 km/h (0 Bft) NO 49 0 min 0,000 mm 0,0 UV-I 0 W/m 6,5 C 7,2 C 1,6 km/h (1 Bft) 99,21 %
13.11.2015 20:15 7,3 C 95 % 1026,4 hPa 0,0 l/m 0,1 km/h (0 Bft) NO 49 0 min 0,000 mm 0,0 UV-I 0 W/m 6,6 C 7,3 C 1,6 km/h (1 Bft) 99,11 %
13.11.2015 20:20 7,3 C 95 % 1026,4 hPa 0,0 l/m 0,2 km/h (0 Bft) NO 49 0 min 0,000 mm 0,0 UV-I 0 W/m 6,6 C 7,3 C 1,6 km/h (1 Bft) 100,00 %
13.11.2015 20:25 7,2 C 95 % 1026,4 hPa 0,0 l/m 0,2 km/h (0 Bft) SO 143 0 min 0,000 mm 0,0 UV-I 0 W/m 6,5 C 7,2 C 1,6 km/h (1 Bft) 100,00 %
13.11.2015 20:30 7,3 C 95 % 1026,3 hPa 0,0 l/m 0,5 km/h (0 Bft) S-SW 211 0 min 0,000 mm 0,0 UV-I 0 W/m 6,6 C 7,3 C 1,6 km/h (1 Bft) 99,17 %
13.11.2015 20:35 7,2 C 95 % 1026,3 hPa 0,0 l/m 0,7 km/h (0 Bft) S 176 0 min 0,000 mm 0,0 UV-I 0 W/m 6,5 C 7,2 C 3,2 km/h (1 Bft) 100,00 %
13.11.2015 20:40 7,3 C 95 % 1026,4 hPa 0,0 l/m 0,6 km/h (0 Bft) S 178 0 min 0,000 mm 0,0 UV-I 0 W/m 6,6 C 7,3 C 1,6 km/h (1 Bft) 100,00 %
13.11.2015 20:45 7,4 C 94 % 1026,3 hPa 0,0 l/m 0,2 km/h (0 Bft) S 178 0 min 0,000 mm 0,0 UV-I 0 W/m 6,5 C 7,4 C 1,6 km/h (1 Bft) 100,00 %
13.11.2015 20:50 7,4 C 94 % 1026,3 hPa 0,0 l/m 0,3 km/h (0 Bft) S 178 0 min 0,000 mm 0,0 UV-I 0 W/m 6,5 C 7,4 C 1,6 km/h (1 Bft) 96,40 %
13.11.2015 20:55 7,6 C 93 % 1026,3 hPa 0,0 l/m 1,4 km/h (1 Bft) SW 221 0 min 0,000 mm 0,0 UV-I 0 W/m 6,5 C 7,6 C 4,8 km/h (1 Bft) 99,13 %
13.11.2015 21:00 7,6 C 93 % 1026,2 hPa 0,0 l/m 0,5 km/h (0 Bft) S-SW 195 0 min 0,000 mm 0,0 UV-I 0 W/m 6,5 C 7,6 C 3,2 km/h (1 Bft) 99,17 %
13.11.2015 21:05 7,6 C 92 % 1026,2 hPa 0,0 l/m 0,5 km/h (0 Bft) S-SW 195 0 min 0,000 mm 0,0 UV-I 0 W/m 6,4 C 7,6 C 3,2 km/h (1 Bft) 98,25 %
13.11.2015 21:10 7,7 C 92 % 1026,2 hPa 0,0 l/m 1,8 km/h (1 Bft) S-SW 194 0 min 0,000 mm 0,0 UV-I 0 W/m 6,5 C 7,7 C 3,2 km/h (1 Bft) 100,00 %
13.11.2015 21:15 7,7 C 92 % 1026,2 hPa 0,0 l/m 1,1 km/h (1 Bft) S-SW 194 0 min 0,000 mm 0,0 UV-I 0 W/m 6,5 C 7,7 C 3,2 km/h (1 Bft) 99,22 %
13.11.2015 21:20 7,9 C 91 % 1026,1 hPa 0,0 l/m 1,9 km/h (1 Bft) S-SW 194 0 min 0,000 mm 0,0 UV-I 0 W/m 6,5 C 7,9 C 3,2 km/h (1 Bft) 99,11 %
13.11.2015 21:25 8,2 C 90 % 1026,1 hPa 0,0 l/m 3,8 km/h (1 Bft) S-SW 207 0 min 0,000 mm 0,0 UV-I 0 W/m 6,7 C 8,2 C 8,0 km/h (2 Bft) 99,19 %
13.11.2015 21:30 8,6 C 89 % 1026,0 hPa 0,0 l/m 4,0 km/h (1 Bft) S-SW 207 0 min 0,000 mm 0,0 UV-I 0 W/m 6,9 C 8,6 C 6,4 km/h (2 Bft) 100,00 %
13.11.2015 21:35 8,7 C 88 % 1026,0 hPa 0,0 l/m 2,9 km/h (1 Bft) S-SW 203 0 min 0,000 mm 0,0 UV-I 0 W/m 6,8 C 8,7 C 6,4 km/h (2 Bft) 99,19 %
13.11.2015 21:40 8,7 C 88 % 1026,0 hPa 0,0 l/m 2,5 km/h (1 Bft) S-SW 197 0 min 0,000 mm 0,0 UV-I 0 W/m 6,8 C 8,7 C 6,4 km/h (2 Bft) 100,00 %
13.11.2015 21:45 8,6 C 88 % 1026,0 hPa 0,0 l/m 1,9 km/h (1 Bft) S-SW 211 0 min 0,000 mm 0,0 UV-I 0 W/m 6,7 C 8,6 C 4,8 km/h (1 Bft) 100,00 %
13.11.2015 21:50 8,6 C 88 % 1026,0 hPa 0,0 l/m 1,9 km/h (1 Bft) S-SW 210 0 min 0,000 mm 0,0 UV-I 0 W/m 6,7 C 8,6 C 3,2 km/h (1 Bft) 100,00 %
13.11.2015 21:55 8,7 C 88 % 1026,0 hPa 0,0 l/m 2,1 km/h (1 Bft) S-SW 192 0 min 0,000 mm 0,0 UV-I 0 W/m 6,8 C 8,7 C 4,8 km/h (1 Bft) 99,12 %
13.11.2015 22:00 9,0 C 86 % 1026,0 hPa 0,0 l/m 2,7 km/h (1 Bft) S-SW 196 0 min 0,000 mm 0,0 UV-I 0 W/m 6,8 C 9,0 C 6,4 km/h (2 Bft) 98,31 %
13.11.2015 22:05 9,0 C 86 % 1025,9 hPa 0,0 l/m 1,5 km/h (1 Bft) S-SW 196 0 min 0,000 mm 0,0 UV-I 0 W/m 6,8 C 9,0 C 3,2 km/h (1 Bft) 99,17 %
13.11.2015 22:10 8,8 C 87 % 1025,9 hPa 0,0 l/m 0,7 km/h (0 Bft) S-SW 196 0 min 0,000 mm 0,0 UV-I 0 W/m 6,8 C 8,8 C 1,6 km/h (1 Bft) 97,37 %
13.11.2015 22:15 8,6 C 87 % 1025,9 hPa 0,0 l/m 0,5 km/h (0 Bft) S-SW 196 0 min 0,000 mm 0,0 UV-I 0 W/m 6,6 C 8,6 C 1,6 km/h (1 Bft) 100,00 %
13.11.2015 22:20 8,7 C 87 % 1025,9 hPa 0,0 l/m 1,2 km/h (1 Bft) S-SW 204 0 min 0,000 mm 0,0 UV-I 0 W/m 6,7 C 8,7 C 3,2 km/h (1 Bft) 99,11 %
13.11.2015 22:25 8,5 C 88 % 1025,9 hPa 0,0 l/m 0,4 km/h (0 Bft) S-SW 204 0 min 0,000 mm 0,0 UV-I 0 W/m 6,6 C 8,5 C 3,2 km/h (1 Bft) 99,19 %
13.11.2015 22:30 8,2 C 89 % 1026,0 hPa 0,0 l/m 0,5 km/h (0 Bft) S-SW 204 0 min 0,000 mm 0,0 UV-I 0 W/m 6,5 C 8,2 C 1,6 km/h (1 Bft) 98,17 %
13.11.2015 22:35 8,1 C 89 % 1026,0 hPa 0,0 l/m 0,0 km/h (0 Bft) S-SW 204 0 min 0,000 mm 0,0 UV-I 0 W/m 6,4 C 8,1 C 0,0 km/h (0 Bft) 98,31 %
13.11.2015 22:40 8,0 C 90 % 1026,0 hPa 0,0 l/m 0,7 km/h (0 Bft) S-SW 204 0 min 0,000 mm 0,0 UV-I 0 W/m 6,5 C 8,0 C 1,6 km/h (1 Bft) 97,50 %
13.11.2015 22:45 8,0 C 90 % 1025,8 hPa 0,0 l/m 1,5 km/h (1 Bft) S 186 0 min 0,000 mm 0,0 UV-I 0 W/m 6,5 C 8,0 C 3,2 km/h (1 Bft) 98,35 %
13.11.2015 22:50 8,2 C 90 % 1025,8 hPa 0,0 l/m 1,3 km/h (1 Bft) S 186 0 min 0,000 mm 0,0 UV-I 0 W/m 6,7 C 8,2 C 3,2 km/h (1 Bft) 100,00 %
13.11.2015 22:55 8,5 C 89 % 1025,7 hPa 0,0 l/m 2,4 km/h (1 Bft) SW 215 0 min 0,000 mm 0,0 UV-I 0 W/m 6,8 C 8,5 C 4,8 km/h (1 Bft) 100,00 %
13.11.2015 23:00 8,8 C 88 % 1025,7 hPa 0,0 l/m 3,5 km/h (1 Bft) S-SW 213 0 min 0,000 mm 0,0 UV-I 0 W/m 6,9 C 8,8 C 6,4 km/h (2 Bft) 100,00 %
13.11.2015 23:05 8,9 C 87 % 1025,6 hPa 0,0 l/m 5,3 km/h (1 Bft) S-SW 206 0 min 0,000 mm 0,0 UV-I 0 W/m 6,9 C 8,9 C 8,0 km/h (2 Bft) 99,12 %
13.11.2015 23:10 8,9 C 87 % 1025,5 hPa 0,0 l/m 5,4 km/h (1 Bft) SW 214 0 min 0,000 mm 0,0 UV-I 0 W/m 6,9 C 8,9 C 9,7 km/h (2 Bft) 100,00 %
13.11.2015 23:15 9,0 C 87 % 1025,7 hPa 0,0 l/m 6,5 km/h (2 Bft) S-SW 211 0 min 0,000 mm 0,0 UV-I 0 W/m 7,0 C 9,0 C 9,7 km/h (2 Bft) 100,00 %
13.11.2015 23:20 9,0 C 87 % 1025,7 hPa 0,0 l/m 4,6 km/h (1 Bft) S-SW 211 0 min 0,000 mm 0,0 UV-I 0 W/m 7,0 C 9,0 C 9,7 km/h (2 Bft) 100,00 %
13.11.2015 23:25 9,1 C 86 % 1025,7 hPa 0,0 l/m 5,6 km/h (1 Bft) S-SW 213 0 min 0,000 mm 0,0 UV-I 0 W/m 6,9 C 9,1 C 12,9 km/h (3 Bft) 99,11 %
13.11.2015 23:30 9,3 C 86 % 1025,5 hPa 0,0 l/m 4,4 km/h (1 Bft) S-SW 213 0 min 0,000 mm 0,0 UV-I 0 W/m 7,1 C 9,3 C 9,7 km/h (2 Bft) 100,00 %
13.11.2015 23:35 9,3 C 86 % 1025,6 hPa 0,0 l/m 5,2 km/h (1 Bft) SW 219 0 min 0,000 mm 0,0 UV-I 0 W/m 7,1 C 9,3 C 9,7 km/h (2 Bft) 100,00 %
13.11.2015 23:40 9,4 C 85 % 1025,5 hPa 0,0 l/m 6,2 km/h (2 Bft) SW 215 0 min 0,000 mm 0,0 UV-I 0 W/m 7,0 C 9,4 C 11,3 km/h (2 Bft) 99,13 %
13.11.2015 23:43 9,4 C 85 % 1025,4 hPa 0,0 l/m 7,2 km/h (2 Bft) S-SW 196 0 min 0,000 mm 0,0 UV-I 0 W/m 7,0 C 8,8 C 12,9 km/h (3 Bft) 97,47 %
13.11.2015 23:44 9,4 C 85 % 1025,4 hPa 0,0 l/m 6,9 km/h (2 Bft) SW 225 0 min 0,000 mm 0,0 UV-I 0 W/m 7,0 C 9,0 C 12,9 km/h (3 Bft) 100,00 %
13.11.2015 23:45 9,4 C 85 % 1025,4 hPa 0,0 l/m 5,8 km/h (2 Bft) SW 230 0 min 0,000 mm 0,0 UV-I 0 W/m 7,0 C 9,4 C 9,7 km/h (2 Bft) 100,00 %
13.11.2015 23:46 9,4 C 85 % 1025,4 hPa 0,0 l/m 7,2 km/h (2 Bft) S-SW 212 0 min 0,000 mm 0,0 UV-I 0 W/m 7,0 C 8,8 C 11,3 km/h (2 Bft) 100,00 %
13.11.2015 23:47 9,4 C 85 % 1025,4 hPa 0,0 l/m 6,0 km/h (2 Bft) SW 229 0 min 0,000 mm 0,0 UV-I 0 W/m 7,0 C 9,4 C 9,7 km/h (2 Bft) 100,00 %
13.11.2015 23:48 9,3 C 85 % 1025,4 hPa 0,0 l/m 5,5 km/h (1 Bft) W-SW 244 0 min 0,000 mm 0,0 UV-I 0 W/m 6,9 C 9,3 C 9,7 km/h (2 Bft) 100,00 %
13.11.2015 23:49 9,3 C 85 % 1025,4 hPa 0,0 l/m 6,6 km/h (2 Bft) S-SW 196 0 min 0,000 mm 0,0 UV-I 0 W/m 6,9 C 9,2 C 8,0 km/h (2 Bft) 100,00 %
13.11.2015 23:50 9,3 C 86 % 1025,4 hPa 0,0 l/m 5,4 km/h (1 Bft) SW 218 0 min 0,000 mm 0,0 UV-I 0 W/m 7,1 C 9,3 C 8,0 km/h (2 Bft) 100,00 %
13.11.2015 23:51 9,3 C 86 % 1025,4 hPa 0,0 l/m 5,8 km/h (2 Bft) SW 215 0 min 0,000 mm 0,0 UV-I 0 W/m 7,1 C 9,3 C 8,0 km/h (2 Bft) 100,00 %
13.11.2015 23:52 9,3 C 86 % 1025,4 hPa 0,0 l/m 4,7 km/h (1 Bft) SW 220 0 min 0,000 mm 0,0 UV-I 0 W/m 7,1 C 9,3 C 6,4 km/h (2 Bft) 100,00 %
13.11.2015 23:53 9,2 C 86 % 1025,4 hPa 0,0 l/m 3,8 km/h (1 Bft) SW 214 0 min 0,000 mm 0,0 UV-I 0 W/m 7,0 C 9,2 C 6,4 km/h (2 Bft) 100,00 %
13.11.2015 23:54 9,2 C 86 % 1025,4 hPa 0,0 l/m 4,3 km/h (1 Bft) S-SW 211 0 min 0,000 mm 0,0 UV-I 0 W/m 7,0 C 9,2 C 6,4 km/h (2 Bft) 100,00 %
13.11.2015 23:55 9,2 C 87 % 1025,4 hPa 0,0 l/m 6,1 km/h (2 Bft) SW 216 0 min 0,000 mm 0,0 UV-I 0 W/m 7,2 C 9,2 C 8,0 km/h (2 Bft) 100,00 %
13.11.2015 23:56 9,1 C 87 % 1025,3 hPa 0,0 l/m 4,6 km/h (1 Bft) SW 223 0 min 0,000 mm 0,0 UV-I 0 W/m 7,1 C 9,1 C 6,4 km/h (2 Bft) 100,00 %
13.11.2015 23:57 9,1 C 87 % 1025,4 hPa 0,0 l/m 4,0 km/h (1 Bft) SW 222 0 min 0,000 mm 0,0 UV-I 0 W/m 7,1 C 9,1 C 6,4 km/h (2 Bft) 100,00 %
13.11.2015 23:58 9,1 C 87 % 1025,4 hPa 0,0 l/m 5,1 km/h (1 Bft) SW 228 0 min 0,000 mm 0,0 UV-I 0 W/m 7,1 C 9,1 C 6,4 km/h (2 Bft) 100,00 %
13.11.2015 23:59 9,0 C 87 % 1025,3 hPa 0,0 l/m 5,9 km/h (2 Bft) S-SW 212 0 min 0,000 mm 0,0 UV-I 0 W/m 7,0 C 9,0 C 8,0 km/h (2 Bft) 100,00 %
_ Min-Zeit 05:29 23:40 03:39 - 00:07 - - - - - - 05:29 05:29 00:07 06:13
Minimum _ 1,2 C 85 % 1025,3 hPa - 0,0 km/h (0 Bft) - - - - - - 0,9 C 1,2 C 0,0 km/h (0 Bft) 86,96 %
_ Max-Zeit 23:40 10:00 10:04 00:00 23:43 - - 07:18 14:00 12:57 12:56 13:37 23:40 23:25 00:00
Maximum _ 9,4 C 99 % 1027,6 hPa 0,0 l/m 7,2 km/h
S-SW (2 Bft)
- - 1 min 0,102 mm 1,1 UV-I 383 W/m 7,6 C 9,4 C 12,9 km/h
SW (3 Bft)
100,00 %
Durchschnitt _ 5,6 C 95 % 1026,2 hPa #0,0 l/m 1,5 km/h (1 Bft) SW - #1:31 h #0,483 mm 0,7 UV-I 121 W/m 4,9 C 5,6 C 3,0 km/h (1 Bft) 99,24 %